[[{"header":{"parameterUnit":"m.s-1","parameterCategory":1,"la1":30.6,"la2":29.2853,"lo1":-89.7004,"lo2":-87.6739,"dy":0.0162,"dx":0.0183,"nx":112,"ny":82,"refTime":"2024-05-27T06:00:00:Z","depth":0,"parameterNumber":2,"parameterNumberName":"U-component_of_WINDS"},"data":[0.0,0.0,0.0,0.0,0.0,0.0,0.0,0.0,0.0,0.0,0.0,0.0,0.0,0.0,0.0,0.0,0.0,0.0,0.0,0.0,0.0,0.0,0.0,0.0,0.0,0.0,0.0,0.0,0.0,0.0,0.0,0.0,0.0,0.0,0.0,0.0,0.0,0.0,0.0,0.0,0.0,0.0,0.0,0.0,0.0,0.0,0.0,0.0,0.0,0.0,0.0,0.0,0.0,0.0,0.0,0.0,0.0,0.0,0.0,0.0,0.0,0.0,0.0,0.0,0.0,0.0,0.0,0.0,0.0,0.0,0.0,0.0,0.0,0.0,0.0,0.0,0.0,0.0,0.0,0.0,0.0,0.0,0.0,0.0,0.0,0.0,0.0,0.0,0.0,0.0,-5.1411,-5.4734,-5.6765,-5.7881,-5.7881,-5.7881,-5.663,-5.3687,0.0,0.0,0.0,0.0,0.0,0.0,0.0,0.0,0.0,0.0,0.0,0.0,0.0,0.0,0.0,0.0,0.0,0.0,0.0,0.0,0.0,0.0,0.0,0.0,0.0,0.0,0.0,0.0,0.0,0.0,0.0,0.0,0.0,0.0,0.0,0.0,0.0,0.0,0.0,0.0,0.0,0.0,0.0,0.0,0.0,0.0,0.0,0.0,0.0,0.0,0.0,0.0,0.0,0.0,0.0,0.0,0.0,0.0,0.0,0.0,0.0,0.0,0.0,0.0,0.0,0.0,0.0,0.0,0.0,0.0,0.0,0.0,0.0,0.0,0.0,0.0,0.0,0.0,0.0,0.0,0.0,0.0,0.0,0.0,0.0,0.0,0.0,0.0,0.0,0.0,0.0,0.0,0.0,0.0,0.0,0.0,0.0,0.0,0.0,0.0,0.0,0.0,0.0,0.0,-5.264,-5.6934,-5.7679,-5.7881,-5.7881,-5.7881,-5.663,-5.3687,0.0,0.0,0.0,0.0,0.0,0.0,0.0,0.0,0.0,0.0,0.0,0.0,0.0,0.0,0.0,0.0,0.0,0.0,0.0,0.0,0.0,0.0,0.0,0.0,0.0,0.0,0.0,0.0,0.0,0.0,0.0,0.0,0.0,0.0,0.0,0.0,0.0,0.0,0.0,0.0,0.0,0.0,0.0,0.0,0.0,0.0,0.0,0.0,0.0,0.0,0.0,0.0,0.0,0.0,0.0,0.0,0.0,0.0,0.0,0.0,0.0,0.0,0.0,0.0,0.0,0.0,0.0,0.0,0.0,0.0,0.0,0.0,0.0,0.0,0.0,0.0,0.0,0.0,0.0,0.0,0.0,0.0,0.0,0.0,0.0,0.0,0.0,0.0,0.0,0.0,0.0,0.0,0.0,0.0,0.0,0.0,0.0,0.0,0.0,0.0,0.0,0.0,0.0,-5.0601,-5.3326,-5.7456,-5.7881,-5.7881,-5.7881,-5.7881,-5.663,-5.3687,-5.1917,0.0,0.0,0.0,0.0,0.0,0.0,0.0,0.0,0.0,0.0,0.0,0.0,0.0,0.0,0.0,0.0,0.0,0.0,0.0,0.0,0.0,0.0,0.0,0.0,0.0,0.0,0.0,0.0,0.0,0.0,0.0,0.0,0.0,0.0,0.0,0.0,0.0,0.0,0.0,0.0,0.0,0.0,0.0,0.0,0.0,0.0,0.0,0.0,0.0,0.0,0.0,0.0,0.0,0.0,0.0,0.0,0.0,0.0,0.0,0.0,0.0,0.0,0.0,0.0,0.0,0.0,0.0,0.0,0.0,0.0,0.0,0.0,0.0,0.0,0.0,0.0,0.0,0.0,0.0,0.0,0.0,0.0,0.0,0.0,0.0,0.0,0.0,0.0,0.0,0.0,0.0,0.0,0.0,0.0,0.0,0.0,0.0,0.0,0.0,0.0,0.0,0.0,-5.2092,-5.3878,-5.714,-5.7755,-5.7881,-5.7881,-5.7577,-5.6275,-5.367,-5.0893,0.0,0.0,0.0,0.0,0.0,0.0,0.0,0.0,0.0,0.0,0.0,0.0,0.0,0.0,0.0,0.0,0.0,0.0,0.0,0.0,0.0,0.0,0.0,0.0,0.0,0.0,0.0,0.0,0.0,0.0,0.0,0.0,0.0,0.0,0.0,0.0,0.0,0.0,0.0,0.0,0.0,0.0,0.0,0.0,0.0,0.0,0.0,0.0,0.0,0.0,0.0,0.0,0.0,0.0,0.0,0.0,0.0,0.0,0.0,0.0,0.0,0.0,0.0,0.0,0.0,0.0,0.0,0.0,0.0,0.0,0.0,0.0,0.0,0.0,0.0,0.0,0.0,0.0,0.0,0.0,0.0,0.0,0.0,0.0,0.0,0.0,0.0,0.0,0.0,0.0,0.0,0.0,0.0,0.0,0.0,0.0,0.0,0.0,0.0,0.0,0.0,0.0,-5.172,-5.4583,-5.6156,-5.726,-5.7881,-5.7881,-5.6647,-5.5192,-5.3602,-4.9943,0.0,0.0,0.0,0.0,0.0,0.0,0.0,0.0,0.0,0.0,0.0,0.0,0.0,0.0,0.0,0.0,0.0,0.0,0.0,0.0,0.0,0.0,0.0,0.0,0.0,0.0,0.0,0.0,0.0,0.0,0.0,0.0,0.0,0.0,0.0,0.0,0.0,0.0,0.0,0.0,0.0,0.0,0.0,0.0,0.0,0.0,0.0,0.0,0.0,0.0,0.0,0.0,0.0,0.0,0.0,0.0,0.0,0.0,0.0,0.0,0.0,0.0,0.0,0.0,0.0,0.0,0.0,0.0,0.0,0.0,0.0,0.0,0.0,0.0,0.0,0.0,0.0,0.0,0.0,0.0,0.0,0.0,0.0,0.0,0.0,0.0,0.0,0.0,0.0,0.0,0.0,0.0,0.0,0.0,0.0,0.0,0.0,0.0,0.0,0.0,0.0,0.0,-4.948,-5.2282,-5.5824,-5.6569,-5.7131,-5.7845,-5.6409,-5.4692,-5.2875,0.0,0.0,0.0,0.0,0.0,0.0,0.0,0.0,0.0,0.0,0.0,0.0,0.0,0.0,0.0,0.0,0.0,0.0,0.0,0.0,0.0,0.0,0.0,0.0,0.0,0.0,0.0,0.0,0.0,0.0,0.0,0.0,0.0,0.0,0.0,0.0,0.0,0.0,0.0,0.0,0.0,0.0,0.0,0.0,0.0,0.0,0.0,0.0,0.0,0.0,0.0,0.0,0.0,0.0,0.0,0.0,0.0,0.0,0.0,0.0,0.0,0.0,0.0,0.0,0.0,0.0,0.0,0.0,0.0,0.0,0.0,0.0,0.0,0.0,0.0,0.0,0.0,0.0,0.0,0.0,0.0,0.0,0.0,0.0,0.0,0.0,0.0,0.0,0.0,0.0,0.0,0.0,0.0,0.0,0.0,0.0,0.0,0.0,0.0,0.0,0.0,0.0,-4.6085,-4.8295,-5.1036,-5.4753,-5.5474,-5.5909,-5.6495,-5.5034,-5.3189,-5.1191,0.0,0.0,0.0,0.0,0.0,0.0,0.0,0.0,0.0,0.0,0.0,0.0,0.0,0.0,0.0,0.0,0.0,0.0,0.0,0.0,0.0,0.0,0.0,0.0,0.0,0.0,0.0,0.0,0.0,0.0,0.0,0.0,0.0,0.0,0.0,0.0,0.0,0.0,0.0,0.0,0.0,0.0,0.0,0.0,0.0,0.0,0.0,0.0,0.0,0.0,0.0,0.0,0.0,0.0,0.0,0.0,0.0,0.0,0.0,0.0,0.0,0.0,0.0,0.0,0.0,0.0,0.0,0.0,0.0,0.0,0.0,0.0,0.0,0.0,0.0,0.0,0.0,0.0,0.0,0.0,0.0,0.0,0.0,0.0,0.0,0.0,0.0,0.0,0.0,0.0,0.0,0.0,0.0,0.0,0.0,0.0,0.0,0.0,0.0,0.0,0.0,0.0,-4.511,-4.8558,-5.1394,-5.2745,-5.3897,-5.4301,-5.3638,-5.2253,-5.0541,0.0,0.0,0.0,0.0,0.0,0.0,0.0,0.0,0.0,0.0,0.0,0.0,0.0,0.0,0.0,0.0,0.0,0.0,0.0,0.0,0.0,0.0,0.0,0.0,0.0,0.0,0.0,0.0,0.0,0.0,0.0,0.0,0.0,0.0,0.0,0.0,0.0,0.0,0.0,0.0,0.0,0.0,0.0,0.0,0.0,0.0,0.0,0.0,0.0,0.0,0.0,0.0,0.0,0.0,0.0,0.0,0.0,0.0,0.0,0.0,0.0,0.0,0.0,0.0,0.0,0.0,0.0,0.0,0.0,0.0,0.0,0.0,0.0,0.0,0.0,0.0,0.0,0.0,0.0,0.0,0.0,0.0,0.0,0.0,0.0,0.0,0.0,0.0,0.0,0.0,0.0,0.0,0.0,0.0,0.0,0.0,0.0,0.0,0.0,0.0,0.0,0.0,0.0,-4.4496,-4.7639,-5.0388,-5.2007,-5.2913,-5.3474,-5.3597,-5.2033,-5.0096,-4.7778,0.0,0.0,0.0,0.0,0.0,0.0,0.0,0.0,0.0,0.0,0.0,0.0,0.0,0.0,0.0,0.0,0.0,0.0,0.0,0.0,0.0,0.0,0.0,0.0,0.0,0.0,0.0,0.0,0.0,0.0,0.0,0.0,0.0,0.0,0.0,0.0,0.0,0.0,0.0,0.0,0.0,0.0,0.0,0.0,0.0,0.0,0.0,0.0,0.0,0.0,0.0,0.0,0.0,0.0,0.0,0.0,0.0,0.0,0.0,0.0,0.0,0.0,0.0,0.0,0.0,0.0,0.0,0.0,0.0,0.0,0.0,0.0,0.0,0.0,0.0,0.0,0.0,0.0,0.0,0.0,0.0,0.0,0.0,0.0,0.0,0.0,0.0,0.0,0.0,0.0,0.0,0.0,0.0,0.0,0.0,0.0,0.0,0.0,0.0,0.0,0.0,0.0,-4.4227,-4.7219,-4.9809,-5.1071,-5.1832,-5.2146,-5.1896,-5.0904,-4.8974,-4.5906,0.0,0.0,0.0,0.0,0.0,0.0,0.0,0.0,0.0,0.0,0.0,0.0,0.0,0.0,0.0,0.0,0.0,0.0,0.0,0.0,0.0,0.0,0.0,0.0,0.0,0.0,0.0,0.0,0.0,0.0,0.0,0.0,0.0,0.0,0.0,0.0,0.0,0.0,0.0,0.0,0.0,0.0,0.0,0.0,0.0,0.0,0.0,0.0,0.0,0.0,0.0,0.0,0.0,0.0,0.0,0.0,0.0,0.0,0.0,0.0,0.0,0.0,0.0,0.0,0.0,0.0,0.0,0.0,0.0,0.0,0.0,0.0,0.0,0.0,0.0,0.0,0.0,0.0,0.0,0.0,0.0,0.0,0.0,0.0,0.0,0.0,0.0,0.0,0.0,0.0,0.0,0.0,0.0,0.0,0.0,0.0,0.0,0.0,0.0,0.0,0.0,0.0,-4.4152,-4.7174,-4.9494,-5.0046,-5.0749,-5.069,-4.9419,-4.9314,-4.7593,-4.3633,0.0,0.0,0.0,0.0,0.0,0.0,0.0,0.0,0.0,0.0,0.0,0.0,0.0,0.0,0.0,0.0,0.0,0.0,0.0,0.0,0.0,0.0,0.0,0.0,0.0,0.0,0.0,0.0,0.0,0.0,0.0,0.0,0.0,0.0,0.0,0.0,0.0,0.0,0.0,0.0,0.0,0.0,0.0,0.0,0.0,0.0,0.0,0.0,0.0,0.0,0.0,0.0,0.0,0.0,0.0,0.0,0.0,0.0,0.0,0.0,-4.572,-4.5128,0.0,0.0,0.0,0.0,0.0,0.0,0.0,0.0,0.0,0.0,0.0,0.0,0.0,0.0,0.0,0.0,0.0,0.0,0.0,0.0,0.0,0.0,0.0,0.0,0.0,0.0,0.0,0.0,0.0,0.0,0.0,0.0,0.0,0.0,0.0,0.0,0.0,0.0,0.0,0.0,-4.3484,-4.689,-4.9359,-4.9464,-5.0526,-5.069,-4.9419,-4.9314,-4.7788,-4.4332,-4.3629,0.0,0.0,0.0,0.0,0.0,0.0,0.0,0.0,0.0,0.0,0.0,0.0,0.0,0.0,0.0,0.0,0.0,0.0,0.0,0.0,0.0,0.0,0.0,0.0,0.0,0.0,0.0,0.0,0.0,0.0,0.0,0.0,0.0,0.0,0.0,0.0,0.0,0.0,0.0,0.0,0.0,0.0,0.0,0.0,0.0,0.0,0.0,0.0,0.0,0.0,0.0,0.0,0.0,0.0,0.0,0.0,0.0,0.0,0.0,-4.6701,-4.6007,0.0,0.0,0.0,0.0,0.0,0.0,0.0,0.0,0.0,0.0,0.0,0.0,0.0,0.0,0.0,0.0,0.0,0.0,0.0,0.0,0.0,0.0,0.0,0.0,0.0,0.0,0.0,0.0,0.0,0.0,0.0,0.0,0.0,0.0,0.0,0.0,0.0,0.0,0.0,0.0,-4.329,-4.6531,-4.879,-4.879,-4.9688,-4.9883,-4.888,-4.879,-4.7638,-4.496,-4.4167,0.0,0.0,0.0,0.0,0.0,0.0,0.0,0.0,0.0,0.0,0.0,0.0,0.0,0.0,0.0,0.0,0.0,0.0,0.0,0.0,0.0,0.0,0.0,0.0,0.0,0.0,0.0,0.0,0.0,0.0,0.0,0.0,0.0,0.0,0.0,0.0,0.0,0.0,0.0,0.0,0.0,0.0,0.0,0.0,0.0,0.0,0.0,0.0,0.0,0.0,0.0,0.0,0.0,-4.8396,-4.8785,-4.939,-4.939,-4.939,-4.9323,-4.8105,-4.7411,-4.7141,-4.6532,0.0,0.0,0.0,0.0,0.0,0.0,0.0,0.0,0.0,0.0,0.0,0.0,0.0,0.0,0.0,0.0,0.0,0.0,0.0,0.0,0.0,0.0,-4.3992,-4.3992,-4.4855,-4.5229,-4.3758,0.0,0.0,0.0,0.0,0.0,0.0,0.0,0.0,0.0,0.0,0.0,-4.3469,-4.6307,-4.8282,-4.8282,-4.8925,-4.9045,-4.8341,-4.8282,-4.7474,-4.5589,-4.4855,-4.3658,0.0,0.0,0.0,0.0,0.0,0.0,0.0,0.0,0.0,0.0,0.0,0.0,0.0,0.0,0.0,0.0,0.0,0.0,0.0,0.0,0.0,0.0,0.0,0.0,0.0,0.0,0.0,0.0,0.0,0.0,0.0,0.0,-4.2515,-4.3994,0.0,0.0,0.0,0.0,0.0,0.0,0.0,0.0,0.0,0.0,0.0,0.0,0.0,-4.8495,-4.8495,-4.9265,-4.9695,-4.9813,-5.0473,-5.0813,-5.0898,-5.0898,-5.0898,-5.0913,-5.0678,0.0,-4.8697,-4.8612,0.0,0.0,0.0,0.0,0.0,0.0,0.0,0.0,0.0,0.0,0.0,0.0,0.0,0.0,0.0,0.0,0.0,0.0,0.0,0.0,0.0,0.0,-4.677,-4.677,-4.692,-4.713,-4.7444,-4.5678,-4.3838,-4.305,-4.2566,-4.2216,0.0,0.0,0.0,0.0,0.0,0.0,-4.4182,-4.6591,-4.8282,-4.8282,-4.8925,-4.9045,-4.8341,-4.8282,-4.7683,-4.6277,-4.5544,-4.4556,-4.318,-4.25,0.0,0.0,0.0,0.0,0.0,0.0,0.0,0.0,0.0,0.0,0.0,0.0,0.0,0.0,0.0,0.0,0.0,0.0,0.0,0.0,0.0,0.0,0.0,0.0,0.0,0.0,0.0,0.0,0.0,-4.2046,-4.4027,-4.5087,-4.5597,-4.5892,0.0,0.0,0.0,0.0,0.0,0.0,0.0,0.0,0.0,-4.9942,-5.0107,-5.0005,-4.9539,-5.0309,-5.093,-5.1352,-5.2131,-5.2723,-5.3129,-5.3551,-5.3754,-5.3754,-5.3754,-5.3382,-5.2621,-5.049,-4.9424,-4.9069,0.0,0.0,0.0,0.0,-4.8096,-4.7408,-4.8084,-4.7802,-4.6994,-4.6179,0.0,0.0,0.0,0.0,0.0,0.0,0.0,-4.4481,-4.5244,-4.6097,-4.6845,-4.7219,-4.7878,-4.8386,-4.8297,-4.7952,-4.6967,-4.4855,-4.4212,-4.3698,-4.259,-4.2432,0.0,0.0,0.0,-4.487,-4.487,-4.6546,-4.7743,-4.7743,-4.7997,-4.8057,-4.7758,-4.7743,-4.7489,-4.692,-4.6247,-4.5439,-4.4496,-4.3464,-4.2282,0.0,0.0,0.0,0.0,0.0,0.0,0.0,0.0,0.0,0.0,0.0,0.0,0.0,0.0,0.0,0.0,0.0,0.0,0.0,0.0,0.0,0.0,0.0,0.0,0.0,0.0,0.0,0.0,-4.3786,-4.5073,-4.6172,-4.6635,-4.6884,0.0,0.0,0.0,0.0,0.0,0.0,-5.1885,-5.1958,-5.1832,-5.1652,-5.2164,-5.2075,-5.1266,-5.1995,-5.2638,-5.3179,-5.3788,-5.4346,-5.4905,-5.5463,-5.5681,-5.5681,-5.5681,-5.5681,-5.548,-5.2469,-5.1133,-5.0879,-5.0135,-4.9729,-4.9644,-5.0185,-4.9633,-4.8729,-4.9719,-4.9325,-4.8158,-4.7,-4.6229,-4.5508,-4.4213,0.0,0.0,0.0,0.0,-4.5349,-4.6516,-4.695,-4.7234,-4.7908,-4.8805,-4.9434,-4.9105,-4.9673,-4.9418,-4.6815,-4.6172,-4.5544,-4.3938,-4.3883,0.0,-4.3249,-4.4511,-4.5559,-4.5559,-4.6576,-4.7309,-4.7309,-4.7309,-4.7309,-4.7309,-4.7309,-4.7309,-4.7309,-4.6845,-4.6277,-4.5589,-4.4616,-4.3404,-4.1908,0.0,0.0,0.0,0.0,0.0,0.0,0.0,0.0,0.0,0.0,0.0,0.0,0.0,0.0,0.0,0.0,0.0,0.0,0.0,0.0,0.0,0.0,0.0,0.0,0.0,0.0,0.0,0.0,0.0,-4.7409,-4.7959,0.0,0.0,0.0,0.0,-5.0618,-5.1371,-5.1867,-5.1977,-5.353,-5.4033,-5.3227,-5.4755,-5.5208,-5.4397,-5.5108,-5.5478,-5.5547,-5.5581,-5.5597,-5.5666,-5.5664,-5.5681,-5.5681,-5.5681,-5.5681,-5.5614,-5.4735,-5.3957,-5.3247,-5.2452,-5.1725,-5.1083,-5.1117,-5.11,-5.1006,-5.08,-5.0841,-5.076,-4.9157,-4.7145,-4.5312,-4.5256,-4.4766,0.0,0.0,-4.6172,-4.7309,-4.8012,-4.8656,-4.9284,-4.9882,-5.0106,-5.03,-5.0945,-5.0584,-4.9956,-4.9254,-4.8566,-4.7908,-4.7174,0.0,-4.5933,-4.5244,-4.5783,-4.6277,-4.6277,-4.6875,-4.7309,-4.7309,-4.7309,-4.7309,-4.7309,-4.7309,-4.7309,-4.7309,-4.7279,-4.6965,-4.6264,-4.616,-4.5203,-4.323,-4.2596,0.0,0.0,0.0,0.0,0.0,0.0,0.0,0.0,0.0,0.0,0.0,0.0,0.0,0.0,0.0,0.0,0.0,0.0,0.0,0.0,0.0,0.0,0.0,0.0,0.0,0.0,0.0,0.0,-4.9015,-4.9196,0.0,-5.0288,-5.0839,-5.1481,-5.2289,-5.3096,-5.4216,-5.5776,-5.6456,-5.6903,-5.7155,-5.7228,-5.6902,-5.6089,-5.5842,-5.5681,-5.5733,-5.619,-5.6427,-5.6427,-5.69,-5.712,-5.712,-5.712,-5.712,-5.7103,-5.6816,-5.6004,-5.4905,-5.4617,-5.4346,-5.411,-5.411,-5.411,-5.4075,-5.3983,-5.402,-5.3764,-5.18,-4.9692,-4.7892,-4.7892,-4.7683,-4.7549,-4.7832,-4.8207,-4.8626,-4.885,-4.9134,-4.9359,-4.9553,-4.9942,-5.0255,-5.048,-5.0689,-5.0795,-5.0571,-4.9658,-4.8745,-4.8057,-4.8087,-4.7848,-4.6756,-4.716,-4.7429,-4.701,-4.716,-4.7309,-4.7309,-4.7309,-4.7309,-4.7309,-4.7309,-4.713,-4.6696,-4.6681,-4.6381,-4.5678,-4.5259,-4.4456,-4.3319,-4.2701,-4.1545,0.0,0.0,0.0,0.0,0.0,0.0,0.0,0.0,0.0,0.0,0.0,0.0,0.0,0.0,0.0,0.0,0.0,0.0,0.0,0.0,0.0,0.0,0.0,0.0,0.0,-4.6836,-4.8107,-4.975,-5.0209,-5.0729,-5.1536,-5.2344,-5.3133,-5.3959,-5.5005,-5.6308,-5.7905,-5.8767,-5.9359,-5.9655,-5.9419,-5.8749,-5.7654,-5.7089,-5.671,-5.6461,-5.6934,-5.7171,-5.7188,-5.7679,-5.7881,-5.7881,-5.7881,-5.7881,-5.7881,-5.7881,-5.7323,-5.6427,-5.619,-5.5936,-5.5681,-5.5681,-5.5681,-5.5646,-5.5259,-5.4901,-5.4336,-5.2501,-5.0758,-4.9314,-4.9314,-4.9314,-4.9314,-4.9314,-4.9434,-4.9583,-4.9583,-4.9763,-4.9927,-4.9927,-5.0257,-5.0524,-5.0524,-5.0868,-5.1214,-5.1214,-5.0526,-4.9718,-4.906,-4.9314,-4.9224,-4.8132,-4.8341,-4.8461,-4.8027,-4.7967,-4.7967,-4.7967,-4.7773,-4.7638,-4.7638,-4.7234,-4.689,-4.6666,-4.6232,-4.5873,-4.5648,-4.5005,-4.4332,-4.3633,-4.2806,-4.1856,-4.0726,0.0,0.0,0.0,0.0,0.0,0.0,0.0,0.0,0.0,0.0,0.0,0.0,0.0,0.0,0.0,0.0,0.0,0.0,0.0,0.0,0.0,0.0,0.0,-4.7131,-4.7828,-4.8673,-4.9574,-5.1079,-5.2344,-5.317,-5.3995,-5.4803,-5.5592,-5.7134,-5.8052,-5.8107,-6.0327,-6.1259,-6.0494,-6.1161,-6.0784,-5.9144,-5.9077,-5.8686,-5.7881,-5.7881,-5.7881,-5.7881,-5.7881,-5.7881,-5.7881,-5.7881,-5.7881,-5.7881,-5.7881,-5.7881,-5.7814,-5.7103,-5.641,-5.5749,-5.5749,-5.5749,-5.5538,-5.4444,-5.3408,-5.2339,-5.124,-5.0157,-4.9374,-4.9374,-4.9374,-4.9374,-4.9374,-4.9778,-5.0226,-5.0226,-5.0689,-5.1214,-5.1214,-5.1214,-5.1214,-5.1214,-5.1214,-5.1214,-5.1214,-5.1214,-5.1005,-5.033,-5.0226,-5.0047,-4.9434,-4.9344,0.0,-4.9314,-4.9314,-4.9314,-4.9314,-4.8701,-4.8312,-4.8282,-4.7115,-4.6636,-4.7204,-4.6022,-4.5589,-4.619,-4.5618,-4.496,-4.4332,-4.3045,-4.2111,-4.1444,0.0,0.0,0.0,0.0,0.0,0.0,0.0,0.0,0.0,0.0,0.0,0.0,0.0,0.0,0.0,0.0,0.0,0.0,0.0,0.0,0.0,-4.6783,-4.7957,-4.7957,-4.8691,-4.9776,-5.1171,-5.2252,-5.3188,-5.3995,-5.5335,-5.6473,-5.7281,-5.829,-5.9391,-6.0548,-6.1227,-6.1777,-6.2143,-6.1225,-6.0519,-6.0055,-5.8823,-5.8101,-5.7881,-5.7881,-5.7881,-5.7881,-5.7881,-5.7881,-5.7881,-5.7881,-5.7881,-5.7881,-5.7881,-5.7881,-5.7865,-5.7679,-5.7459,-5.7289,-5.7289,-5.6784,-5.6027,-5.5688,-5.4349,-5.2762,-5.2415,-5.1605,-5.0676,-5.0676,-5.0676,-5.0676,-5.0676,-5.081,-5.0945,-5.0945,-5.1079,-5.1214,-5.1214,-5.1214,-5.1214,-5.1214,-5.1214,-5.1214,-5.1214,-5.1214,-5.1154,-5.0943,-5.0945,-5.0674,-5.0077,-4.9972,-4.9793,-4.9374,-4.9314,-4.9314,-4.9314,-4.9149,-4.885,-4.8327,-4.7952,-4.7204,-4.5918,-4.5499,-4.517,-4.4885,-4.4691,-4.4496,-4.4317,-4.3494,-4.297,0.0,0.0,0.0,0.0,0.0,0.0,0.0,0.0,0.0,0.0,0.0,0.0,0.0,0.0,0.0,0.0,0.0,0.0,0.0,0.0,0.0,0.0,-4.7994,-4.9077,-4.9756,-5.0288,-5.1098,-5.2344,-5.3518,-5.4528,-5.5335,-5.6877,-5.8015,-5.8474,-5.9575,-6.0621,-6.1539,-6.1924,-6.2328,-6.2805,-6.1576,-6.073,-6.0414,-5.9078,-5.8227,-5.7881,-5.7881,-5.7881,-5.7881,-5.7881,-5.7881,-5.7881,-5.7881,-5.7881,-5.7881,-5.7881,-5.7881,-5.7881,0.0,0.0,0.0,0.0,-5.6794,-5.607,-5.5134,-5.3983,-5.2812,-5.235,-5.1727,-5.1214,-5.1214,-5.1214,-5.1214,-5.1214,-5.1214,-5.1214,-5.1214,-5.1214,-5.1214,-5.1214,-5.1214,-5.1214,-5.1214,-5.1214,-5.1214,-5.1214,-5.1214,0.0,-5.1214,-5.1214,-5.1094,-5.0659,-5.0599,-5.0511,-5.0137,-5.0092,-5.0092,-5.0092,-4.9838,-4.9523,-4.9134,-4.8356,0.0,0.0,0.0,-4.5125,-4.4751,-4.4721,0.0,0.0,0.0,0.0,0.0,0.0,0.0,0.0,-4.1421,-4.0786,0.0,0.0,0.0,0.0,0.0,0.0,0.0,0.0,0.0,0.0,0.0,0.0,0.0,0.0,0.0,0.0,-4.9169,-5.0381,-5.1814,-5.216,-5.2527,-5.3261,-5.4766,-5.6051,-5.6859,-5.8304,-5.9276,-5.9459,-6.0786,-6.163,-6.1722,-6.242,0.0,0.0,0.0,-6.1084,-6.026,-5.941,-5.8599,-5.7881,-5.7881,-5.7881,-5.7881,-5.7881,-5.7881,-5.7881,-5.7881,-5.7881,-5.7881,-5.7881,-5.7881,-5.7881,-5.7881,-5.7808,-5.7591,-5.6569,-5.6031,-5.5578,-5.3726,0.0,0.0,-5.1681,-5.1293,-5.1214,-5.1214,-5.1214,-5.1214,-5.1214,-5.1214,-5.1214,-5.1214,-5.1214,-5.1214,-5.1214,-5.1214,-5.1214,-5.1214,-5.1214,-5.1214,-5.1214,-5.1214,-5.1214,-5.1214,-5.1214,-5.1214,-5.1214,-5.1214,-5.1214,-5.1214,-5.1214,-5.1214,-5.1214,-5.0644,0.0,-5.0196,-4.8566,-4.7713,-4.8147,-4.6441,-4.5409,-4.5409,-4.5484,-4.5484,-4.5409,-4.5409,-4.5454,-4.5529,-4.5449,-4.5127,-4.4473,-4.0976,-3.9864,0.0,0.0,0.0,0.0,0.0,0.0,0.0,0.0,0.0,0.0,0.0,0.0,0.0,0.0,0.0,-4.8251,-5.0123,-5.1628,-5.1958,-5.3115,-5.3995,-5.4142,-5.5592,-5.6877,-5.7685,-5.8657,-5.9758,-6.1043,-6.141,-6.1887,-6.2548,-6.2732,-6.2497,-6.1842,-6.1055,-6.0242,-5.9377,-5.8546,-5.8046,-5.7881,-5.7881,0.0,-5.7881,-5.7881,-5.7881,-5.7881,-5.7881,-5.7881,-5.7881,-5.7881,-5.7881,-5.7881,-5.7881,-5.7335,-5.6492,-5.6282,-5.5077,-5.3613,-5.4126,-5.3077,-5.1635,-5.235,-5.1926,-5.1214,-5.1214,-5.1214,0.0,-5.1214,-5.1214,-5.1214,-5.1214,-5.1214,-5.1214,-5.1214,-5.1214,-5.1214,-5.1214,-5.1214,-5.1214,-5.1214,-5.1214,-5.1214,-5.1214,-5.1214,-5.1214,-5.1214,-5.1214,-5.1214,-5.1214,-5.1214,-5.1214,-5.1214,-5.1063,-5.0764,-5.024,-4.9404,-4.8491,-4.7549,-4.6636,-4.6127,-4.6127,-4.6636,-4.6666,-4.6142,-4.6127,-4.6381,-4.692,-4.5886,-4.5864,-4.6713,-4.3854,-4.2894,0.0,0.0,0.0,0.0,0.0,0.0,0.0,0.0,0.0,0.0,0.0,-4.614,-4.6948,0.0,-4.9436,-5.0052,-5.1353,-5.252,-5.312,-5.4234,-5.4987,-5.4987,-5.6069,-5.7281,-5.8492,-5.9336,-6.0309,-6.1502,-6.1979,-6.2383,-6.2762,-6.242,-6.2023,-6.1614,-6.041,-5.9541,-5.9111,-5.8281,-5.7881,-5.7881,-5.7881,-5.7881,-5.7881,-5.7881,-5.7881,-5.7881,-5.7881,-5.7881,-5.7881,-5.7881,-5.7881,-5.7881,-5.7881,-5.7554,-5.7001,-5.6415,-5.5498,-5.4557,-5.4573,-5.3498,-5.2139,-5.2694,-5.2154,-5.1214,-5.1214,-5.1214,-5.1214,-5.1214,-5.1214,-5.1214,-5.1214,-5.1214,-5.1214,-5.1214,-5.1214,-5.1214,-5.1214,-5.1214,-5.1214,-5.1214,-5.1214,-5.1214,-5.1214,-5.1214,-5.1214,-5.1214,-5.1214,-5.1214,-5.1214,-5.1214,-5.1214,-5.1214,-5.1214,-5.1079,-5.0704,-5.0137,-4.9194,-4.7878,-4.7489,-4.7309,-4.7309,-4.7309,-4.7145,-4.683,-4.713,-4.7474,-4.7803,-4.7821,-4.7829,-4.7765,-4.6756,-4.5929,0.0,0.0,0.0,0.0,0.0,0.0,0.0,-4.3516,-4.4378,-4.5021,-4.6452,-4.7792,-4.8434,-4.9658,-5.0953,-5.2163,-5.2771,-5.3479,-5.4596,-5.5454,-5.5926,-5.5835,-5.6675,-5.7827,-5.9276,-6.0162,-6.097,-6.1777,-6.2438,-6.278,-6.278,-6.2049,-6.153,-6.1389,-5.9893,-5.901,-5.8875,-5.8227,-5.7881,-5.7881,-5.7881,-5.7881,-5.7881,-5.7881,-5.7881,-5.7881,-5.7881,-5.7881,-5.7881,-5.7881,-5.7881,-5.7881,-5.7881,-5.7881,-5.7755,-5.6624,-5.6087,-5.5794,-5.515,-5.4025,-5.2945,-5.3165,-5.232,-5.1214,-5.1214,-5.1214,-5.1214,-5.1214,-5.1214,-5.1214,-5.1214,-5.1214,-5.1214,-5.1214,-5.1214,-5.1214,-5.1214,-5.1214,-5.1214,-5.1214,-5.1214,-5.1214,-5.1214,-5.1214,-5.1214,-5.1214,-5.1214,-5.1214,-5.1214,-5.1214,-5.1214,-5.1214,-5.1214,-5.1169,-5.1035,-5.0495,-4.9687,-4.8551,-4.8476,-4.8476,-4.8476,-4.7967,-4.7683,-4.7683,-4.8207,-4.8536,-4.8671,-4.9672,-4.97,-4.8827,-4.9335,-4.8628,-3.6295,-3.7069,-3.8264,-4.0714,-4.1691,-4.2475,0.0,-4.5608,-4.6709,-4.6801,-4.8159,-4.9353,-4.9445,-5.0734,-5.2201,-5.3479,-5.4317,-5.5118,-5.5973,-5.6791,-5.7128,-5.6724,-5.7992,-5.9276,-6.0181,-6.0988,-6.1796,-6.2622,-6.2743,-6.278,-6.278,-6.2049,-6.1275,-6.0567,-5.9589,-5.8755,-5.8046,-5.7954,-5.7881,-5.7881,-5.7881,-5.7881,-5.7881,-5.7881,-5.7881,-5.7881,-5.7881,-5.7881,-5.7881,-5.7881,-5.7881,-5.7881,-5.7881,-5.7881,-5.7755,-5.6624,-5.5594,-5.4904,-5.5714,-5.464,-5.3077,-5.4084,-5.2945,-5.1214,-5.1214,-5.1214,-5.1214,-5.1214,-5.1214,-5.1214,-5.1214,-5.1214,-5.1214,-5.1214,-5.1214,-5.1214,-5.1214,-5.1214,-5.1214,-5.1214,-5.1214,-5.1214,-5.1214,-5.1214,-5.1214,-5.1214,-5.1214,-5.1214,-5.1214,-5.1214,-5.1214,-5.1214,-5.1214,-5.0943,-5.0345,-5.0226,-4.9927,-4.9239,-4.9209,-4.9209,-4.9209,-4.9134,-4.909,-4.909,-4.9164,-4.9434,-4.9971,-5.0121,-5.0433,-5.086,-5.0934,-5.021,-3.7577,-3.9053,-4.0308,-4.1345,-4.2654,-4.4011,-4.5149,-4.6007,-4.6721,-4.7175,-4.7524,-4.8139,-4.9462,-5.0856,-5.2421,-5.4298,-5.547,-5.6347,-5.6909,-5.7298,-5.7487,-5.7496,-5.8933,-6.0034,-6.0382,-6.1135,-6.1924,-6.275,-6.278,-6.278,-6.278,-6.1604,-6.0748,-6.0414,-5.9112,-5.8227,-5.7881,-5.7881,-5.7881,-5.7881,-5.7881,-5.7881,-5.7881,-5.7881,-5.7881,-5.7881,-5.7881,-5.7881,-5.7881,-5.7881,-5.7881,-5.7881,-5.7881,-5.7881,-5.7845,-5.7389,-5.6925,-5.6603,-5.7039,-5.573,-5.3956,-5.4463,-5.3077,-5.1214,-5.1214,-5.1214,-5.1214,-5.1214,-5.1214,-5.1214,-5.1214,-5.1214,-5.1214,-5.1214,-5.1214,-5.1214,-5.1214,-5.1214,-5.1214,-5.1214,-5.1214,-5.1214,-5.1214,-5.1214,-5.1214,-5.1214,-5.1214,-5.1214,-5.1214,-5.1214,-5.1214,-5.1214,-5.1214,-5.0945,-5.0255,-5.0539,-5.0526,-4.9868,-4.9823,-4.9823,-4.9823,-4.9479,-4.9314,-4.9314,-4.9628,-4.9972,-5.0196,-5.0569,-5.0945,-5.1214,-5.1214,-5.0902,-3.8618,-4.0229,-4.1305,-4.1529,-4.3037,-4.4656,-4.5479,-4.5959,-4.6424,-4.7002,-4.6911,-4.7388,-4.9429,-5.1003,-5.2816,-5.523,-5.6645,-5.7626,-5.8126,-5.8221,-5.8295,-5.85,-5.9757,-6.0646,-6.0737,-6.1465,-6.2181,-6.2768,-6.278,-6.2686,-6.2471,-6.116,-6.0291,-6.0055,-5.8651,-5.7881,-5.7881,-5.7881,-5.7881,-5.7881,-5.7881,-5.7881,-5.7881,-5.7881,-5.7881,-5.7881,-5.7881,-5.7881,-5.7881,-5.7881,-5.7881,-5.7881,-5.7881,-5.7881,-5.7881,-5.7881,-5.7881,-5.7881,-5.7881,-5.6448,-5.4589,-5.4589,-5.3077,-5.1214,-5.1214,-5.1214,-5.1214,-5.1214,-5.1214,-5.1214,-5.1214,-5.1214,-5.1214,-5.1214,-5.1214,-5.1214,-5.1214,-5.1214,-5.1214,-5.1214,-5.1214,-5.1214,-5.1214,-5.1214,-5.1214,-5.1214,-5.1214,-5.1214,-5.1214,-5.1214,-5.1214,-5.1214,-5.1214,-5.102,-5.051,-5.0898,-5.1005,-5.0495,-5.0465,-5.0465,-5.0465,-5.0062,-4.9808,-4.9808,-5.0272,-5.0465,-5.0465,-5.0943,-5.1214,-5.1167,-5.0807,-5.065,-3.9331,-3.9946,-4.0542,-4.138,-4.2713,-4.4045,-4.4841,-4.5743,-4.6395,-4.643,-4.7092,-4.8111,-4.9537,-5.1484,-5.3751,-5.6495,-5.8015,-5.9112,-5.9902,-6.0017,-5.9994,-5.9875,-6.0569,-6.1207,-6.1538,-6.2291,-6.2762,-6.278,-6.278,-6.2446,-6.1687,-6.0849,-6.0023,-5.9178,-5.8317,-5.7881,-5.7881,-5.7881,-5.7881,-5.7881,-5.7881,-5.7881,-5.7881,-5.7881,-5.7881,-5.7881,-5.7881,-5.7881,-5.7881,-5.7881,-5.7881,-5.7881,-5.7881,-5.7881,-5.7881,-5.7881,-5.7881,-5.7881,-5.7881,-5.6448,-5.4589,-5.4589,-5.3077,-5.1214,-5.1214,-5.1214,-5.1214,-5.1214,-5.1214,-5.1214,-5.1214,-5.1214,-5.1214,-5.1214,-5.1214,-5.1214,-5.1214,-5.1214,-5.1214,-5.1214,-5.1214,-5.1214,-5.1214,-5.1214,-5.1214,-5.1214,-5.1214,-5.1214,-5.1214,-5.1214,-5.1214,-5.1214,-5.1214,-5.1214,-5.1184,-5.1214,-5.1214,-5.1184,-5.1184,-5.1184,-5.1184,-5.1169,-5.1154,-5.1154,-5.1184,-5.1184,-5.1184,-5.1214,-5.1214,-5.1167,-4.9873,-4.9259,-3.9581,-4.0502,-4.1464,-4.1567,-4.3116,-4.4656,-4.4947,-4.4959,-4.4947,-4.4947,-4.439,-4.4522,-4.6514,-4.8684,-5.1349,-5.495,-5.7161,-5.8827,-5.994,-6.0298,-6.0315,-5.9948,-6.0804,-6.1461,-6.1581,-6.2328,-6.278,-6.278,-6.278,-6.2446,-6.1659,-6.0838,-5.9991,-5.9144,-5.8317,-5.7881,-5.7881,-5.7881,-5.7881,-5.7881,-5.7881,-5.7881,-5.7881,-5.7881,-5.7881,-5.7881,-5.7881,-5.7881,-5.7881,-5.7881,-5.7881,-5.7881,-5.7881,-5.7881,-5.7881,-5.7881,-5.7881,-5.7881,-5.7881,-5.6925,-5.5554,-5.4822,-5.3569,-5.2184,-5.1433,-5.1214,-5.1214,-5.1214,-5.1214,-5.1214,-5.1214,-5.1214,-5.1214,-5.1214,-5.1214,-5.1214,-5.1214,-5.1214,-5.1214,-5.1214,-5.1214,-5.1214,-5.1214,-5.1214,-5.1214,-5.1214,-5.1214,-5.1214,-5.1214,-5.1214,-5.1214,-5.1214,-5.1214,-5.1214,-5.1214,-5.1214,-5.1214,-5.1214,-5.1214,-5.1214,-5.1214,-5.1214,-5.1214,-5.1214,-5.1214,-5.1214,-5.1214,-5.1214,-5.1214,-5.1167,-4.9824,-4.9679,-3.9985,-4.0997,-4.1924,-4.1613,-4.2886,-4.4192,-4.3952,-4.3683,-4.3466,-4.344,-4.2655,-4.2681,-4.4978,-4.7415,-5.0249,-5.395,-5.6729,-5.8957,-6.0374,-6.0735,-6.0896,-6.1031,-6.1533,-6.189,-6.2022,-6.2511,-6.278,-6.278,-6.278,-6.2324,-6.1247,-6.067,-5.9864,-5.872,-5.8173,-5.7881,-5.7881,-5.7881,-5.7881,-5.7881,-5.7881,-5.7881,-5.7881,-5.7881,-5.7881,-5.7881,-5.7881,-5.7881,-5.7881,-5.7881,-5.7881,-5.7881,-5.7881,-5.7881,-5.7881,-5.7881,-5.7881,-5.7881,-5.7881,-5.7168,-5.6031,-5.4945,-5.3828,-5.2694,-5.1557,-5.1214,-5.1214,-5.1214,-5.1214,-5.1214,-5.1214,-5.1214,-5.1214,-5.1214,-5.1214,-5.1214,-5.1214,-5.1214,-5.1214,-5.1214,-5.1214,-5.1214,-5.1214,-5.1214,-5.1214,-5.1214,-5.1214,-5.1214,-5.1214,-5.1214,-5.1214,-5.1214,-5.1214,-5.1214,-5.1214,-5.1214,-5.1214,-5.1214,-5.1214,-5.1214,-5.1214,-5.1214,-5.1214,-5.1214,-5.1214,-5.1214,-5.1214,-5.1214,-5.1214,-5.1167,-4.9308,-4.8901,-4.0556,-4.1406,-4.194,-4.1523,-4.2185,-4.278,-4.2065,-4.2049,-4.2136,-4.1949,-4.1933,-4.2619,-4.4812,-4.7544,-5.0462,-5.3494,-5.6783,-5.9507,-6.1167,-6.1408,-6.1831,-6.2954,-6.2637,-6.2446,-6.2781,-6.278,-6.278,-6.278,-6.2755,-6.2068,-6.0476,-6.0353,-5.9591,-5.7954,-5.7881,-5.7881,-5.7881,-5.7881,-5.7881,-5.7881,-5.7881,-5.7881,-5.7881,-5.7881,-5.7881,-5.7881,-5.7881,-5.7881,-5.7881,-5.7881,-5.7881,-5.7881,-5.7881,-5.7881,-5.7881,-5.7881,-5.7881,-5.7881,-5.7845,-5.7114,-5.6031,-5.4945,-5.3828,-5.2694,-5.1557,-5.1214,-5.1214,-5.1214,-5.1214,-5.1214,-5.1214,-5.1214,-5.1214,-5.1214,-5.1214,-5.1214,-5.1214,-5.1214,-5.1214,-5.1214,-5.1214,-5.1214,-5.1214,-5.1214,-5.1214,-5.1214,-5.1214,-5.1214,-5.1214,-5.1214,-5.1214,-5.1214,-5.1214,-5.1214,-5.1214,-5.1214,-5.1214,-5.1214,-5.1214,-5.1214,-5.1214,-5.1214,-5.1214,-5.1214,-5.1214,-5.1214,-5.1214,-5.112,-5.112,-5.1011,-4.8275,-4.7043,-4.0802,-4.1678,-4.2407,-4.1597,-4.2575,-4.3401,-4.2184,-4.1968,-4.1869,-4.1166,-4.1046,-4.1411,-4.2635,-4.6204,-4.9761,-5.2155,-5.6369,-5.9836,-6.1213,-6.2127,-6.2762,-6.3068,-6.2839,-6.272,-6.2787,-6.278,-6.278,-6.278,-6.2227,-6.1464,-6.0445,-5.98,-5.8977,-5.7918,-5.7881,-5.7881,-5.7881,-5.7881,-5.7881,-5.7881,-5.7881,-5.7881,-5.7881,-5.7881,-5.7881,-5.7881,-5.7881,-5.7881,-5.7881,-5.7881,-5.7881,-5.7881,-5.7881,-5.7881,-5.7881,-5.7881,-5.7881,-5.7755,-5.6908,-5.6454,-5.6031,-5.4945,-5.3828,-5.2694,-5.1557,-5.1214,-5.1214,-5.1214,-5.1214,-5.1214,-5.1214,-5.1214,-5.1214,-5.1214,-5.1214,-5.1214,-5.1214,-5.1214,-5.1214,-5.1214,-5.1214,-5.1214,-5.1214,-5.1214,-5.1214,-5.1214,-5.1214,-5.1214,-5.1214,-5.1214,-5.1214,-5.1214,-5.1214,-5.1214,-5.1214,-5.1214,-5.1214,-5.1214,-5.1214,-5.1214,-5.1214,-5.1214,-5.1214,-5.1214,-5.1214,-5.1214,-5.1214,-5.0191,-4.9727,-4.9616,-4.6837,-4.6122,-4.1886,-4.2336,-4.2667,-4.2165,-4.2779,-4.3156,-4.1783,-4.1494,-4.1244,-4.0317,-4.0432,-4.0979,-4.1836,-4.5454,-4.9013,-5.1322,-5.5591,-5.9321,-6.1351,-6.2276,-6.299,-6.3597,-6.3156,-6.278,-6.278,-6.278,-6.2661,-6.2298,-6.187,-6.1247,-6.0445,-5.9556,-5.872,-5.7918,-5.7881,-5.7881,-5.7881,-5.7881,-5.7881,-5.7881,-5.7881,-5.7881,-5.7881,-5.7881,-5.7881,-5.7881,-5.7881,-5.7881,-5.7881,-5.7881,-5.7881,-5.7881,-5.7881,-5.7881,-5.7881,-5.7881,-5.7881,-5.7755,-5.6586,-5.5873,-5.5312,-5.4195,-5.3412,-5.2694,-5.1557,-5.1214,-5.1214,-5.1214,-5.1214,-5.1214,-5.1214,-5.1214,-5.1214,-5.1214,-5.1214,-5.1214,-5.1214,-5.1214,-5.1214,-5.1214,-5.1214,-5.1214,-5.1214,-5.1214,-5.1214,-5.1214,-5.1214,-5.1214,-5.1214,-5.1214,-5.1214,-5.1214,-5.1214,-5.1214,-5.1214,-5.1214,-5.1214,-5.1214,-5.1214,-5.1214,-5.1214,-5.1214,-5.1214,-5.1214,-5.1214,-5.1214,-5.1214,-4.9824,-4.921,-4.9112,-4.6331,-4.5409,-4.3158,-4.3189,-4.3019,-4.2929,-4.3041,-4.2799,-4.1246,-4.1085,-4.0911,-3.9778,-4.0378,-4.128,-4.2029,-4.5334,-4.8654,-5.0941,-5.4887,-5.865,-6.1431,-6.2116,-6.2813,-6.4142,-6.3408,-6.278,-6.278,-6.278,-6.2471,-6.1659,-6.1502,-6.1084,-6.0273,-5.941,-5.8633,-5.7918,-5.7881,-5.7881,-5.7881,-5.7881,-5.7881,-5.7881,-5.7881,-5.7881,-5.7881,-5.7881,-5.7881,-5.7881,-5.7881,-5.7881,-5.7881,-5.7881,-5.7881,-5.7881,-5.7881,-5.7881,-5.7881,-5.7881,-5.7808,-5.75,-5.6376,-5.5272,-5.4211,-5.3193,-5.2827,-5.2485,-5.1511,-5.1214,-5.1214,-5.1214,-5.1214,-5.1214,-5.1214,-5.1214,-5.1214,-5.1214,-5.1214,-5.1214,-5.1214,-5.1214,-5.1214,-5.1214,-5.1214,-5.1214,-5.1214,-5.1214,-5.1214,-5.1214,-5.1214,-5.1214,-5.1214,-5.1214,-5.1214,-5.1214,-5.1214,-5.1214,-5.1214,-5.1214,-5.1214,-5.1214,-5.1214,-5.1214,-5.1214,-5.1214,-5.1214,-5.1214,-5.1214,-5.112,-5.0917,-4.9567,-4.8851,-4.8589,-4.5964,-4.4738,-4.3265,-4.3823,-4.4126,-4.3152,-4.3854,-4.4129,-4.1504,-4.1938,-4.2422,-4.0811,-4.1739,-4.2878,-4.3047,-4.6687,-5.0032,-5.1124,-5.5389,-5.9222,-6.1058,-6.1927,-6.2724,-6.363,-6.3191,-6.278,-6.278,-6.278,-6.2471,-6.1659,-6.0967,-6.0242,-5.9377,-5.8529,-5.8046,-5.7881,-5.7881,-5.7881,-5.7881,-5.7881,-5.7881,-5.7881,-5.7881,-5.7881,-5.7881,-5.7881,-5.7881,-5.7881,-5.7881,-5.7881,-5.7881,-5.7881,-5.7881,-5.7881,-5.7881,-5.7881,-5.7881,-5.7881,-5.7297,-5.6321,-5.5231,-5.4168,-5.3149,-5.2945,-5.2275,-5.1479,-5.1261,-5.1214,-5.1214,-5.1214,-5.1214,-5.1214,-5.1214,-5.1214,-5.1214,-5.1214,-5.1214,-5.1214,-5.1214,-5.1214,-5.1214,-5.1214,-5.1214,-5.1214,-5.1214,-5.1214,-5.1214,-5.1214,-5.1214,-5.1214,-5.1214,-5.1214,-5.1214,-5.1214,-5.1214,-5.1214,-5.1214,-5.1214,-5.1214,-5.1214,-5.1214,-5.1214,-5.1214,-5.1214,-5.1214,-5.1214,-5.1214,-5.065,-4.9518,-4.8125,-4.6888,-4.5714,-4.4058,-4.3338,-4.4341,-4.4576,-4.4729,-4.4218,-4.4413,-4.4276,-4.2525,-4.2741,-4.2939,-4.1642,-4.2379,-4.3393,-4.3706,-4.6914,-4.9848,-5.0958,-5.4875,-5.8424,-6.0296,-6.1381,-6.2405,-6.3475,-6.3139,-6.278,-6.278,-6.242,-6.1842,-6.1044,-6.0194,-5.9541,-5.9111,-5.8352,-5.7881,-5.7881,-5.7881,-5.7881,-5.7881,-5.7881,-5.7881,-5.7881,-5.7881,-5.7881,-5.7881,-5.7881,-5.7881,-5.7881,-5.7881,-5.7881,-5.7881,-5.7881,-5.7881,-5.7881,-5.7881,-5.7881,-5.7881,-5.7881,-5.7168,-5.6047,-5.4986,-5.3871,-5.2827,-5.2184,-5.1635,-5.1214,-5.1214,-5.1214,-5.1214,-5.1214,-5.1214,-5.1214,-5.1214,-5.1214,-5.1214,-5.1214,-5.1214,-5.1214,-5.1214,-5.1214,-5.1214,-5.1214,-5.1214,-5.1214,-5.1214,-5.1214,-5.1214,-5.1214,-5.1214,-5.1214,-5.1214,-5.1214,-5.1214,-5.1214,-5.1214,-5.1214,-5.1214,-5.1214,-5.1214,-5.1214,-5.1214,-5.1214,-5.1214,-5.1214,-5.1214,-5.1214,-5.1214,-5.054,-4.921,-4.7771,-4.6383,-4.4994,-4.3602,-4.2974,-4.5406,-4.5276,-4.5252,-4.5217,-4.4876,-4.4344,-4.3485,-4.3426,-4.3336,-4.2458,-4.297,-4.3777,-4.4376,-4.689,-4.9352,-5.0754,-5.4123,-5.7313,-5.9531,-6.0693,-6.1861,-6.3251,-6.3062,-6.273,-6.2567,-6.1969,-6.1171,-6.0211,-5.9328,-5.884,-5.884,-5.8227,-5.7881,-5.7881,-5.7881,-5.7881,-5.7881,-5.7881,-5.7881,-5.7881,-5.7881,-5.7881,-5.7881,-5.7881,-5.7881,-5.7881,-5.7881,-5.7881,-5.7881,-5.7881,-5.7881,-5.7881,-5.7881,-5.7881,-5.7881,-5.7628,-5.6832,-5.5714,-5.4614,-5.3498,-5.2395,-5.1464,-5.1214,-5.1214,-5.1214,-5.1214,-5.1214,-5.1214,-5.1214,-5.1214,-5.1214,-5.1214,-5.1214,-5.1214,-5.1214,-5.1214,-5.1214,-5.1214,-5.1214,-5.1214,-5.1214,-5.1214,-5.1214,-5.1214,-5.1214,-5.1214,-5.1214,-5.1214,-5.1214,-5.1214,-5.1214,-5.1214,-5.1214,-5.1214,-5.1214,-5.1214,-5.1214,-5.1214,-5.1214,-5.1214,-5.1214,-5.1214,-5.1214,-5.1214,-5.0917,-5.008,-4.8738,-4.735,-4.5912,-4.4522,-4.3492,-4.2974,-4.5757,-4.5909,-4.5935,-4.5359,-4.5285,-4.5014,-4.363,-4.3902,-4.4224,-4.3366,-4.3873,-4.4659,-4.5259,-4.7302,-4.9352,-5.0754,-5.3648,-5.6532,-5.8947,-5.9984,-6.1104,-6.2696,-6.283,-6.2515,-6.177,-6.1659,-6.095,-5.9344,-5.8476,-5.801,-5.801,-5.7954,-5.7881,-5.7881,-5.7881,-5.7881,-5.7881,-5.7881,-5.7881,-5.7881,-5.7881,-5.7881,-5.7881,-5.7881,-5.7881,-5.7881,-5.7881,-5.7881,-5.7881,-5.7881,-5.7881,-5.7881,-5.7881,-5.7881,-5.7755,-5.6739,-5.5674,-5.4573,-5.3455,-5.232,-5.1339,-5.1214,-5.1214,-5.1214,-5.1214,-5.1214,-5.1214,-5.1214,-5.1214,-5.1214,-5.1214,-5.1214,-5.1214,-5.1214,-5.1214,-5.1214,-5.1214,-5.1214,-5.1214,-5.1214,-5.1214,-5.1214,-5.1214,-5.1214,-5.1214,-5.1214,-5.1214,-5.1214,-5.1214,-5.1214,-5.1214,-5.1214,-5.1214,-5.1214,-5.1214,-5.1214,-5.1214,-5.1214,-5.1214,-5.1214,-5.1214,-5.1214,-5.1214,-5.1214,-4.9984,-4.8688,-4.7299,-4.5872,-4.4481,-4.3184,-4.3085,-4.2974,-4.6862,-4.6634,-4.6265,-4.5976,-4.5447,-4.4807,-4.4207,-4.4355,-4.4514,-4.415,-4.4355,-4.506,-4.6562,-4.7961,-4.9352,-5.0708,-5.3553,-5.5957,-5.7013,-5.903,-6.0823,-6.1942,-6.2084,-6.1951,-6.1632,-6.0695,-5.9621,-5.8476,-5.8065,-5.7881,-5.7881,-5.7881,-5.7881,-5.7881,-5.7881,-5.7881,-5.7881,-5.7881,-5.7881,-5.7881,-5.7881,-5.7881,-5.7881,-5.7881,-5.7881,-5.7881,-5.7881,-5.7881,-5.7881,-5.7881,-5.7881,-5.7881,-5.7881,-5.7881,-5.7755,-5.6624,-5.5514,-5.4421,-5.3281,-5.2139,-5.1214,-5.1214,-5.1214,-5.1214,-5.1214,-5.1214,-5.1214,-5.1214,-5.1214,-5.1214,-5.1214,-5.1214,-5.1214,-5.1214,-5.1214,-5.1214,-5.1214,-5.1214,-5.1214,-5.1214,-5.1214,-5.1214,-5.1214,-5.1214,-5.1214,-5.1214,-5.1214,-5.1214,-5.1214,-5.1214,-5.1214,-5.1214,-5.1214,-5.1214,-5.1214,-5.1214,-5.1214,-5.1214,-5.1214,-5.1214,-5.1214,-5.1214,-5.0807,-5.0032,-4.947,-4.8074,-4.582,-4.5249,-4.4318,-4.2974,-4.2974,-4.2974,-4.7546,-4.7211,-4.6687,-4.6687,-4.5908,-4.5142,-4.5142,-4.4998,-4.4869,-4.4869,-4.4907,-4.5484,-4.735,-4.854,-4.9595,-5.0739,-5.3354,-5.5403,-5.5738,-5.8255,-6.0463,-6.1478,-6.1586,-6.1502,-6.1275,-5.9751,-5.8494,-5.7954,-5.7881,-5.7881,-5.7881,-5.7881,-5.7881,-5.7881,-5.7881,-5.7881,-5.7881,-5.7881,-5.7881,-5.7881,-5.7881,-5.7881,-5.7881,-5.7881,-5.7881,-5.7881,-5.7881,-5.7881,-5.7881,-5.7881,-5.7881,-5.7881,-5.7881,-5.7881,-5.7755,-5.6624,-5.5514,-5.4505,-5.3656,-5.244,-5.1261,-5.1588,-5.1464,-5.1214,-5.1214,-5.1214,-5.1214,-5.1214,-5.1214,-5.1214,-5.1214,-5.1214,-5.1214,-5.1214,-5.1214,-5.1214,-5.1214,-5.1214,-5.1214,-5.1214,-5.1214,-5.1214,-5.1214,-5.1214,-5.1214,-5.1214,-5.1214,-5.1214,-5.1214,-5.1214,-5.1214,-5.1214,-5.1214,-5.1214,-5.1214,-5.1214,-5.1214,-5.1214,-5.1214,-5.1214,-5.1214,-5.0807,-5.0143,-4.921,-4.8389,-4.6991,-4.4994,-4.4576,-4.3907,-4.2974,-4.2974,-4.2974,-4.745,-4.7553,-4.7385,-4.7385,-4.6887,-4.6383,-4.6383,-4.5915,-4.5485,-4.5485,-4.5597,-4.6116,-4.7456,-4.8958,-5.0204,-5.08,-5.2913,-5.4819,-5.5688,-5.7838,-5.9883,-6.141,-6.1586,-6.1304,-6.0506,-5.8909,-5.7918,-5.7881,-5.7881,-5.7881,-5.7881,-5.7881,-5.7881,-5.7881,-5.7881,-5.7881,-5.7881,-5.7881,-5.7881,-5.7881,-5.7881,-5.7881,-5.7881,-5.7881,-5.7881,-5.7881,-5.7881,-5.7881,-5.7881,-5.7881,-5.7881,-5.7881,-5.7881,-5.7881,-5.7755,-5.6624,-5.5514,-5.4589,-5.4589,-5.3121,-5.1386,-5.253,-5.2109,-5.1214,-5.1214,-5.1214,-5.1214,-5.1214,-5.1214,-5.1214,-5.1214,-5.1214,-5.1214,-5.1214,-5.1214,-5.1214,-5.1214,-5.1214,-5.1214,-5.1214,-5.1214,-5.1214,-5.1214,-5.1214,-5.1214,-5.1214,-5.1214,-5.1214,-5.1214,-5.1214,-5.1214,-5.1214,-5.1214,-5.1214,-5.1214,-5.1214,-5.1214,-5.1214,-5.1214,-5.1214,-5.1214,-4.9936,-4.921,-4.921,-4.6487,-4.5048,-4.4994,-4.3645,-4.303,-4.2974,-4.2974,-4.2974,-4.8302,-4.7976,-4.7406,-4.7406,-4.691,-4.6407,-4.6407,-4.594,-4.565,-4.6152,-4.5956,-4.6272,-4.8178,-4.9336,-5.0409,-5.1635,-5.3779,-5.5201,-5.5008,-5.7442,-5.9437,-5.9963,-6.0467,-6.0242,-5.8841,-5.8209,-5.7881,-5.7881,-5.7881,-5.7881,-5.7881,-5.7881,-5.7881,-5.7881,-5.7881,-5.7881,-5.7881,-5.7881,-5.7881,-5.7881,-5.7881,-5.7881,-5.7881,-5.7881,-5.7881,-5.7881,-5.7881,-5.7881,-5.7881,-5.7881,-5.7881,-5.7881,-5.7881,-5.7881,-5.7755,-5.6624,-5.5991,-5.5474,-5.394,-5.2945,-5.2275,-5.1896,-5.1511,-5.1214,-5.1214,-5.1214,-5.1214,-5.1214,-5.1214,-5.1214,-5.1214,-5.1214,-5.1214,-5.1214,-5.1214,-5.1214,-5.1214,-5.1214,-5.1214,-5.1214,-5.1214,-5.1214,-5.1214,-5.1214,-5.1214,-5.1214,-5.1214,-5.1214,-5.1214,-5.1214,-5.1214,-5.1214,-5.1214,-5.1214,-5.1214,-5.1214,-5.1214,-5.1214,-5.1214,-5.1214,-5.1214,-4.9921,-4.8738,-4.7771,-4.5912,-4.4522,-4.3657,-4.3184,-4.2974,-4.2974,-4.2974,-4.2974,-4.8473,-4.8042,-4.7449,-4.7677,-4.7428,-4.7132,-4.7132,-4.6702,-4.6409,-4.688,-4.6749,-4.702,-4.8605,-4.9482,-5.0497,-5.2059,-5.3681,-5.4857,-5.5034,-5.7226,-5.8898,-5.9182,-5.9642,-5.9394,-5.801,-5.7881,-5.7881,-5.7881,-5.7881,-5.7881,-5.7881,-5.7881,-5.7881,-5.7881,-5.7881,-5.7881,-5.7881,-5.7881,-5.7881,-5.7881,-5.7881,-5.7665,-5.7281,-5.7718,-5.7426,-5.6679,-5.7554,-5.7665,0.0,-5.7718,-5.7881,-5.7881,-5.7881,-5.7881,-5.7792,-5.7093,-5.6569,-5.5991,-5.4624,-5.3597,-5.2783,-5.2063,-5.1557,-5.1214,-5.1214,-5.1214,-5.1214,-5.1214,-5.1214,-5.1214,-5.1214,-5.1214,-5.1214,-5.1214,-5.1214,-5.1214,-5.1214,-5.1214,-5.1214,-5.1214,-5.1214,-5.1214,-5.1214,-5.1214,-5.1214,-5.1214,-5.1214,-5.1214,-5.1214,-5.1214,-5.1214,-5.1214,-5.1214,-5.1214,-5.1214,-5.1214,-5.1214,-5.1214,-5.1214,-5.0964,-5.0445,-4.9112,-4.7771,-4.6331,-4.4941,-4.381,-4.2974,-4.2974,-4.2974,-4.303,-4.3492,-4.3755,0.0,-4.7797,-4.753,-4.8094,-4.8267,-4.8306,-4.8306,-4.7897,0.0,-4.7656,-4.7748,-4.8044,-4.8832,-4.9526,-5.0519,-5.2129,-5.2953,-5.3949,-5.5515,-5.7087,-5.833,-5.8938,-5.9111,-5.884,-5.7974,-5.7881,-5.7881,-5.7881,-5.7881,-5.7881,-5.7881,-5.7881,-5.7881,-5.7881,-5.7881,-5.7881,-5.7881,-5.7881,-5.7881,-5.7881,-5.7808,-5.7206,-5.6243,-5.7222,-5.6564,-5.4713,-5.6849,-5.7168,-5.6282,-5.7426,-5.7881,-5.7881,-5.7881,-5.7881,-5.7881,-5.7881,-5.7206,-5.6282,-5.6165,-5.4764,-5.2989,-5.2827,-5.2063,-5.1214,-5.1214,-5.1214,-5.1214,-5.1214,-5.1214,-5.1214,-5.1214,-5.1214,-5.1214,-5.1214,-5.1214,-5.1214,-5.1214,-5.1214,-5.1214,-5.1214,-5.1214,-5.1214,-5.1214,-5.1214,-5.1214,-5.1214,-5.1214,-5.1214,-5.1214,-5.1214,-5.1214,-5.1214,-5.1214,-5.1214,-5.1214,-5.1214,-5.1214,-5.1214,-5.1214,-5.0603,-4.9259,-4.7873,-4.6435,-4.5048,-4.37,-4.2974,-4.2974,-4.2974,-4.303,-4.3184,-4.4427,-4.4994,-4.6687,0.0,-4.7428,-4.7572,-4.7957,-4.8306,0.0,-4.7468,-4.7002,-4.8204,-4.7706,-4.7623,-4.9467,-4.9939,-5.0731,-5.2881,-5.3328,-5.3745,-5.4735,-5.6776,-5.8193,-5.8182,-5.9295,-5.9526,-5.8046,-5.7881,-5.7881,-5.7881,-5.7881,-5.7881,-5.7881,-5.7881,-5.7881,-5.7881,-5.7881,-5.7881,-5.7881,-5.7881,-5.7881,-5.7881,-5.7001,-5.6454,-5.6204,-5.5651,-5.5068,-5.4656,-5.6008,-5.6454,-5.6282,-5.7426,-5.7881,-5.7881,-5.7881,-5.7881,-5.7881,-5.7881,-5.7718,-5.726,-5.5571,-5.4614,-5.3913,-5.2154,-5.1433,-5.1214,-5.1214,-5.1214,-5.1214,-5.1214,-5.1214,-5.1214,-5.1214,-5.1214,-5.1214,-5.1214,-5.1214,-5.1214,-5.1214,-5.1214,-5.1214,-5.1214,-5.1214,-5.1214,-5.1214,-5.1214,-5.1214,-5.1214,-5.1214,-5.1214,-5.1214,-5.1214,-5.1214,-5.1214,-5.1214,-5.1214,-5.1214,-5.1214,-5.1214,-5.1214,-5.1214,-5.0603,-4.9259,-4.7873,-4.6435,-4.5048,-4.37,-4.2974,-4.2974,-4.2974,-4.3547,-4.4522,-4.4833,-4.4994,-4.5545,-4.6522,-4.7617,-4.7883,-4.8441,-4.8893,-4.8893,-4.7883,-4.7267,-4.8445,-4.7966,-4.7767,-4.9306,-4.9831,-5.0695,-5.2654,-5.3259,-5.3941,-5.54,-5.6732,-5.7657,-5.7859,-5.8703,-5.8909,-5.7991,-5.7881,-5.7881,-5.7881,-5.7881,-5.7881,-5.7881,-5.7881,-5.7881,-5.7881,-5.7881,-5.7881,-5.7881,-5.7372,-5.7131,-5.7131,-5.6008,-5.5174,-5.4723,-5.515,-5.478,-5.3956,-5.6047,-5.6663,-5.6282,-5.7426,-5.7881,-5.7881,-5.7881,-5.7881,-5.7881,-5.7881,-5.7554,-5.6887,-5.5207,-5.3913,-5.2827,-5.1588,-5.1214,-5.1214,-5.1214,-5.1214,-5.1214,-5.1214,-5.1214,-5.1214,-5.1214,-5.1214,-5.1214,-5.1214,-5.1214,-5.1214,-5.1214,-5.1214,-5.1214,-5.1214,-5.1214,-5.1214,-5.1214,-5.1214,-5.1214,-5.1214,-5.1214,-5.1214,-5.1214,-5.1214,-5.1214,-5.1214,-5.1214,-5.1214,-5.1214,-5.1214,-5.1214,-5.1214,-5.1214,-5.0287,-4.8339,-4.7517,-4.6174,-4.4113,-4.3962,-4.3602,-4.2974,-4.3602,-4.3962,-4.4113,-4.5409,-4.5964,-4.4884,-4.6221,-4.7818,-4.8212,-4.8876,-4.9498,-4.958,0.0,-4.7851,-4.8728,-4.8353,-4.8176,-4.9171,-4.9746,-5.0623,-5.2304,-5.319,-5.4367,-5.6372,-5.6833,-5.7222,-5.7821,-5.801,-5.8046,-5.7918,-5.7881,-5.7881,-5.7881,-5.7881,-5.7881,-5.7881,-5.7881,-5.7881,-5.7881,-5.778,-5.764,-5.7513,-5.6651,-5.6126,-5.5952,-5.4863,-5.3913,-5.3193,-5.4929,-5.4764,-5.3324,-5.6354,-5.7076,-5.6282,-5.7426,-5.7881,-5.7881,-5.7881,-5.7881,-5.7881,-5.7881,-5.7168,-5.6031,-5.478,-5.2945,-5.1214,-5.1214,-5.1214,-5.1214,-5.1214,-5.1214,-5.1214,-5.1214,-5.1214,-5.1214,-5.1214,-5.1214,-5.1214,-5.1214,-5.1214,-5.1214,-5.1214,-5.1214,-5.1214,-5.1214,-5.1214,-5.1214,-5.1214,-5.1214,-5.1214,-5.1214,-5.1214,-5.1214,-5.1214,-5.1214,-5.1214,-5.1214,-5.1214,-5.1214,-5.1214,-5.1214,-5.1214,-5.1214,-5.1011,-4.9664,-4.6888,-4.6785,-4.5661,-4.3338,-4.463,-4.4738,-4.3657,-4.4792,-4.4833,-4.4016,-4.6331,-4.7402,-4.5393,-4.6625,-4.763,-4.7047,-4.7872,-4.8996,-4.9546,-4.8664,-4.8067,-4.9439,-4.8761,-4.8497,-5.0507,-5.0439,-5.0824,-5.2989,-5.3939,-5.4771,-5.5739,-5.6985,-5.7842,-5.7872,-5.8494,-5.8651,-5.7954,-5.7881,-5.7881,-5.7881,-5.7881,-5.7881,-5.7881,-5.7881,-5.7881,-5.7881,-5.7289,-5.6556,-5.5708,-5.604,-5.5754,-5.4822,-5.3699,-5.3569,-5.4337,-5.3699,-5.3742,-5.4421,-5.5833,-5.636,-5.6282,-5.7426,-5.7881,-5.7881,-5.7881,-5.7881,-5.7881,-5.7881,-5.7168,-5.5913,-5.3855,-5.232,-5.1214,-5.1214,-5.1214,-5.1214,-5.1214,-5.1214,-5.1214,-5.1214,-5.1214,-5.1214,-5.1214,-5.1214,-5.1214,-5.1214,-5.1214,-5.1214,-5.1214,-5.1214,-5.1214,-5.1214,-5.1214,-5.1214,-5.1214,-5.1214,-5.1214,-5.1214,-5.1214,-5.1214,-5.1214,-5.1214,-5.1214,-5.1214,-5.1214,-5.1214,-5.1214,-5.1214,-5.1214,-5.1214,-5.0128,-4.8225,-4.5462,-4.5302,-4.5088,-4.4684,-4.6069,-4.6695,-4.6487,-4.6695,-4.7299,-4.8275,-4.8688,-4.8901,-4.4993,-4.6175,-4.7267,-4.7307,-4.8344,-4.9429,-4.9726,-4.8713,-4.8016,-4.9071,-4.8564,-4.843,-5.027,-5.0659,-5.1319,-5.3196,-5.411,-5.4854,-5.5615,-5.6643,-5.7344,-5.7328,-5.7631,-5.7583,-5.6784,-5.6714,-5.6714,-5.6714,-5.6714,-5.6714,-5.6714,-5.6714,-5.6714,-5.6714,-5.5805,-5.4854,-5.3825,-5.3504,-5.3283,-5.3148,-5.1992,-5.1923,-5.2783,-5.3498,-5.4126,-5.4697,-5.6393,-5.7131,-5.7168,-5.7665,-5.7881,-5.7881,-5.7881,-5.7881,-5.7772,-5.6564,-5.577,-5.5011,-5.2767,-5.1635,-5.1214,-5.1214,-5.1214,-5.1214,-5.1214,-5.1214,-5.1214,-5.1214,-5.1214,-5.1214,-5.1214,-5.1214,-5.1214,-5.1214,-5.1214,-5.1214,-5.1214,-5.1214,-5.1214,-5.1214,-5.1214,-5.1214,-5.1214,-5.1214,-5.1214,-5.1214,-5.1214,-5.1214,-5.1214,-5.1214,-5.1214,-5.1214,-5.1214,-5.1214,-5.1214,-5.1214,-5.1214,-5.1214,-4.9936,-4.8275,-4.6226,-4.6122,-4.5767,-4.4994,-4.7146,-4.7873,-4.7094,-4.7873,-4.8175,-4.8074,-4.8074,-4.8489,-4.4818,-4.5669,-4.6718,-4.7462,-4.8635,-4.9819,-5.0548,-4.9423,-4.855,-4.9646,-4.91,-4.8883,-5.0338,-5.1234,-5.2147,-5.3315,-5.411,-5.4803,-5.5378,-5.6089,-5.6545,-5.6545,-5.6545,-5.6325,-5.5732,-5.5681,-5.5681,-5.5681,-5.5681,-5.5681,-5.5681,-5.5681,-5.5594,-5.5347,-5.4356,-5.3215,-5.19,-5.0923,-5.0723,-5.1285,-5.0532,-5.0742,-5.1835,-5.3706,-5.4879,-5.545,-5.7185,-5.7881,-5.7881,-5.7881,-5.7881,-5.7881,-5.7881,-5.7881,-5.7591,-5.5125,-5.4379,-5.4295,-5.1972,-5.1214,-5.1214,-5.1214,-5.1214,-5.1214,-5.1214,-5.1214,-5.1214,-5.1214,-5.1214,-5.1214,-5.1214,-5.1214,-5.1214,-5.1214,-5.1214,-5.1214,-5.1214,-5.1214,-5.1214,-5.1214,-5.1214,-5.1214,-5.1214,-5.1214,-5.1214,-5.1214,-5.1214,-5.1214,-5.1214,-5.1214,-5.1214,-5.1214,-5.1214,-5.1214,-5.1214,-5.1214,-5.1214,-5.1214,-4.9936,-4.8589,-4.7146,-4.7402,-4.7094,-4.6017,-4.8389,-4.9161,-4.8074,-4.9161,-4.9112,-4.8074,-4.8074,-4.8489,-4.5432,-4.5703,-4.5957,-4.6684,-4.7877,-4.9622,-5.2499,-5.1444,-5.0441,-5.2621,-5.1388,-5.0388,-5.1877,-5.2807,-5.3382,-5.3484,-5.411,-5.4617,-5.4668,-5.531,-5.5801,-5.5801,-5.5801,-5.5784,-5.5733,-5.5681,-5.5681,-5.5681,-5.5681,-5.5681,-5.5681,-5.5681,-5.5223,-5.4229,-5.3478,-5.2106,-5.0128,-4.9316,-4.9132,-4.9509,-4.9988,-5.134,-5.3464,-5.4243,-5.573,-5.7681,-5.7845,-5.7881,-5.7881,-5.7881,-5.7881,-5.7881,-5.7881,-5.7881,-5.75,-5.4237,-5.3699,-5.4295,-5.1972,-5.1214,-5.1214,-5.1214,-5.1214,-5.1214,-5.1214,-5.1214,-5.1214,-5.1214,-5.1214,-5.1214,-5.1214,-5.1214,-5.1214,-5.1214,-5.1214,-5.1214,-5.1214,-5.1214,-5.1214,-5.1214,-5.1214,-5.1214,-5.1214,-5.1214,-5.1214,-5.1214,-5.1214,-5.1214,-5.1214,-5.1214,-5.1214,-5.1214,-5.1214,-5.1214,-5.1214,-5.1214,-5.1214,-5.1214,-4.9936,-4.8589,-4.7146,-4.8339,-4.8999,-4.8901,-5.0335,-5.1011,-5.0917,-5.1011,-5.1011,-5.0902,-5.0902,-5.0287,-4.4925,-4.5686,-4.6566,-4.731,-4.8157,-4.9124,-5.039,-5.0352,-5.0441,-5.1769,-5.1373,-5.1099,-5.2114,-5.2959,-5.3501,-5.3501,-5.411,-5.4583,-5.4583,-5.5243,-5.5286,-5.4161,-5.4039,-5.3856,-5.3371,-5.2761,-5.2671,-5.3302,-5.2761,-5.2412,-5.2412,-5.2412,-5.2209,-5.1815,-5.087,-5.0017,-4.9238,-4.8305,-4.7936,-4.8057,-4.8716,-5.0266,-5.2565,-5.3531,-5.5027,-5.687,-5.7591,-5.7881,-5.7881,-5.7881,-5.7881,-5.7881,-5.7881,-5.7463,-5.6624,-5.4656,-5.3785,-5.3324,-5.1712,-5.1214,-5.1214,-5.1214,-5.1214,-5.1214,-5.1214,-5.1214,-5.1214,-5.1214,-5.1214,-5.1214,-5.1214,-5.1214,-5.1214,-5.1214,-5.1214,-5.1214,-5.1214,-5.1214,-5.1214,-5.1214,-5.1214,-5.1214,-5.1214,-5.1214,-5.1214,-5.1214,-5.1214,-5.1214,-5.1214,-5.1214,-5.1214,-5.1214,-5.1214,-5.1214,-5.1214,-5.1214,-5.1214,-5.1214,-5.0698,-4.9824,-4.8439,-4.9727,-5.0032,-4.921,-5.0493,-5.1214,-5.1214,-5.1214,-5.1214,-5.1167,-5.0335,-4.9679,-4.4868,-4.5647,-4.6542,-4.7368,-4.8221,-4.8968,-4.9277,-4.9899,-5.0782,-5.2041,-5.2106,-5.2012,-5.2249,-5.2959,-5.3501,-5.3501,-5.3923,-5.4125,-5.3798,-5.4179,-5.3939,-5.2363,-5.2186,-5.199,-5.148,-5.0817,-5.0665,-5.1377,-5.0779,-5.0397,-5.0397,-5.0397,-5.0242,-4.9891,-4.9175,-4.8636,-4.8335,-4.7651,-4.7309,-4.7309,-4.7758,-4.9309,-5.1837,-5.3054,-5.4614,-5.6462,-5.7453,-5.7881,-5.7881,-5.7881,-5.7881,-5.7845,-5.75,-5.687,-5.6047,-5.4573,-5.3569,-5.2738,-5.1603,-5.1214,-5.1214,-5.1214,-5.1214,-5.1214,-5.1214,-5.1214,-5.1214,-5.1214,-5.1214,-5.1214,-5.1214,-5.1214,-5.1214,-5.1214,-5.1214,-5.1214,-5.1214,-5.1214,-5.1214,-5.1214,-5.1214,-5.1214,-5.1214,-5.1214,-5.1214,-5.1214,-5.1214,-5.1214,-5.1214,-5.1214,-5.1214,-5.1214,-5.1214,-5.1214,-5.1214,-5.1214,-5.1214,-5.1214,-5.1214,-5.0807,-4.9873,-5.0698,-5.076,-4.9824,-5.076,-5.1214,-5.1214,-5.1214,-5.1214,-5.1167,-5.0239,-4.9616,-4.5437,-4.5567,-4.5636,-4.6561,-4.7919,-4.9204,-4.9932,-5.0638,-5.1768,-5.4108,-5.4027,-5.3264,-5.2469,-5.2959,-5.3501,-5.3501,-5.3501,-5.3144,-5.2065,-5.1921,-5.1527,-5.0506,-5.0397,-5.0358,-5.0358,-5.0374,-5.0358,-5.0358,-5.0374,-5.0358,-5.0358,-5.0358,-4.9891,-4.8825,-4.8784,-4.8293,-4.7309,-4.7309,-4.7309,-4.7309,-4.7309,-4.8771,-5.1547,-5.2957,-5.4747,-5.6833,-5.756,-5.7881,-5.7881,-5.7881,-5.7881,-5.7808,-5.6663,-5.6204,-5.5913,-5.3726,-5.29,-5.2738,-5.1603,-5.1214,-5.1214,-5.1214,-5.1214,-5.1214,-5.1214,-5.1214,-5.1214,-5.1214,-5.1214,-5.1214,-5.1214,-5.1214,-5.1214,-5.1214,-5.1214,-5.1214,-5.1214,-5.1214,-5.1214,-5.1214,-5.1214,-5.1214,-5.1214,-5.1214,-5.1214,-5.1214,-5.1214,-5.1214,-5.1214,-5.1214,-5.1214,-5.1214,-5.1214,-5.1214,-5.1214,-5.1214,-5.1214,-5.1214,-5.1214,-5.1167,-5.1167,-5.1167,-5.1167,-5.1167,-5.1167,-5.1214,-5.1214,-5.1214,-5.1214,-5.1214,-5.1214,-5.0445,-4.4251,-4.5167,-4.6301,-4.5963,-4.7872,-4.9965,-5.071,-5.1429,-5.2318,-5.3577,-5.3634,-5.3433,-5.3196,-5.3348,-5.3501,-5.3501,-5.3501,-5.3129,-5.2047,-5.1904,-5.125,-4.9466,-4.9268,-4.9252,-4.928,-4.861,-4.8501,-4.9231,-4.861,-4.824,-4.824,-4.824,-4.8072,-4.7764,-4.7722,-4.7609,-4.7309,-4.7309,-4.7309,-4.7309,-4.7309,-4.838,-5.042,-5.1574,-5.3158,-5.4998,-5.6477,-5.712,-5.7171,-5.7679,-5.7881,-5.7881,-5.7554,-5.6432,-5.4986,-5.4337,-5.3061,-5.1635,-5.1293,-5.1214,-5.1214,-5.1214,-5.1214,-5.1214,-5.1214,-5.1214,-5.1214,-5.1214,-5.1214,-5.1214,-5.1214,-5.1214,-5.1214,-5.1214,-5.1214,-5.1214,-5.1214,-5.1214,-5.1214,-5.1214,-5.1214,-5.1214,-5.1214,-5.1214,-5.1214,-5.1214,-5.1214,-5.1214,-5.1214,-5.1214,-5.1214,-5.1214,-5.1214,-5.1214,-5.1214,-5.1214,-5.1214,-5.1214,-5.1214,-5.076,-4.9824,-5.0698,-5.076,-4.9824,-5.0698,-5.1214,-5.1214,-5.1214,-5.1214,-5.1214,-5.1214,-4.9936,-4.5103,-4.5823,-4.6689,-4.721,-4.8959,-5.0811,-5.1877,-5.2469,-5.2909,-5.3399,-5.3501,-5.3501,-5.3501,-5.3501,-5.3501,-5.3501,-5.3129,-5.2489,-5.1447,-5.0951,-5.0041,-4.8404,-4.8188,-4.8208,-4.8194,-4.7651,-4.7523,-4.8141,-4.7651,-4.7309,-4.7309,-4.7309,-4.7309,-4.7309,-4.7309,-4.7309,-4.7309,-4.7309,-4.7309,-4.7309,-4.7309,-4.8046,-4.9512,-5.0898,-5.2514,-5.4375,-5.5755,-5.6528,-5.6833,-5.7273,-5.7628,-5.7881,-5.7881,-5.6564,-5.4589,-5.4589,-5.3165,-5.1214,-5.1214,-5.1214,-5.1214,-5.1214,-5.1214,-5.1214,-5.1214,-5.1214,-5.1214,-5.1214,-5.1214,-5.1214,-5.1214,-5.1214,-5.1214,-5.1214,-5.1214,-5.1214,-5.1214,-5.1214,-5.1214,-5.1214,-5.1214,-5.1214,-5.1214,-5.1214,-5.1214,-5.1214,-5.1214,-5.1214,-5.1214,-5.1214,-5.1214,-5.1214,-5.1214,-5.1214,-5.1214,-5.1214,-5.1214,-5.1214,-5.1214,-5.0603,-4.9259,-5.0493,-5.0807,-5.0032,-5.0807,-5.1214,-5.1214,-5.1214,-5.1214,-5.1214,-5.1214,-5.0287,-4.7046,-4.7061,-4.7012,-4.9402,-5.0646,-5.1708,-5.3162,-5.3501,-5.3501,-5.3501,-5.3501,-5.3501,-5.3501,-5.3501,-5.3484,-5.3365,-5.2555,-5.1494,-5.0422,-4.9418,-4.8447,-4.7412,-4.7309,-4.7309,-4.7309,-4.7309,-4.7309,-4.7309,-4.7309,-4.7309,-4.7309,-4.7309,-4.7309,-4.7309,-4.7249,-4.7219,-4.7219,-4.716,-4.716,-4.7219,-4.7219,-4.7816,-4.9004,-5.0644,-5.2592,-5.4634,-5.531,-5.6038,-5.6714,-5.6714,-5.712,-5.7797,-5.7797,-5.6498,-5.4589,-5.4589,-5.3165,-5.1214,-5.1214,-5.1214,-5.1214,-5.1214,-5.1214,-5.1214,-5.1214,-5.1214,-5.1214,-5.1214,-5.1214,-5.1214,-5.1214,-5.1214,-5.1214,-5.1214,-5.1214,-5.1214,-5.1214,-5.1214,-5.1214,-5.1214,-5.1214,-5.1214,-5.1214,-5.1214,-5.1214,-5.1214,-5.1214,-5.1214,-5.1214,-5.1214,-5.1214,-5.1214,-5.1214,-5.1214,-5.1214,-5.1214,-5.1214,-5.1214,-5.1214,-5.065,-4.9421,-5.0555,-5.112,-5.1011,-5.112,-5.1214,-5.1214,-5.1214,-5.1214,-5.1214,-5.1214,-5.1058,-4.6053,-4.7193,-4.8505,-4.8978,-5.0575,-5.2334,-5.3281,-5.3501,-5.3501,-5.3501,-5.3501,-5.3501,-5.3501,-5.3501,-5.323,-5.2371,-5.2048,-5.1263,-4.9406,-4.8928,-4.8447,-4.7412,-4.7309,-4.7309,-4.7309,-4.7309,-4.7309,-4.7309,-4.7309,-4.7309,-4.7309,-4.7309,-4.7309,-4.7309,-4.68,-4.6531,-4.6531,-4.5992,-4.5992,-4.6531,-4.6531,-4.7762,-5.0064,-5.048,-5.2097,-5.46,-5.4769,-5.526,-5.5953,-5.5953,-5.6376,-5.7036,-5.7036,-5.6029,-5.4589,-5.4589,-5.3165,-5.1214,-5.1214,-5.1214,-5.1214,-5.1214,-5.1214,-5.1214,-5.1214,-5.1214,-5.1214,-5.1214,-5.1214,-5.1214,-5.1214,-5.1214,-5.1214,-5.1214,-5.1214,-5.1214,-5.1214,-5.1214,-5.1214,-5.1214,-5.1214,-5.1214,-5.1214,-5.1214,-5.1214,-5.1214,-5.1214,-5.1214,-5.1214,-5.1214,-5.1214,-5.1214,-5.1214,-5.1214,-5.1214,-5.1214,-5.1214,-5.1214,-5.1214,-5.1058,-5.076,-5.1058,-5.0698,-4.9664,-5.065,-5.1214,-5.1214,-5.1214,-5.1214,-5.1214,-5.1214,-5.0032,-4.5904,-4.6798,-4.7968,-4.9386,-5.1329,-5.2993,-5.3399,-5.3501,-5.3501,-5.3501,-5.3501,-5.3501,-5.3501,-5.3095,-5.2556,-5.1984,-5.1081,-5.0022,-4.8953,-4.8374,-4.7871,-4.7339,-4.7309,-4.7309,-4.7309,-4.7309,-4.7309,-4.7309,-4.7309,-4.7309,-4.7309,-4.701,-4.683,-4.683,-4.6187,-4.5828,-4.5828,-4.5469,-4.5484,-4.5828,-4.6641,-4.8455,-5.1117,-5.1647,-5.2703,-5.4059,-5.4059,-5.4482,-5.5175,-5.5175,-5.5615,-5.6325,-5.6664,-5.5681,-5.4099,-5.4461,-5.3165,-5.1214,-5.1214,-5.1214,-5.1214,-5.1214,-5.1214,-5.1214,-5.1214,-5.1214,-5.1214,-5.1214,-5.1214,-5.1214,-5.1214,-5.1214,-5.1214,-5.1214,-5.1214,-5.1214,-5.1214,-5.1214,-5.1214,-5.1214,-5.1214,-5.1214,-5.1214,-5.1214,-5.1214,-5.1214,-5.1214,-5.1214,-5.1214,-5.1214,-5.1214,-5.1214,-5.1214,-5.1214,-5.1214,-5.1214,-5.1214,-5.1214,-5.1214,-5.1214,-5.1214,-5.1214,-5.0855,-5.0191,-5.0855,-5.1214,-5.1214,-5.1214,-5.1214,-5.1214,-5.1214,-5.0445,-4.5991,-4.6411,-4.7184,-5.0077,-5.2042,-5.3264,-5.3467,-5.3501,-5.3501,-5.3501,-5.3501,-5.3501,-5.3501,-5.2622,-5.184,-5.1659,-5.0041,-4.873,-4.8581,-4.7826,-4.7309,-4.7309,-4.7309,-4.7234,-4.7128,-4.7128,-4.7098,-4.6963,-4.6935,-4.695,-4.695,-4.6441,-4.6142,-4.6142,-4.5484,-4.5125,-4.5125,-4.5005,-4.5005,-4.514,-4.7127,-4.9426,-5.1921,-5.3025,-5.3501,-5.3501,-5.3501,-5.3856,-5.4397,-5.4397,-5.4837,-5.5581,-5.619,-5.5168,-5.3396,-5.4013,-5.2885,-5.105,-5.105,-5.1124,-5.1214,-5.1214,-5.1214,-5.1214,-5.1214,-5.1214,-5.1214,-5.1214,-5.1214,-5.1214,-5.1214,-5.1214,-5.1214,-5.1214,-5.1214,-5.1214,-5.1214,-5.1214,-5.1214,-5.1214,-5.1214,-5.1214,-5.1214,-5.1214,-5.1214,-5.1214,-5.1214,-5.1214,-5.1214,-5.1214,-5.1214,-5.1214,-5.1214,-5.1214,-5.1214,-5.1214,-5.1214,-5.1214,-5.1214,-5.1214,-5.1214,-5.1214,-5.1214,-5.1214,-5.1214,-5.1214,-5.1214,-5.1214,-5.1214,-5.1214,-5.1214,-5.1073,-4.5616,-4.6838,-4.8534,-5.0413,-5.152,-5.2348,-5.3298,-5.3501,-5.3501,-5.3501,-5.3501,-5.3501,-5.3501,-5.2636,-5.1614,-5.0721,-4.9592,-4.8492,-4.7619,-4.7397,-4.7309,-4.7309,-4.7309,-4.7066,-4.6493,-4.6428,-4.6179,-4.5601,-4.5567,-4.5559,-4.5559,-4.5484,-4.5424,-4.5424,-4.4781,-4.4451,-4.4451,-4.3843,-4.3843,-4.4451,-4.7676,-5.0144,-5.1921,-5.3025,-5.3501,-5.3501,-5.3501,-5.3568,-5.3653,-5.3653,-5.4076,-5.4752,-5.4854,-5.396,-5.2637,-5.2757,-5.1748,-5.0315,-5.0315,-5.0689,-5.1214,-5.1214,-5.1214,-5.1214,-5.1214,-5.1214,-5.1214,-5.1214,-5.1214,-5.1214,-5.1214,-5.1214,-5.1214,-5.1214,-5.1214,-5.1214,-5.1214,-5.1214,-5.1214,-5.1214,-5.1214,-5.1214,-5.1214,-5.1214,-5.1214,-5.1214,-5.1214,-5.1214,-5.1214,-5.1214,-5.1214,-5.1214,-5.1214,-5.1214,-5.1214,-5.1214,-5.1214,-5.1214,-5.1214,-5.1214,-5.1214,-5.1214,-5.1214,-5.1214,-5.1214,-5.1214,-5.1214,-5.1214,-5.1214,-5.1214,-5.1214,-5.0603,-4.4487,-4.5834,-4.767,-4.9568,-5.1084,-5.2368,-5.3281,-5.3501,-5.3501,-5.3501,-5.3025,-5.2592,-5.2592,-5.1773,-5.0705,-4.9692,-4.8633,-4.7826,-4.7339,-4.7309,-4.7309,-4.7309,-4.7309,-4.7066,-4.6379,-4.6296,-4.6025,-4.5357,-4.5282,-4.5289,-4.5289,-4.4945,-4.4751,-4.4751,-4.4107,-4.3723,-4.3723,-4.3439,-4.4428,-4.6639,-4.865,-5.0747,-5.28,-5.3264,-5.3501,-5.3501,-5.3501,-5.3501,-5.3501,-5.3501,-5.3687,-5.4025,-5.4431,-5.348,-5.1949,-5.2333,-5.1296,-4.9703,-4.9703,-5.0122,-5.0629,-5.0629,-5.0868,-5.1214,-5.1214,-5.1214,-5.1214,-5.1214,-5.1214,-5.1214,-5.1214,-5.1214,-5.1214,-5.1214,-5.1214,-5.1214,-5.1214,-5.1214,-5.1214,-5.1214,-5.1214,-5.1214,-5.1214,-5.1214,-5.1214,-5.1214,-5.1214,-5.1214,-5.1214,-5.1214,-5.1214,-5.1214,-5.1214,-5.1214,-5.1214,-5.1214,-5.1214,-5.1214,-5.1214,-5.1214,-5.1214,-5.1214,-5.1214,-5.1214,-5.1214,-5.1214,-5.1214,-5.1214,-5.1214,-5.1214,-5.1214,-5.0855,-4.3138,-4.427,-4.5913,-4.8082,-4.9924,-5.1512,-5.2555,-5.2976,-5.311,-5.311,-5.247,-5.1832,-5.1578,-5.0676,-4.9726,-4.8918,-4.7951,-4.7309,-4.7309,-4.7309,-4.7309,-4.7309,-4.7309,-4.7053,-4.6374,-4.5896,-4.5325,-4.4664,-4.4451,-4.4353,-4.4353,-4.4154,-4.4062,-4.4062,-4.3544,-4.329,-4.329,-4.3551,-4.5278,-4.8485,-4.919,-5.0808,-5.3196,-5.3196,-5.3315,-5.3501,-5.3501,-5.3501,-5.3501,-5.3501,-5.3501,-5.3551,-5.411,-5.3016,-5.1206,-5.1757,-5.0704,-4.906,-4.906,-4.9449,-4.9987,-4.9987,-5.0316,-5.075,-5.0915,-5.0928,-5.0958,-5.1169,-5.1214,-5.1214,-5.1214,-5.1214,-5.1214,-5.1214,-5.1214,-5.1214,-5.1214,-5.1214,-5.1214,-5.1214,-5.1214,-5.1214,-5.1214,-5.1214,-5.1214,-5.1214,-5.1214,-5.1214,-5.1214,-5.1214,-5.1214,-5.1214,-5.1214,-5.1214,-5.1214,-5.1214,-5.1214,-5.1214,-5.1214,-5.1214,-5.1214,-5.1214,-5.1214,-5.1214,-5.0855,-5.0855,-5.1214,-5.1214,-5.1214,-5.1167,-5.0855,-5.0855,-4.1844,-4.2313,-4.3472,-4.5856,-4.7413,-4.8788,-5.0525,-5.1498,-5.1993,-5.1993,-5.1921,-5.1614,-5.0665,-4.9584,-4.8876,-4.881,-4.7946,-4.7309,-4.7309,-4.7309,-4.7309,-4.7309,-4.7309,-4.7053,-4.6374,-4.473,-4.3459,-4.2794,-4.2145,-4.1771,-4.1771,-4.2784,-4.3349,-4.3349,-4.3305,-4.329,-4.329,-4.4259,-4.6049,-4.8658,-4.8742,-5.0026,-5.2367,-5.2367,-5.279,-5.3501,-5.3501,-5.3501,-5.3501,-5.3501,-5.3501,-5.3501,-5.3551,-5.2288,-5.0461,-5.0509,-4.9599,-4.8341,-4.8341,-4.8775,-4.9359,-4.9359,-4.9389,-4.9494,-5.0061,-5.024,-5.0375,-5.1003,-5.1214,-5.1214,-5.1214,-5.1214,-5.1214,-5.1214,-5.1214,-5.1214,-5.1214,-5.1214,-5.1214,-5.1214,-5.1214,-5.1214,-5.1214,-5.1214,-5.1214,-5.1214,-5.1214,-5.1214,-5.1214,-5.1214,-5.1214,-5.1214,-5.1214,-5.1214,-5.1214,-5.1214,-5.1214,-5.1214,-5.1214,-5.1214,-5.1214,-5.1214,-5.1214,-5.1214,-4.9936,-4.9936,-5.1214,-5.1214,-5.1214,-5.1167,-4.9873,-4.9984,-4.1081,-4.1485,-4.2552,-4.4322,-4.5865,-4.7225,-4.8363,-4.9503,-5.0309,-5.0309,-5.0099,-4.9797,-4.9456,-4.9054,-4.8594,-4.7946,-4.7538,-4.7309,-4.7309,-4.7309,-4.7309,-4.7309,-4.7309,-4.6739,-4.5226,-4.4196,-4.3301,-4.2538,-4.1947,-4.1932,-4.2644,-4.3076,-4.329,-4.329,-4.329,-4.3591,-4.4259,-4.5211,-4.6718,-4.8726,-4.9309,-5.0302,-5.1623,-5.208,-5.2469,-5.2756,-5.3281,-5.3501,-5.3501,-5.3501,-5.3501,-5.3416,-5.2749,-5.1631,-5.032,-4.9615,-4.8655,-4.7653,-4.7653,-4.8087,-4.8641,-4.8641,-4.897,-4.9434,-5.0001,-5.0196,-5.033,-5.0988,-5.1214,-5.1214,-5.1214,-5.1214,-5.1214,-5.1214,-5.1214,-5.1214,-5.1214,-5.1214,-5.1214,-5.1214,-5.1214,-5.1214,-5.1214,-5.1214,-5.1214,-5.1214,-5.1214,-5.1214,-5.1214,-5.1214,-5.1214,-5.1214,-5.1214,-5.1214,-5.1214,-5.1214,-5.1214,-5.1214,-5.1214,-5.1214,-5.1214,-5.1214,-5.1214,-5.1214,-4.9873,-4.9873,-5.1214,-4.9421,-4.9049,-4.9873,-4.8489,-4.8125,-4.041,-4.0715,-4.1767,-4.3189,-4.4306,-4.5417,-4.6559,-4.7527,-4.8386,-4.8925,-4.8591,-4.8264,-4.8568,-4.8063,-4.7566,-4.7349,-4.7309,-4.7309,-4.7309,-4.7309,-4.7309,-4.7309,-4.6912,-4.6153,-4.4867,-4.3847,-4.2977,-4.2234,-4.2009,-4.2165,-4.2684,-4.3076,-4.329,-4.329,-4.329,-4.395,-4.5248,-4.5905,-4.7093,-4.8828,-4.9443,-5.0118,-5.0862,-5.1336,-5.1826,-5.2334,-5.2875,-5.3247,-5.3501,-5.3501,-5.3501,-5.3382,-5.2312,-5.1283,-5.0281,-4.9191,-4.8183,-4.7309,-4.7309,-4.7593,-4.7952,-4.7952,-4.8252,-4.8775,-4.9643,-4.9912,-5.0092,-5.0975,-5.1214,-5.1214,-5.1214,-5.1214,-5.1214,-5.1214,-5.1214,-5.1214,-5.1214,-5.1214,-5.1214,-5.1214,-5.1214,-5.1214,-5.1214,-5.1214,-5.1214,-5.1214,-5.1214,-5.1214,-5.1214,-5.1214,-5.1214,-5.1214,-5.1214,-5.1214,-5.1214,-5.1214,-5.1214,-5.1214,-5.1214,-5.1214,-5.1214,-5.076,-5.054,-5.054,-4.8738,-4.8439,-4.9824,-4.7974,-4.7568,-4.8439,-4.7043,-4.6383,0.0,0.0,0.0,-4.2348,-4.2669,-4.3138,-4.5086,-4.5657,-4.6256,-4.7819,-4.7428,-4.713,-4.8025,-4.6614,-4.5723,-4.7055,-4.7279,-4.7279,-4.7309,-4.7309,-4.7309,-4.7266,-4.6149,-4.5361,-4.5314,-4.3716,-4.2445,-4.1763,-4.2292,-4.2348,-4.1686,-4.2699,-4.329,-4.329,-4.329,-4.4213,-4.6173,-4.6208,-4.7122,-4.9001,-4.9001,-4.9373,-5.005,-5.0084,-5.0879,-5.2266,-5.2283,-5.2756,-5.3501,-5.3501,-5.3501,-5.3382,-5.2277,-5.1266,-5.0281,-4.9175,-4.8141,-4.7309,-4.7309,-4.7309,-4.7309,-4.7309,-4.7309,-4.7549,-4.891,-4.9314,-4.9584,-5.0855,-5.1214,-5.1214,-5.1214,-5.1214,-5.1214,-5.1214,-5.1214,-5.1214,-5.1214,-5.1214,-5.1214,-5.1214,-5.1214,-5.1214,-5.1214,-5.1214,-5.1214,-5.1214,-5.1214,-5.1214,-5.1214,-5.1214,-5.1214,-5.1214,-5.1214,-5.1214,-5.1214,-5.1214,-5.1214,-5.1214,-5.1167,-5.112,-5.112,-4.9824,-4.9161,-4.9161,-4.6435,-4.5661,-4.7043,-4.6991,-4.6991,-4.6991,-4.5608,-4.4941,-3.9864,0.0,0.0,0.0,0.0,0.0,-4.1738,-4.2637,-4.363,-4.4501,-4.4877,-4.5258,-4.5995,-4.5671,-4.5589,-4.6456,-4.6591,-4.677,-4.7234,-4.7309,-4.6976,-4.6042,-4.5616,-4.4674,-4.282,-4.2678,-4.2588,-4.2311,-4.249,-4.2902,-4.3515,-4.3369,-4.329,-4.329,-4.329,-4.4213,-4.6173,-4.6208,-4.7122,-4.9001,-4.9001,-4.912,-4.9323,-4.9847,-5.0608,-5.1539,-5.208,-5.2756,-5.3501,-5.3501,-5.3501,-5.3314,-5.1521,-5.0627,-5.0165,-4.8392,-4.7538,-4.7309,-4.7309,-4.7309,-4.7309,-4.7309,-4.7309,-4.7549,-4.891,-4.9314,-4.9584,-5.0855,-5.1214,-5.1214,-5.1214,-5.1214,-5.1214,-5.1214,-5.1214,-5.1214,-5.1214,-5.1214,-5.1214,-5.1214,-5.1214,-5.1214,-5.1214,-5.1214,-5.1214,-5.1214,-5.1214,-5.1214,-5.1214,-5.1214,-5.1214,-5.1214,-5.1214,-5.1214,-5.1214,-5.1214,-5.1214,-5.1214,-5.0287,-4.9776,-4.9776,-4.8439,-4.767,-4.767,-4.5912,-4.5195,-4.5555,-4.463,-4.463,-4.5555,-4.4167,-4.4058,-4.0324,-3.992,-3.9996,-4.0284,0.0,0.0,-4.0778,-4.1227,-4.1866,-4.2864,-4.3102,-4.3388,-4.4495,-4.4353,-4.4377,-4.5334,-4.5723,-4.6217,-4.7174,-4.6829,-4.621,-4.547,-4.4442,-4.3464,-4.2478,-4.2767,-4.3092,-4.3297,-4.3546,-4.3541,-4.3178,-4.233,-4.2085,-4.2603,-4.2589,-4.3743,-4.6173,-4.6208,-4.7122,-4.9001,-4.9001,-4.9001,-4.9018,-4.9441,-5.0033,-5.0777,-5.12,-5.1995,-5.301,-5.301,-5.3196,-5.3298,-5.1208,-5.0397,-5.0142,-4.8088,-4.7309,-4.7309,-4.7309,-4.7309,-4.7309,-4.7309,-4.7309,-4.7504,-4.8536,-4.909,-4.9524,-5.0511,-5.0958,-5.1214,-5.1214,-5.1214,-5.1214,-5.1214,-5.1214,-5.1214,-5.1214,-5.1214,-5.1214,-5.1214,-5.1214,-5.1214,-5.1214,-5.1214,-5.1214,-5.1214,-5.1214,-5.1214,-5.1214,-5.1214,-5.1214,-5.1214,-5.1214,-5.1214,-5.1214,-5.1214,-5.0964,-5.0397,-4.9616,-4.895,-4.8339,-4.694,-4.6226,-4.6226,-4.4887,-4.4167,-4.4167,-4.3394,-4.3394,-4.4167,-4.3338,-4.3449,-4.108,-4.0844,-4.0966,-4.1465,-4.1155,0.0,-4.1084,-4.0711,-4.0715,-4.2217,-4.1876,-4.1746,-4.327,-4.2841,-4.2695,-4.3898,-4.4646,-4.5574,-4.6995,-4.6167,-4.5358,-4.5207,-4.3122,-4.2096,-4.3204,-4.3495,-4.3878,-4.4434,-4.4902,-4.4083,-4.1742,-4.0532,-4.0404,-4.1545,-4.1697,-4.3184,-4.6173,-4.6314,-4.7239,-4.9001,-4.9001,-4.9001,-4.9001,-4.9001,-4.9407,-5.0084,-5.0084,-5.0879,-5.2198,-5.2167,-5.2589,-5.311,-5.1171,-5.032,-4.997,-4.8003,-4.7309,-4.7309,-4.7309,-4.7309,-4.7309,-4.7309,-4.7309,-4.7429,-4.8087,-4.8745,-4.9314,-4.9986,-5.0659,-5.1214,-5.1214,-5.1214,-5.1214,-5.1214,-5.1214,-5.1214,-5.1214,-5.1214,-5.1214,-5.1214,-5.1214,-5.1214,-5.1214,-5.1214,-5.1214,-5.1214,-5.1214,-5.1214,-5.1214,-5.1214,-5.1214,-5.1214,-5.1214,-5.1214,-5.1214,-5.1214,-5.0698,-4.9518,-4.9161,-4.8389,-4.7146,-4.5608,-4.4792,-4.4792,-4.3602,-4.2974,-4.2974,-4.2974,-4.2974,-4.2974,-4.2974,-4.2974,-4.1997,-4.1739,-4.1608,-4.1049,-4.0799,0.0,-3.9941,-3.9709,-3.9835,-4.0685,-4.0724,-4.086,-4.1731,-4.1716,-4.1871,-4.265,-4.3299,-4.4336,-4.6204,-4.5874,-4.5024,-4.3975,-4.2887,-4.2166,-4.1976,-4.3285,-4.4461,-4.5168,-4.4428,-4.3254,-4.1701,-4.0532,-4.0404,-4.1545,-4.2331,-4.3861,-4.6173,-4.6952,-4.7868,-4.9001,-4.9001,-4.9001,-4.9001,-4.9001,-4.9407,-5.0084,-5.0084,-5.0591,-5.1406,-5.1175,-5.151,-5.2082,-5.0855,-4.9852,-4.8948,-4.7764,-4.7309,-4.7309,-4.7309,-4.7309,-4.7309,-4.7309,-4.7309,-4.7429,-4.8087,-4.8371,-4.8716,-4.9867,-5.0659,-5.1214,-5.1214,-5.1214,-5.1214,-5.1214,-5.1214,-5.1214,-5.1214,-5.1214,-5.1214,-5.1214,-5.1214,-5.1214,-5.1214,-5.1214,-5.1214,-5.1214,-5.1214,-5.1214,-5.1214,-5.1214,-5.1214,-5.1214,-5.1214,-5.1214,-5.1214,-5.1214,-5.1073,-5.0807,-4.8738,-4.7402,-4.7094,-4.4738,-4.3394,-4.3394,-4.3129,-4.2974,-4.2974,-4.2974,-4.2974,-4.2974,-4.2974,-4.2974,-4.2221,-4.2332,-4.2458,-4.1576,-4.1346,0.0,0.0,-3.9388,-3.9514,-3.9843,-3.9903,-4.0113,-4.0771,-4.0891,-4.1115,-4.1796,-4.2432,-4.3195,-4.4212,-4.4109,-4.3826,-4.3557,-4.2619,-4.2156,-4.2536,-4.3956,-4.484,-4.4881,-4.3533,-4.1994,-4.0355,-3.9465,-3.9522,-4.0703,-4.2221,-4.4037,-4.6173,-4.7122,-4.808,-4.9001,-4.9001,-4.9001,-4.9001,-4.9001,-4.9204,-4.9543,-4.9543,-4.9965,-5.0612,-5.0007,-4.9878,-5.0091,-4.9723,-4.9256,-4.8677,-4.7694,-4.7309,-4.7309,-4.7309,-4.7309,-4.7309,-4.7309,-4.7309,-4.7369,-4.7698,-4.8027,-4.8491,-4.9479,-5.0227,-5.0689,-5.0689,-5.0928,-5.1214,-5.1214,-5.1214,-5.1214,-5.1214,-5.1214,-5.1214,-5.1214,-5.1214,-5.1214,-5.1214,-5.1214,-5.1214,-5.1214,-5.1214,-5.1214,-5.1214,-5.1214,-5.1214,-5.1214,-5.1214,-5.1214,-5.1214,-5.1214,-5.0603,-4.9259,-4.7873,-4.6487,-4.5088,-4.3755,-4.2974,-4.2974,-4.2974,-4.2974,-4.2974,-4.2974,-4.2974,-4.2974,-4.2974,-4.2974,-4.2707,-4.3,-4.3336,-4.2458,-4.2125,-4.1576,0.0,0.0,0.0,-3.9388,-3.9388,-3.9589,-4.0113,-4.0217,-4.0382,-4.092,-4.1587,-4.2066,-4.2186,-4.2138,-4.2407,-4.3208,-4.2473,-4.2407,-4.3574,-4.4609,-4.5014,-4.4451,-4.2446,-4.0586,-3.8965,-3.8379,-3.8626,-3.9875,-4.2103,-4.422,-4.6173,-4.7306,-4.8257,-4.9001,-4.9001,-4.9001,-4.9001,-4.9001,-4.9001,-4.9001,-4.9001,-4.934,-4.9818,-4.8828,-4.8278,-4.8126,-4.8481,-4.8476,-4.8234,-4.7563,-4.7309,-4.7309,-4.7309,-4.7309,-4.7309,-4.7309,-4.7309,-4.7309,-4.7309,-4.7758,-4.8401,-4.897,-4.9553,-5.0031,-5.0166,-5.0584,-5.1065,-5.1184,-5.1214,-5.1214,-5.1214,-5.1214,-5.1214,-5.1214,-5.1214,-5.1214,-5.1214,-5.1214,-5.1214,-5.1214,-5.1214,-5.1214,-5.1214,-5.1214,-5.1214,-5.1214,-5.1214,-5.1214,-5.1214,-5.0964,-4.9873,-4.767,-4.6991,-4.5714,-4.3492,-4.3129,-4.2974,-4.2974,-4.2974,-4.2974,-4.2974,-4.2974,-4.2974,-4.2974,-4.2974,-4.2974,-4.431,-4.4384,-4.4253,-4.3366,-4.2583,-4.1739,-4.0758,0.0,-3.9388,-3.9388,0.0,-3.9403,-3.9514,0.0,0.0,-3.9634,-4.0187,-4.0831,-4.1452,-4.1051,-4.1168,-4.2367,-4.2851,-4.3396,-4.4238,-4.4523,-4.4628,-4.4422,-4.1288,-3.9269,-3.8939,-3.8395,-3.8633,-3.9872,-4.2739,-4.4871,-4.6173,-4.795,-4.8892,-4.9001,-4.9001,-4.9001,-4.9001,-4.9001,-4.9001,-4.9001,-4.9001,-4.9052,-4.9029,-4.7867,-4.7345,-4.7371,-4.7739,-4.7364,-4.6656,-4.7128,-4.7309,-4.7309,-4.7309,-4.7309,-4.7309,-4.7309,-4.7309,-4.7309,-4.7309,-4.7758,-4.8297,-4.8371,-4.8865,-4.9508,-5.0046,-5.0255,-5.045,-5.1079,-5.1214,-5.1214,-5.1214,-5.1214,-5.1214,-5.1214,-5.1214,-5.1214,-5.1214,-5.1214,-5.1214,-5.1214,-5.1214,-5.1214,-5.1214,-5.1214,-5.1214,-5.1214,-5.1214,-5.1214,-5.1214,-5.0128,-4.9308,-4.8999,-4.6643,-4.5088,-4.4792,-4.3657,-4.2974,-4.2974,-4.2974,-4.2974,-4.2974,-4.2974,-4.2974,-4.2974,-4.2974,-4.2974,-4.3977,-4.4224,-4.4281,-4.2909,-4.2252,-4.1642,-4.0255,-3.9666,-3.9388,-3.9388,0.0,0.0,0.0,0.0,0.0,0.0,-3.9649,-3.9933,-4.0202,-4.0372,-4.0948,-4.225,-4.2634,-4.3337,-4.4787,-4.4988,-4.4399,-4.2944,-4.1117,-3.9752,-3.8959,-3.9079,-3.97,-4.0843,-4.3844,-4.5687,-4.6224,-4.7648,-4.8376,-4.8376,-4.7936,-4.7953,-4.8376,-4.8376,-4.8612,-4.9001,-4.9001,-4.8688,-4.8113,-4.7036,-4.6294,-4.5796,-4.5791,-4.5762,-4.5813,-4.6486,-4.6741,-4.68,-4.7174,-4.7309,-4.7309,-4.7309,-4.7309,-4.7309,-4.7309,-4.7504,-4.7713,-4.7713,-4.8192,-4.885,-4.9508,-4.9957,-5.036,-5.1065,-5.1214,-5.1214,-5.1214,-5.1214,-5.1214,-5.1214,-5.1214,-5.1214,-5.1214,-5.1214,-5.1214,-5.1214,-5.1214,-5.1214,-5.1214,-5.1214,-5.1214,-5.1214,-5.0493,-5.0032,-5.0032,-4.8752,-4.7619,-4.6785,-4.4941,-4.3865,-4.3865,-4.3283,-4.2974,-4.2974,-4.2974,-4.2974,-4.2974,-4.2974,-4.2974,-4.2974,-4.2974,-4.2974,-4.3814,-4.4121,-4.4253,-4.2738,-4.2157,-4.1609,-4.0095,-3.9574,-3.9388,-3.9388,-3.9388,0.0,0.0,0.0,-3.9388,-3.9388,0.0,-3.9388,-3.9388,-3.9828,-4.0575,-4.1695,-4.231,-4.3355,-4.5117,-4.4861,-4.3888,-4.2312,-4.1141,-4.0199,-3.9415,-4.0018,-4.0732,-4.1577,-4.4402,-4.5902,-4.5902,-4.7047,-4.7614,-4.7597,-4.7056,-4.7073,-4.7614,-4.7614,-4.8003,-4.8666,-4.8433,-4.8042,-4.7523,-4.633,-4.5431,-4.4746,-4.4237,-4.4332,-4.487,-4.5723,-4.6115,-4.6354,-4.6875,-4.716,-4.7309,-4.7309,-4.7309,-4.7309,-4.7309,-4.7309,-4.7309,-4.7309,-4.7653,-4.8162,-4.8865,-4.9344,-4.9867,-5.075,-5.0945,-5.1005,-5.1184,-5.1214,-5.1214,-5.1214,-5.1214,-5.1214,-5.1214,-5.1214,-5.1214,-5.1214,-5.1214,-5.1214,-5.1214,-5.1214,-5.1058,-5.0698,-4.9776,-4.9049,-4.8638,-4.7299,-4.5912,-4.4522,-4.3547,-4.2974,-4.2974,-4.2974,-4.2974,-4.2974,-4.2974,-4.2974,-4.2974,-4.2974,-4.2974,-4.2974,-4.2974,-4.2974,-4.457,-4.457,-4.4384,-4.3486,-4.2614,-4.1772,-4.0844,-4.0025,-3.9388,-3.9388,-3.9388,-3.9388,-3.9388,-3.9388,-3.9388,-3.9388,-3.9388,0.0,0.0,-3.9439,-3.9687,-4.039,-4.213,-4.3787,-4.517,-4.3734,-4.2854,-4.3329,-4.1205,-4.0161,-4.061,-4.1203,-4.1585,-4.1615,-4.3922,-4.5146,-4.5146,-4.6269,-4.6836,-4.6819,-4.6802,-4.6802,-4.6836,-4.6836,-4.7242,-4.7875,-4.6985,-4.6963,-4.7456,-4.5613,-4.4849,-4.4699,-4.3723,-4.3349,-4.3514,-4.4855,-4.5753,-4.6279,-4.6309,-4.677,-4.7309,-4.7309,-4.7309,-4.7309,-4.7309,-4.7309,-4.7309,-4.7309,-4.7324,-4.7489,-4.8147,-4.8341,-4.8671,-4.9912,-5.0226,-5.0405,-5.1079,-5.1214,-5.1214,-5.1214,-5.1214,-5.1214,-5.1214,-5.1214,-5.1214,-5.1214,-5.1214,-5.1214,-5.1214,-5.1214,-5.0698,-4.9406,-4.921,-4.8638,-4.7299,-4.5872,-4.4481,-4.3129,-4.303,-4.2974,-4.2974,-4.2974,-4.2974,-4.2974,-4.2974,-4.2974,-4.2974,-4.2974,-4.2974,-4.2974,-4.2974,-4.2974,-4.4615,-4.4615,-4.4384,-4.3532,-4.3078,-4.2614,-4.1772,-4.1313,-4.0961,-4.0378,-4.0274,-4.008,-3.9517,-3.9388,-3.9388,-3.9388,-3.9388,-3.9388,0.0,-3.9388,-3.9664,-4.0322,-4.1758,-4.2701,-4.2701,-4.2936,-4.2661,-4.1616,-4.1211,-4.1085,-4.1292,-4.1497,-4.1939,-4.2684,-4.4289,-4.509,-4.5107,-4.5763,-4.6068,-4.6068,-4.5585,-4.5585,-4.6075,-4.6075,-4.6165,-4.6331,-4.6465,-4.5974,-4.5077,-4.4892,-4.4412,-4.3771,-4.3433,-4.329,-4.3409,-4.4332,-4.4796,-4.5125,-4.5965,-4.6756,-4.7309,-4.7309,-4.7309,-4.7309,-4.7309,-4.7309,-4.7309,-4.7309,-4.7309,-4.7459,-4.8117,-4.8282,-4.8506,-4.9389,-4.9927,-5.0255,-5.048,-5.0868,-5.1214,-5.1214,-5.1214,-5.1214,-5.1214,-5.1214,-5.1214,-5.1214,-5.1214,-5.1214,-5.1214,-5.1214,-5.1011,-5.0555,-4.8901,-4.7619,-4.7146,-4.4994,-4.3492,-4.303,-4.2974,-4.2974,-4.2974,-4.2974,-4.2974,-4.2974,-4.2974,-4.2974,-4.2974,-4.2974,-4.2974,-4.2974,-4.2974,-4.2974,-4.4615,-4.4615,-4.4384,-4.3532,-4.3306,-4.3078,-4.2189,-4.1997,-4.1756,-4.0878,-4.069,-4.0432,-3.9538,-3.9388,-3.9388,-3.9388,-3.9388,-3.9388,0.0,-3.9388,-3.9574,-3.9993,-4.101,-4.1722,-4.1767,-4.2282,-4.2312,-4.162,-4.1755,-4.1977,-4.2204,-4.2177,-4.2418,-4.2952,-4.4087,-4.4592,-4.4363,-4.4996,-4.5307,-4.5291,-4.484,-4.4869,-4.5314,-4.4992,-4.4943,-4.5116,-4.5146,-4.4649,-4.3841,-4.4158,-4.3888,-4.329,-4.329,-4.329,-4.3349,-4.3768,-4.4272,-4.4825,-4.5933,-4.6756,-4.7309,-4.7309,-4.7309,-4.7309,-4.7309,-4.7309,-4.7309,-4.7309,-4.7309,-4.7399,-4.7833,-4.7938,-4.8102,-4.876,-4.9419,-4.9957,-5.0136,-5.0704,-5.1214,-5.1214,-5.1214,-5.1214,-5.1214,-5.1214,-5.1214,-5.1214,-5.1214,-5.1214,-5.1214,-5.1214,-5.0807,-4.9824,-4.8175,-4.6695,-4.5714,-4.4016,-4.2974,-4.2974,-4.2974,-4.2974,-4.2974,-4.2974,-4.2974,-4.2974,-4.2974,-4.2974,-4.2974,-4.2974,-4.2974,-4.2974,-4.2974,-4.2974]},{"header":{"parameterUnit":"m.s-1","parameterCategory":1,"la1":30.6,"la2":29.2853,"lo1":-89.7004,"lo2":-87.6739,"dy":0.0162,"dx":0.0183,"nx":112,"ny":82,"refTime":"2024-05-27T06:00:00:Z","depth":0,"parameterNumber":3,"parameterNumberName":"V-component_of_WINDS"},"data":[0.0,0.0,0.0,0.0,0.0,0.0,0.0,0.0,0.0,0.0,0.0,0.0,0.0,0.0,0.0,0.0,0.0,0.0,0.0,0.0,0.0,0.0,0.0,0.0,0.0,0.0,0.0,0.0,0.0,0.0,0.0,0.0,0.0,0.0,0.0,0.0,0.0,0.0,0.0,0.0,0.0,0.0,0.0,0.0,0.0,0.0,0.0,0.0,0.0,0.0,0.0,0.0,0.0,0.0,0.0,0.0,0.0,0.0,0.0,0.0,0.0,0.0,0.0,0.0,0.0,0.0,0.0,0.0,0.0,0.0,0.0,0.0,0.0,0.0,0.0,0.0,0.0,0.0,0.0,0.0,0.0,0.0,0.0,0.0,0.0,0.0,0.0,0.0,0.0,0.0,-3.1274,-3.176,-3.2773,-3.3418,-3.3418,-3.3418,-3.2695,-3.0996,0.0,0.0,0.0,0.0,0.0,0.0,0.0,0.0,0.0,0.0,0.0,0.0,0.0,0.0,0.0,0.0,0.0,0.0,0.0,0.0,0.0,0.0,0.0,0.0,0.0,0.0,0.0,0.0,0.0,0.0,0.0,0.0,0.0,0.0,0.0,0.0,0.0,0.0,0.0,0.0,0.0,0.0,0.0,0.0,0.0,0.0,0.0,0.0,0.0,0.0,0.0,0.0,0.0,0.0,0.0,0.0,0.0,0.0,0.0,0.0,0.0,0.0,0.0,0.0,0.0,0.0,0.0,0.0,0.0,0.0,0.0,0.0,0.0,0.0,0.0,0.0,0.0,0.0,0.0,0.0,0.0,0.0,0.0,0.0,0.0,0.0,0.0,0.0,0.0,0.0,0.0,0.0,0.0,0.0,0.0,0.0,0.0,0.0,0.0,0.0,0.0,0.0,0.0,0.0,-3.0699,-3.2871,-3.3301,-3.3418,-3.3418,-3.3418,-3.2695,-3.0996,0.0,0.0,0.0,0.0,0.0,0.0,0.0,0.0,0.0,0.0,0.0,0.0,0.0,0.0,0.0,0.0,0.0,0.0,0.0,0.0,0.0,0.0,0.0,0.0,0.0,0.0,0.0,0.0,0.0,0.0,0.0,0.0,0.0,0.0,0.0,0.0,0.0,0.0,0.0,0.0,0.0,0.0,0.0,0.0,0.0,0.0,0.0,0.0,0.0,0.0,0.0,0.0,0.0,0.0,0.0,0.0,0.0,0.0,0.0,0.0,0.0,0.0,0.0,0.0,0.0,0.0,0.0,0.0,0.0,0.0,0.0,0.0,0.0,0.0,0.0,0.0,0.0,0.0,0.0,0.0,0.0,0.0,0.0,0.0,0.0,0.0,0.0,0.0,0.0,0.0,0.0,0.0,0.0,0.0,0.0,0.0,0.0,0.0,0.0,0.0,0.0,0.0,0.0,-3.1619,-3.1804,-3.3256,-3.3418,-3.3418,-3.3418,-3.3418,-3.2695,-3.0996,-3.0887,0.0,0.0,0.0,0.0,0.0,0.0,0.0,0.0,0.0,0.0,0.0,0.0,0.0,0.0,0.0,0.0,0.0,0.0,0.0,0.0,0.0,0.0,0.0,0.0,0.0,0.0,0.0,0.0,0.0,0.0,0.0,0.0,0.0,0.0,0.0,0.0,0.0,0.0,0.0,0.0,0.0,0.0,0.0,0.0,0.0,0.0,0.0,0.0,0.0,0.0,0.0,0.0,0.0,0.0,0.0,0.0,0.0,0.0,0.0,0.0,0.0,0.0,0.0,0.0,0.0,0.0,0.0,0.0,0.0,0.0,0.0,0.0,0.0,0.0,0.0,0.0,0.0,0.0,0.0,0.0,0.0,0.0,0.0,0.0,0.0,0.0,0.0,0.0,0.0,0.0,0.0,0.0,0.0,0.0,0.0,0.0,0.0,0.0,0.0,0.0,0.0,0.0,-3.3027,-3.3341,-3.3911,-3.3597,-3.3418,-3.3418,-3.3242,-3.249,-3.0986,-3.1035,0.0,0.0,0.0,0.0,0.0,0.0,0.0,0.0,0.0,0.0,0.0,0.0,0.0,0.0,0.0,0.0,0.0,0.0,0.0,0.0,0.0,0.0,0.0,0.0,0.0,0.0,0.0,0.0,0.0,0.0,0.0,0.0,0.0,0.0,0.0,0.0,0.0,0.0,0.0,0.0,0.0,0.0,0.0,0.0,0.0,0.0,0.0,0.0,0.0,0.0,0.0,0.0,0.0,0.0,0.0,0.0,0.0,0.0,0.0,0.0,0.0,0.0,0.0,0.0,0.0,0.0,0.0,0.0,0.0,0.0,0.0,0.0,0.0,0.0,0.0,0.0,0.0,0.0,0.0,0.0,0.0,0.0,0.0,0.0,0.0,0.0,0.0,0.0,0.0,0.0,0.0,0.0,0.0,0.0,0.0,0.0,0.0,0.0,0.0,0.0,0.0,0.0,-3.4071,-3.4606,-3.5517,-3.432,-3.3418,-3.3418,-3.2705,-3.1865,-3.0947,-3.0455,0.0,0.0,0.0,0.0,0.0,0.0,0.0,0.0,0.0,0.0,0.0,0.0,0.0,0.0,0.0,0.0,0.0,0.0,0.0,0.0,0.0,0.0,0.0,0.0,0.0,0.0,0.0,0.0,0.0,0.0,0.0,0.0,0.0,0.0,0.0,0.0,0.0,0.0,0.0,0.0,0.0,0.0,0.0,0.0,0.0,0.0,0.0,0.0,0.0,0.0,0.0,0.0,0.0,0.0,0.0,0.0,0.0,0.0,0.0,0.0,0.0,0.0,0.0,0.0,0.0,0.0,0.0,0.0,0.0,0.0,0.0,0.0,0.0,0.0,0.0,0.0,0.0,0.0,0.0,0.0,0.0,0.0,0.0,0.0,0.0,0.0,0.0,0.0,0.0,0.0,0.0,0.0,0.0,0.0,0.0,0.0,0.0,0.0,0.0,0.0,0.0,0.0,-3.5702,-3.6101,-3.5821,-3.5263,-3.4497,-3.3481,-3.3727,-3.2944,-3.0605,0.0,0.0,0.0,0.0,0.0,0.0,0.0,0.0,0.0,0.0,0.0,0.0,0.0,0.0,0.0,0.0,0.0,0.0,0.0,0.0,0.0,0.0,0.0,0.0,0.0,0.0,0.0,0.0,0.0,0.0,0.0,0.0,0.0,0.0,0.0,0.0,0.0,0.0,0.0,0.0,0.0,0.0,0.0,0.0,0.0,0.0,0.0,0.0,0.0,0.0,0.0,0.0,0.0,0.0,0.0,0.0,0.0,0.0,0.0,0.0,0.0,0.0,0.0,0.0,0.0,0.0,0.0,0.0,0.0,0.0,0.0,0.0,0.0,0.0,0.0,0.0,0.0,0.0,0.0,0.0,0.0,0.0,0.0,0.0,0.0,0.0,0.0,0.0,0.0,0.0,0.0,0.0,0.0,0.0,0.0,0.0,0.0,0.0,0.0,0.0,0.0,0.0,-3.6249,-3.7226,-3.7678,-3.7367,-3.6892,-3.6048,-3.479,-3.5061,-3.4212,-3.1447,0.0,0.0,0.0,0.0,0.0,0.0,0.0,0.0,0.0,0.0,0.0,0.0,0.0,0.0,0.0,0.0,0.0,0.0,0.0,0.0,0.0,0.0,0.0,0.0,0.0,0.0,0.0,0.0,0.0,0.0,0.0,0.0,0.0,0.0,0.0,0.0,0.0,0.0,0.0,0.0,0.0,0.0,0.0,0.0,0.0,0.0,0.0,0.0,0.0,0.0,0.0,0.0,0.0,0.0,0.0,0.0,0.0,0.0,0.0,0.0,0.0,0.0,0.0,0.0,0.0,0.0,0.0,0.0,0.0,0.0,0.0,0.0,0.0,0.0,0.0,0.0,0.0,0.0,0.0,0.0,0.0,0.0,0.0,0.0,0.0,0.0,0.0,0.0,0.0,0.0,0.0,0.0,0.0,0.0,0.0,0.0,0.0,0.0,0.0,0.0,0.0,0.0,-3.7852,-3.8538,-3.9347,-4.0473,-3.9159,-3.8022,-3.747,-3.6588,-3.5389,0.0,0.0,0.0,0.0,0.0,0.0,0.0,0.0,0.0,0.0,0.0,0.0,0.0,0.0,0.0,0.0,0.0,0.0,0.0,0.0,0.0,0.0,0.0,0.0,0.0,0.0,0.0,0.0,0.0,0.0,0.0,0.0,0.0,0.0,0.0,0.0,0.0,0.0,0.0,0.0,0.0,0.0,0.0,0.0,0.0,0.0,0.0,0.0,0.0,0.0,0.0,0.0,0.0,0.0,0.0,0.0,0.0,0.0,0.0,0.0,0.0,0.0,0.0,0.0,0.0,0.0,0.0,0.0,0.0,0.0,0.0,0.0,0.0,0.0,0.0,0.0,0.0,0.0,0.0,0.0,0.0,0.0,0.0,0.0,0.0,0.0,0.0,0.0,0.0,0.0,0.0,0.0,0.0,0.0,0.0,0.0,0.0,0.0,0.0,0.0,0.0,0.0,0.0,-3.7337,-3.927,-4.044,-4.0087,-3.9963,-3.9209,-3.7529,-3.7804,-3.6648,-3.3377,0.0,0.0,0.0,0.0,0.0,0.0,0.0,0.0,0.0,0.0,0.0,0.0,0.0,0.0,0.0,0.0,0.0,0.0,0.0,0.0,0.0,0.0,0.0,0.0,0.0,0.0,0.0,0.0,0.0,0.0,0.0,0.0,0.0,0.0,0.0,0.0,0.0,0.0,0.0,0.0,0.0,0.0,0.0,0.0,0.0,0.0,0.0,0.0,0.0,0.0,0.0,0.0,0.0,0.0,0.0,0.0,0.0,0.0,0.0,0.0,0.0,0.0,0.0,0.0,0.0,0.0,0.0,0.0,0.0,0.0,0.0,0.0,0.0,0.0,0.0,0.0,0.0,0.0,0.0,0.0,0.0,0.0,0.0,0.0,0.0,0.0,0.0,0.0,0.0,0.0,0.0,0.0,0.0,0.0,0.0,0.0,0.0,0.0,0.0,0.0,0.0,0.0,-3.7111,-3.9622,-4.1151,-4.0806,-4.1229,-4.0832,-3.9106,-3.9503,-3.8262,-3.4593,0.0,0.0,0.0,0.0,0.0,0.0,0.0,0.0,0.0,0.0,0.0,0.0,0.0,0.0,0.0,0.0,0.0,0.0,0.0,0.0,0.0,0.0,0.0,0.0,0.0,0.0,0.0,0.0,0.0,0.0,0.0,0.0,0.0,0.0,0.0,0.0,0.0,0.0,0.0,0.0,0.0,0.0,0.0,0.0,0.0,0.0,0.0,0.0,0.0,0.0,0.0,0.0,0.0,0.0,0.0,0.0,0.0,0.0,0.0,0.0,0.0,0.0,0.0,0.0,0.0,0.0,0.0,0.0,0.0,0.0,0.0,0.0,0.0,0.0,0.0,0.0,0.0,0.0,0.0,0.0,0.0,0.0,0.0,0.0,0.0,0.0,0.0,0.0,0.0,0.0,0.0,0.0,0.0,0.0,0.0,0.0,0.0,0.0,0.0,0.0,0.0,0.0,-3.7048,-3.9584,-4.153,-4.2087,-4.2678,-4.2534,-4.1376,-4.1288,-3.9936,-3.6694,0.0,0.0,0.0,0.0,0.0,0.0,0.0,0.0,0.0,0.0,0.0,0.0,0.0,0.0,0.0,0.0,0.0,0.0,0.0,0.0,0.0,0.0,0.0,0.0,0.0,0.0,0.0,0.0,0.0,0.0,0.0,0.0,0.0,0.0,0.0,0.0,0.0,0.0,0.0,0.0,0.0,0.0,0.0,0.0,0.0,0.0,0.0,0.0,0.0,0.0,0.0,0.0,0.0,0.0,0.0,0.0,0.0,0.0,0.0,0.0,-2.6396,-2.6055,0.0,0.0,0.0,0.0,0.0,0.0,0.0,0.0,0.0,0.0,0.0,0.0,0.0,0.0,0.0,0.0,0.0,0.0,0.0,0.0,0.0,0.0,0.0,0.0,0.0,0.0,0.0,0.0,0.0,0.0,0.0,0.0,0.0,0.0,0.0,0.0,0.0,0.0,0.0,0.0,-3.6568,-3.9346,-4.1326,-4.1505,-4.2396,-4.2534,-4.1376,-4.1288,-4.0099,-3.7199,-3.6609,0.0,0.0,0.0,0.0,0.0,0.0,0.0,0.0,0.0,0.0,0.0,0.0,0.0,0.0,0.0,0.0,0.0,0.0,0.0,0.0,0.0,0.0,0.0,0.0,0.0,0.0,0.0,0.0,0.0,0.0,0.0,0.0,0.0,0.0,0.0,0.0,0.0,0.0,0.0,0.0,0.0,0.0,0.0,0.0,0.0,0.0,0.0,0.0,0.0,0.0,0.0,0.0,0.0,0.0,0.0,0.0,0.0,0.0,0.0,-2.6963,-2.6562,0.0,0.0,0.0,0.0,0.0,0.0,0.0,0.0,0.0,0.0,0.0,0.0,0.0,0.0,0.0,0.0,0.0,0.0,0.0,0.0,0.0,0.0,0.0,0.0,0.0,0.0,0.0,0.0,0.0,0.0,0.0,0.0,0.0,0.0,0.0,0.0,0.0,0.0,0.0,0.0,-3.6405,-3.9044,-4.094,-4.094,-4.1693,-4.1856,-4.1015,-4.094,-3.9973,-3.7726,-3.7061,0.0,0.0,0.0,0.0,0.0,0.0,0.0,0.0,0.0,0.0,0.0,0.0,0.0,0.0,0.0,0.0,0.0,0.0,0.0,0.0,0.0,0.0,0.0,0.0,0.0,0.0,0.0,0.0,0.0,0.0,0.0,0.0,0.0,0.0,0.0,0.0,0.0,0.0,0.0,0.0,0.0,0.0,0.0,0.0,0.0,0.0,0.0,0.0,0.0,0.0,0.0,0.0,0.0,-2.8012,-2.8237,-2.8516,-2.8516,-2.8516,-2.8476,-2.7773,-2.7373,-2.7217,-2.6865,0.0,0.0,0.0,0.0,0.0,0.0,0.0,0.0,0.0,0.0,0.0,0.0,0.0,0.0,0.0,0.0,0.0,0.0,0.0,0.0,0.0,0.0,-3.6996,-3.6996,-3.7638,-3.7952,-3.6636,0.0,0.0,0.0,0.0,0.0,0.0,0.0,0.0,0.0,0.0,0.0,-3.6556,-3.8856,-4.0513,-4.0513,-4.0962,-4.1062,-4.0563,-4.0513,-3.9835,-3.8253,-3.7638,-3.6634,0.0,0.0,0.0,0.0,0.0,0.0,0.0,0.0,0.0,0.0,0.0,0.0,0.0,0.0,0.0,0.0,0.0,0.0,0.0,0.0,0.0,0.0,0.0,0.0,0.0,0.0,0.0,0.0,0.0,0.0,0.0,0.0,-1.0403,-1.1943,0.0,0.0,0.0,0.0,0.0,0.0,0.0,0.0,0.0,0.0,0.0,0.0,0.0,-2.5447,-2.5447,-2.759,-2.8691,-2.876,-2.9141,-2.9411,-2.946,-2.946,-2.946,-2.9394,-2.9333,0.0,-2.8115,-2.8066,0.0,0.0,0.0,0.0,0.0,0.0,0.0,0.0,0.0,0.0,0.0,0.0,0.0,0.0,0.0,0.0,0.0,0.0,0.0,0.0,0.0,0.0,-3.9245,-3.9245,-3.9371,-3.9546,-3.981,-3.8329,-3.6784,-3.6204,-3.5717,-3.5345,0.0,0.0,0.0,0.0,0.0,0.0,-3.7073,-3.9094,-4.0513,-4.0513,-4.0962,-4.1062,-4.0563,-4.0513,-4.0011,-3.8831,-3.8216,-3.7387,-3.6232,-3.5583,0.0,0.0,0.0,0.0,0.0,0.0,0.0,0.0,0.0,0.0,0.0,0.0,0.0,0.0,0.0,0.0,0.0,0.0,0.0,0.0,0.0,0.0,0.0,0.0,0.0,0.0,0.0,0.0,0.0,-1.1512,-1.1437,-1.2239,-1.3723,-1.5188,0.0,0.0,0.0,0.0,0.0,0.0,0.0,0.0,0.0,-2.2235,-2.4778,-2.6518,-2.746,-2.8681,-2.9404,-2.9648,-3.0098,-3.0439,-3.0674,-3.0918,-3.1035,-3.1035,-3.1035,-3.082,-3.0381,-2.915,-2.8535,-2.833,0.0,0.0,0.0,0.0,-2.8331,-2.891,-3.0339,-3.06,-3.0664,-3.3167,0.0,0.0,0.0,0.0,0.0,0.0,0.0,-3.7324,-3.7965,-3.868,-3.9308,-3.9622,-4.0174,-4.0601,-4.0526,-4.0237,-3.9497,-3.7638,-3.7098,-3.6586,-3.5658,-3.5604,0.0,0.0,0.0,-3.7651,-3.7651,-3.9057,-4.0061,-4.0061,-4.0275,-4.0325,-4.0074,-4.0061,-3.9848,-3.9371,-3.8806,-3.8128,-3.7337,-3.6471,-3.5479,0.0,0.0,0.0,0.0,0.0,0.0,0.0,0.0,0.0,0.0,0.0,0.0,0.0,0.0,0.0,0.0,0.0,0.0,0.0,0.0,0.0,0.0,0.0,0.0,0.0,0.0,0.0,0.0,-1.24,-1.2871,-1.3076,-1.4536,-1.5915,0.0,0.0,0.0,0.0,0.0,0.0,-1.8885,-2.0401,-2.2202,-2.4086,-2.6079,-2.7908,-2.9524,-3.0019,-3.0391,-3.0703,-3.1055,-3.1377,-3.1699,-3.2021,-3.2229,-3.2229,-3.2229,-3.2229,-3.2031,-3.0293,-2.9521,-2.9375,-2.8945,-2.8711,-2.8662,-2.8975,-2.9455,-3.0154,-3.1371,-3.1879,-3.2407,-3.4858,-3.5714,-3.5876,-3.6609,0.0,0.0,0.0,0.0,-3.8052,-3.9032,-3.9396,-3.9634,-4.0199,-4.0953,-4.148,-4.1204,-4.1681,-4.1559,-3.9283,-3.8743,-3.8216,-3.6787,-3.6822,0.0,-3.621,-3.7349,-3.8228,-3.8228,-3.9082,-3.9697,-3.9697,-3.9697,-3.9697,-3.9697,-3.9697,-3.9697,-3.9697,-3.9308,-3.8831,-3.8253,-3.7437,-3.642,-3.5165,0.0,0.0,0.0,0.0,0.0,0.0,0.0,0.0,0.0,0.0,0.0,0.0,0.0,0.0,0.0,0.0,0.0,0.0,0.0,0.0,0.0,0.0,0.0,0.0,0.0,0.0,0.0,0.0,0.0,-1.5005,-1.6455,0.0,0.0,0.0,0.0,-1.8424,-1.8698,-1.8878,-1.8918,-2.1154,-2.3214,-2.4961,-2.7449,-2.9587,-3.1327,-3.1816,-3.2111,-3.207,-3.209,-3.218,-3.2139,-3.2219,-3.2229,-3.2229,-3.2229,-3.2229,-3.219,-3.1601,-3.1152,-3.0742,-3.0283,-2.9863,-2.9567,-2.9587,-2.9577,-2.9895,-3.1743,-3.1232,-3.0575,-3.5715,-3.7585,-3.7853,-3.789,-3.7563,0.0,0.0,-3.8743,-3.9697,-4.0287,-4.0827,-4.1354,-4.1949,-4.2137,-4.2301,-4.2748,-4.2539,-4.2011,-4.1238,-4.0752,-4.0199,-3.9584,0.0,-3.8542,-3.7965,-3.8417,-3.8831,-3.8831,-3.9333,-3.9697,-3.9697,-3.9697,-3.9697,-3.9697,-3.9697,-3.9697,-3.9697,-3.9672,-3.9408,-3.8906,-3.8818,-3.8014,-3.6355,-3.5742,0.0,0.0,0.0,0.0,0.0,0.0,0.0,0.0,0.0,0.0,0.0,0.0,0.0,0.0,0.0,0.0,0.0,0.0,0.0,0.0,0.0,0.0,0.0,0.0,0.0,0.0,0.0,0.0,-1.569,-1.694,0.0,-1.8303,-1.8504,-1.8738,-1.9032,-1.9325,-1.9733,-2.0301,-2.1108,-2.2558,-2.4556,-2.6686,-2.8526,-3.0217,-3.1514,-3.2229,-3.2178,-3.2441,-3.2578,-3.2578,-3.2851,-3.2978,-3.2978,-3.2978,-3.2978,-3.2969,-3.2803,-3.2334,-3.1699,-3.1533,-3.1377,-3.124,-3.124,-3.124,-3.1378,-3.2037,-3.182,-3.1907,-3.5768,-3.8389,-4.0097,-4.0097,-4.0011,-3.9898,-4.0047,-4.045,-4.0802,-4.099,-4.1137,-4.1326,-4.158,-4.1907,-4.2263,-4.2451,-4.2627,-4.2622,-4.2434,-4.1668,-4.0811,-4.0325,-4.035,-4.0149,-3.9233,-3.9572,-3.9798,-3.9446,-3.9572,-3.9697,-3.9697,-3.9697,-3.9697,-3.9697,-3.9697,-3.9546,-3.9182,-3.917,-3.8919,-3.8329,-3.7977,-3.7385,-3.643,-3.583,-3.5171,0.0,0.0,0.0,0.0,0.0,0.0,0.0,0.0,0.0,0.0,0.0,0.0,0.0,0.0,0.0,0.0,0.0,0.0,0.0,0.0,0.0,0.0,0.0,0.0,0.0,-1.6413,-1.7154,-1.6646,-1.7595,-1.8464,-1.8758,-1.9052,-1.9339,-1.9639,-2.002,-2.0494,-2.1076,-2.139,-2.2489,-2.4557,-2.5913,-2.763,-2.9933,-3.1159,-3.2003,-3.2598,-3.2871,-3.3008,-3.3018,-3.3301,-3.3418,-3.3418,-3.3418,-3.3418,-3.3418,-3.3418,-3.3096,-3.2578,-3.2441,-3.2295,-3.2229,-3.2229,-3.2229,-3.2289,-3.2794,-3.3315,-3.4118,-3.6676,-3.9213,-4.1288,-4.1288,-4.1288,-4.1288,-4.1288,-4.148,-4.1605,-4.1605,-4.1756,-4.1894,-4.1894,-4.217,-4.2489,-4.2489,-4.2778,-4.2974,-4.2974,-4.2396,-4.1718,-4.1166,-4.1379,-4.1304,-4.0388,-4.0563,-4.0664,-4.03,-4.0249,-4.0249,-4.0249,-4.0086,-3.9973,-3.9973,-3.9634,-3.9346,-3.9157,-3.8793,-3.8492,-3.8304,-3.7764,-3.7199,-3.6694,-3.5918,-3.5044,-3.4173,0.0,0.0,0.0,0.0,0.0,0.0,0.0,0.0,0.0,0.0,0.0,0.0,0.0,0.0,0.0,0.0,0.0,0.0,0.0,0.0,0.0,0.0,0.0,-1.7213,-1.7467,-1.7716,-1.7982,-1.8528,-1.9052,-1.9352,-1.9653,-1.9947,-2.0234,-2.0795,-2.1129,-2.1149,-2.1957,-2.3209,-2.498,-2.5412,-2.7222,-3.0707,-3.0836,-3.1698,-3.3418,-3.3418,-3.3418,-3.3418,-3.3418,-3.3418,-3.3418,-3.3418,-3.3418,-3.3418,-3.3418,-3.3418,-3.3379,-3.2969,-3.2568,-3.2268,-3.2268,-3.2268,-3.2552,-3.402,-3.5518,-3.7075,-3.8612,-4.0166,-4.1338,-4.1338,-4.1338,-4.1338,-4.1338,-4.1769,-4.2238,-4.2238,-4.2627,-4.2974,-4.2974,-4.2974,-4.2974,-4.2974,-4.2974,-4.2974,-4.2974,-4.2974,-4.2798,-4.2326,-4.2238,-4.1995,-4.1388,-4.1313,0.0,-4.1288,-4.1288,-4.1288,-4.1288,-4.0865,-4.0538,-4.0513,-3.9534,-3.9132,-3.9609,-3.8617,-3.8253,-3.8844,-3.8278,-3.7726,-3.7199,-3.6119,-3.5257,-3.4776,0.0,0.0,0.0,0.0,0.0,0.0,0.0,0.0,0.0,0.0,0.0,0.0,0.0,0.0,0.0,0.0,0.0,0.0,0.0,0.0,0.0,-1.7027,-1.7514,-1.7514,-1.7722,-1.8055,-1.8562,-1.9018,-1.9359,-1.9653,-2.014,-2.0555,-2.0848,-2.1216,-2.1617,-2.2038,-2.2285,-2.2714,-2.3466,-2.6067,-2.79,-2.8886,-3.1442,-3.2956,-3.3418,-3.3418,-3.3418,-3.3418,-3.3418,-3.3418,-3.3418,-3.3418,-3.3418,-3.3418,-3.3418,-3.3418,-3.3408,-3.3301,-3.3174,-3.3076,-3.3076,-3.3783,-3.484,-3.5307,-3.7266,-3.9579,-4.0038,-4.1233,-4.2522,-4.2522,-4.2522,-4.2522,-4.2522,-4.2635,-4.2748,-4.2748,-4.2861,-4.2974,-4.2974,-4.2974,-4.2974,-4.2974,-4.2974,-4.2974,-4.2974,-4.2974,-4.2924,-4.2841,-4.2748,-4.2615,-4.202,-4.1932,-4.1781,-4.1338,-4.1288,-4.1288,-4.1288,-4.115,-4.0899,-4.0551,-4.0237,-3.9609,-3.853,-3.8178,-3.7902,-3.7663,-3.75,-3.7337,-3.7186,-3.6496,-3.6056,0.0,0.0,0.0,0.0,0.0,0.0,0.0,0.0,0.0,0.0,0.0,0.0,0.0,0.0,0.0,0.0,0.0,0.0,0.0,0.0,0.0,0.0,-1.7468,-1.7862,-1.811,-1.8303,-1.8535,-1.9052,-1.9479,-1.9846,-2.014,-2.0702,-2.1116,-2.1283,-2.1683,-2.2064,-2.2398,-2.2539,-2.2686,-2.2859,-2.5584,-2.7437,-2.8172,-3.0918,-3.2692,-3.3418,-3.3418,-3.3418,-3.3418,-3.3418,-3.3418,-3.3418,-3.3418,-3.3418,-3.3418,-3.3418,-3.3418,-3.3418,0.0,0.0,0.0,0.0,-3.4974,-3.5979,-3.7363,-3.9041,-4.0707,-4.1362,-4.2263,-4.2974,-4.2974,-4.2974,-4.2974,-4.2974,-4.2974,-4.2974,-4.2974,-4.2974,-4.2974,-4.2974,-4.2974,-4.2974,-4.2974,-4.2974,-4.2974,-4.2974,-4.2974,0.0,-4.2974,-4.2974,-4.2873,-4.2602,-4.2552,-4.2384,-4.207,-4.2032,-4.2032,-4.2032,-4.1819,-4.1555,-4.1229,-4.0576,0.0,0.0,0.0,-3.7864,-3.755,-3.7525,0.0,0.0,0.0,0.0,0.0,0.0,0.0,0.0,-4.0972,-4.1959,0.0,0.0,0.0,0.0,0.0,0.0,0.0,0.0,0.0,0.0,0.0,0.0,0.0,0.0,0.0,0.0,-1.7896,-1.8275,-1.8795,-1.8985,-1.9118,-1.9386,-1.9933,-2.0401,-2.0695,-2.1293,-2.1648,-2.1715,-2.2124,-2.2432,-2.2465,-2.2719,0.0,0.0,0.0,-2.6639,-2.8501,-3.0189,-3.1899,-3.3418,-3.3418,-3.3418,-3.3418,-3.3418,-3.3418,-3.3418,-3.3418,-3.3418,-3.3418,-3.3418,-3.3418,-3.3418,-3.3418,-3.3544,-3.3839,-3.5263,-3.604,-3.6699,-3.9394,0.0,0.0,-4.2319,-4.2849,-4.2974,-4.2974,-4.2974,-4.2974,-4.2974,-4.2974,-4.2974,-4.2974,-4.2974,-4.2974,-4.2974,-4.2974,-4.2974,-4.2974,-4.2974,-4.2974,-4.2974,-4.2974,-4.2974,-4.2974,-4.2974,-4.2974,-4.2974,-4.2974,-4.2974,-4.2974,-4.2974,-4.2974,-4.2974,-4.259,0.0,-4.2213,-4.0752,-4.0036,-4.04,-3.8969,-3.8103,-3.8103,-3.8165,-3.8165,-3.8103,-3.8103,-3.814,-3.8203,-4.0475,-4.1442,-4.1201,-4.2618,-4.3791,0.0,0.0,0.0,0.0,0.0,0.0,0.0,0.0,0.0,0.0,0.0,0.0,0.0,0.0,0.0,-1.7562,-1.8243,-1.8791,-1.8911,-1.9332,-1.9653,-1.9706,-2.0234,-2.0702,-2.0995,-2.1349,-2.175,-2.2218,-2.2352,-2.2525,-2.2766,-2.2832,-2.3522,-2.4986,-2.6706,-2.8492,-3.0254,-3.2036,-3.3092,-3.3418,-3.3418,0.0,-3.3418,-3.3418,-3.3418,-3.3418,-3.3418,-3.3418,-3.3418,-3.3418,-3.3418,-3.3418,-3.3418,-3.4195,-3.5386,-3.5683,-3.7413,-3.9581,-3.8876,-4.0361,-4.2375,-4.1362,-4.1955,-4.2974,-4.2974,-4.2974,0.0,-4.2974,-4.2974,-4.2974,-4.2974,-4.2974,-4.2974,-4.2974,-4.2974,-4.2974,-4.2974,-4.2974,-4.2974,-4.2974,-4.2974,-4.2974,-4.2974,-4.2974,-4.2974,-4.2974,-4.2974,-4.2974,-4.2974,-4.2974,-4.2974,-4.2974,-4.2942,-4.269,-4.225,-4.1455,-4.0689,-3.9898,-3.9132,-3.8705,-3.8705,-3.9132,-3.9157,-3.8718,-3.8705,-3.8919,-3.9371,-4.0865,-4.2026,-4.2805,-4.5214,-4.5698,0.0,0.0,0.0,0.0,0.0,0.0,0.0,0.0,0.0,0.0,0.0,-1.6851,-1.7088,0.0,-1.7022,-1.8094,-1.7933,-1.8084,-1.9203,-1.974,-2.0013,-2.0013,-2.0408,-2.0848,-2.1289,-2.1597,-2.1951,-2.2385,-2.2559,-2.2706,-2.2921,-2.3727,-2.4588,-2.5442,-2.8089,-2.993,-3.0771,-3.2556,-3.3418,-3.3418,-3.3418,-3.3418,-3.3418,-3.3418,-3.3418,-3.3418,-3.3418,-3.3418,-3.3418,-3.3418,-3.3418,-3.3418,-3.3418,-3.3902,-3.4674,-3.5509,-3.682,-3.8201,-3.8212,-3.9768,-4.1659,-4.0892,-4.1672,-4.2974,-4.2974,-4.2974,-4.2974,-4.2974,-4.2974,-4.2974,-4.2974,-4.2974,-4.2974,-4.2974,-4.2974,-4.2974,-4.2974,-4.2974,-4.2974,-4.2974,-4.2974,-4.2974,-4.2974,-4.2974,-4.2974,-4.2974,-4.2974,-4.2974,-4.2974,-4.2974,-4.2974,-4.2974,-4.2974,-4.2861,-4.264,-4.207,-4.1279,-4.0174,-3.9848,-3.9697,-3.9697,-3.9697,-3.9559,-3.9295,-3.9546,-3.9835,-4.0111,-4.1296,-4.2502,-4.3768,-4.535,-4.5829,0.0,0.0,0.0,0.0,0.0,0.0,0.0,-1.5838,-1.6152,-1.6442,-1.6965,-1.7395,-1.7629,-1.6917,-1.6802,-1.828,-1.7465,-1.7312,-1.9133,-1.9637,-1.9942,-2.0253,-2.0628,-2.1119,-2.1648,-2.1897,-2.2191,-2.2485,-2.2726,-2.2928,-2.2928,-2.452,-2.5644,-2.5979,-2.9131,-3.0964,-3.1304,-3.2692,-3.3418,-3.3418,-3.3418,-3.3418,-3.3418,-3.3418,-3.3418,-3.3418,-3.3418,-3.3418,-3.3418,-3.3418,-3.3418,-3.3418,-3.3418,-3.3418,-3.3597,-3.5211,-3.599,-3.6406,-3.7374,-3.8982,-4.0534,-4.0245,-4.1431,-4.2974,-4.2974,-4.2974,-4.2974,-4.2974,-4.2974,-4.2974,-4.2974,-4.2974,-4.2974,-4.2974,-4.2974,-4.2974,-4.2974,-4.2974,-4.2974,-4.2974,-4.2974,-4.2974,-4.2974,-4.2974,-4.2974,-4.2974,-4.2974,-4.2974,-4.2974,-4.2974,-4.2974,-4.2974,-4.2974,-4.2936,-4.2823,-4.2464,-4.1785,-4.0739,-4.0676,-4.0676,-4.0676,-4.0249,-4.0011,-4.0011,-4.045,-4.0727,-4.084,-4.1773,-4.2825,-4.3964,-4.4421,-4.505,-1.5266,-1.5592,-1.546,-1.392,-1.4559,-1.567,0.0,-1.6656,-1.7058,-1.7092,-1.7528,-1.7902,-1.7935,-1.8278,-1.823,-1.7183,-1.7061,-1.7313,-1.7783,-1.8111,-1.8907,-2.0436,-2.1179,-2.1648,-2.1904,-2.2198,-2.2492,-2.2792,-2.2914,-2.2928,-2.2928,-2.452,-2.6247,-2.7842,-2.9791,-3.157,-3.3092,-3.3292,-3.3418,-3.3418,-3.3418,-3.3418,-3.3418,-3.3418,-3.3418,-3.3418,-3.3418,-3.3418,-3.3418,-3.3418,-3.3418,-3.3418,-3.3418,-3.3418,-3.3597,-3.5211,-3.671,-3.7735,-3.6528,-3.8082,-4.0361,-3.8935,-4.0534,-4.2974,-4.2974,-4.2974,-4.2974,-4.2974,-4.2974,-4.2974,-4.2974,-4.2974,-4.2974,-4.2974,-4.2974,-4.2974,-4.2974,-4.2974,-4.2974,-4.2974,-4.2974,-4.2974,-4.2974,-4.2974,-4.2974,-4.2974,-4.2974,-4.2974,-4.2974,-4.2974,-4.2974,-4.2974,-4.2974,-4.2841,-4.2338,-4.2238,-4.1894,-4.1225,-4.12,-4.12,-4.12,-4.1137,-4.11,-4.11,-4.1163,-4.148,-4.2024,-4.215,-4.2506,-4.3151,-4.3215,-4.3936,-1.3538,-1.3877,-1.4076,-1.3384,-1.4583,-1.6019,-1.6433,-1.7488,-1.8404,-1.8583,-1.9443,-2.0001,-1.9546,-1.9077,-1.837,-1.725,-1.6497,-1.649,-1.7739,-1.7997,-1.8817,-2.0714,-2.145,-2.185,-2.1977,-2.2251,-2.2539,-2.2839,-2.2928,-2.2928,-2.2928,-2.5517,-2.7445,-2.8172,-3.0854,-3.2692,-3.3418,-3.3418,-3.3418,-3.3418,-3.3418,-3.3418,-3.3418,-3.3418,-3.3418,-3.3418,-3.3418,-3.3418,-3.3418,-3.3418,-3.3418,-3.3418,-3.3418,-3.3418,-3.3481,-3.4143,-3.4798,-3.5283,-3.4612,-3.6539,-3.9111,-3.8402,-4.0361,-4.2974,-4.2974,-4.2974,-4.2974,-4.2974,-4.2974,-4.2974,-4.2974,-4.2974,-4.2974,-4.2974,-4.2974,-4.2974,-4.2974,-4.2974,-4.2974,-4.2974,-4.2974,-4.2974,-4.2974,-4.2974,-4.2974,-4.2974,-4.2974,-4.2974,-4.2974,-4.2974,-4.2974,-4.2974,-4.2974,-4.2748,-4.2263,-4.2502,-4.2396,-4.1844,-4.1806,-4.1806,-4.1806,-4.1517,-4.1288,-4.1288,-4.1643,-4.1932,-4.2213,-4.2527,-4.2748,-4.2974,-4.2974,-4.3283,-1.1899,-1.2443,-1.3123,-1.3194,-1.5029,-1.6919,-1.7174,-1.8627,-1.9945,-2.0133,-2.107,-2.1533,-2.0664,-1.9515,-1.8186,-1.682,-1.551,-1.5172,-1.6599,-1.6763,-1.7684,-2.0215,-2.0941,-2.1476,-2.2031,-2.2372,-2.2632,-2.2846,-2.2928,-2.3126,-2.359,-2.6514,-2.8435,-2.8886,-3.1845,-3.3418,-3.3418,-3.3418,-3.3418,-3.3418,-3.3418,-3.3418,-3.3418,-3.3418,-3.3418,-3.3418,-3.3418,-3.3418,-3.3418,-3.3418,-3.3418,-3.3418,-3.3418,-3.3418,-3.3418,-3.3418,-3.3418,-3.3418,-3.3418,-3.553,-3.8223,-3.8223,-4.0361,-4.2974,-4.2974,-4.2974,-4.2974,-4.2974,-4.2974,-4.2974,-4.2974,-4.2974,-4.2974,-4.2974,-4.2974,-4.2974,-4.2974,-4.2974,-4.2974,-4.2974,-4.2974,-4.2974,-4.2974,-4.2974,-4.2974,-4.2974,-4.2974,-4.2974,-4.2974,-4.2974,-4.2974,-4.2974,-4.2974,-4.2811,-4.2476,-4.2803,-4.2798,-4.2464,-4.2439,-4.2439,-4.2439,-4.2007,-4.1794,-4.1794,-4.2183,-4.2439,-4.2439,-4.2841,-4.2974,-4.303,-4.3394,-4.3547,-1.0631,-1.169,-1.288,-1.3146,-1.5758,-1.83,-1.8574,-2.0187,-2.1634,-2.1651,-2.1897,-2.1736,-2.0709,-1.957,-1.7985,-1.5468,-1.3861,-1.3105,-1.3417,-1.3443,-1.4819,-1.8592,-1.9315,-2.0257,-2.217,-2.2672,-2.2921,-2.2928,-2.2928,-2.3659,-2.5315,-2.7172,-2.8952,-3.0642,-3.2492,-3.3418,-3.3418,-3.3418,-3.3418,-3.3418,-3.3418,-3.3418,-3.3418,-3.3418,-3.3418,-3.3418,-3.3418,-3.3418,-3.3418,-3.3418,-3.3418,-3.3418,-3.3418,-3.3418,-3.3418,-3.3418,-3.3418,-3.3418,-3.3418,-3.553,-3.8223,-3.8223,-4.0361,-4.2974,-4.2974,-4.2974,-4.2974,-4.2974,-4.2974,-4.2974,-4.2974,-4.2974,-4.2974,-4.2974,-4.2974,-4.2974,-4.2974,-4.2974,-4.2974,-4.2974,-4.2974,-4.2974,-4.2974,-4.2974,-4.2974,-4.2974,-4.2974,-4.2974,-4.2974,-4.2974,-4.2974,-4.2974,-4.2974,-4.2974,-4.2949,-4.2974,-4.2974,-4.2949,-4.2949,-4.2949,-4.2949,-4.2936,-4.2924,-4.2924,-4.2949,-4.2949,-4.2949,-4.2974,-4.2974,-4.303,-4.4318,-4.4941,-1.0375,-1.1232,-1.2135,-1.3006,-1.5906,-1.8611,-1.8675,-2.1565,-2.4214,-2.4214,-2.5693,-2.6356,-2.4472,-2.3417,-2.1335,-1.68,-1.5249,-1.4327,-1.3426,-1.4476,-1.6232,-1.8686,-2.0418,-2.1689,-2.2338,-2.2686,-2.2928,-2.2928,-2.2928,-2.3659,-2.5383,-2.7246,-2.9017,-3.0707,-3.2492,-3.3418,-3.3418,-3.3418,-3.3418,-3.3418,-3.3418,-3.3418,-3.3418,-3.3418,-3.3418,-3.3418,-3.3418,-3.3418,-3.3418,-3.3418,-3.3418,-3.3418,-3.3418,-3.3418,-3.3418,-3.3418,-3.3418,-3.3418,-3.3418,-3.4798,-3.6771,-3.7854,-3.9639,-4.1602,-4.2681,-4.2974,-4.2974,-4.2974,-4.2974,-4.2974,-4.2974,-4.2974,-4.2974,-4.2974,-4.2974,-4.2974,-4.2974,-4.2974,-4.2974,-4.2974,-4.2974,-4.2974,-4.2974,-4.2974,-4.2974,-4.2974,-4.2974,-4.2974,-4.2974,-4.2974,-4.2974,-4.2974,-4.2974,-4.2974,-4.2974,-4.2974,-4.2974,-4.2974,-4.2974,-4.2974,-4.2974,-4.2974,-4.2974,-4.2974,-4.2974,-4.2974,-4.2974,-4.2974,-4.2974,-4.303,-4.4372,-4.4535,-1.0294,-1.1129,-1.2021,-1.4126,-1.6947,-1.9445,-2.0495,-2.3472,-2.6182,-2.675,-2.8233,-2.8721,-2.6428,-2.4814,-2.2504,-1.8248,-1.5866,-1.429,-1.3454,-1.4581,-1.6175,-1.8078,-2.0142,-2.1765,-2.2498,-2.2752,-2.2928,-2.2928,-2.2928,-2.3924,-2.6314,-2.7569,-2.9279,-3.1634,-3.2829,-3.3418,-3.3418,-3.3418,-3.3418,-3.3418,-3.3418,-3.3418,-3.3418,-3.3418,-3.3418,-3.3418,-3.3418,-3.3418,-3.3418,-3.3418,-3.3418,-3.3418,-3.3418,-3.3418,-3.3418,-3.3418,-3.3418,-3.3418,-3.3418,-3.4435,-3.604,-3.7675,-3.9288,-4.0892,-4.25,-4.2974,-4.2974,-4.2974,-4.2974,-4.2974,-4.2974,-4.2974,-4.2974,-4.2974,-4.2974,-4.2974,-4.2974,-4.2974,-4.2974,-4.2974,-4.2974,-4.2974,-4.2974,-4.2974,-4.2974,-4.2974,-4.2974,-4.2974,-4.2974,-4.2974,-4.2974,-4.2974,-4.2974,-4.2974,-4.2974,-4.2974,-4.2974,-4.2974,-4.2974,-4.2974,-4.2974,-4.2974,-4.2974,-4.2974,-4.2974,-4.2974,-4.2974,-4.2974,-4.2974,-4.303,-4.4887,-4.5302,-1.0347,-1.1337,-1.2523,-1.6252,-1.8672,-2.0865,-2.3739,-2.5768,-2.7494,-2.9169,-2.9498,-2.8814,-2.6594,-2.4094,-2.168,-1.9603,-1.5747,-1.3124,-1.349,-1.3754,-1.4702,-1.6795,-1.8777,-2.0743,-2.2696,-2.2928,-2.2928,-2.2928,-2.2996,-2.4527,-2.804,-2.8303,-2.9874,-3.3292,-3.3418,-3.3418,-3.3418,-3.3418,-3.3418,-3.3418,-3.3418,-3.3418,-3.3418,-3.3418,-3.3418,-3.3418,-3.3418,-3.3418,-3.3418,-3.3418,-3.3418,-3.3418,-3.3418,-3.3418,-3.3418,-3.3418,-3.3418,-3.3418,-3.3481,-3.4487,-3.604,-3.7675,-3.9288,-4.0892,-4.25,-4.2974,-4.2974,-4.2974,-4.2974,-4.2974,-4.2974,-4.2974,-4.2974,-4.2974,-4.2974,-4.2974,-4.2974,-4.2974,-4.2974,-4.2974,-4.2974,-4.2974,-4.2974,-4.2974,-4.2974,-4.2974,-4.2974,-4.2974,-4.2974,-4.2974,-4.2974,-4.2974,-4.2974,-4.2974,-4.2974,-4.2974,-4.2974,-4.2974,-4.2974,-4.2974,-4.2974,-4.2974,-4.2974,-4.2974,-4.2974,-4.2974,-4.2974,-4.3085,-4.3085,-4.3184,-4.5912,-4.7146,-1.0647,-1.2099,-1.3779,-1.6543,-1.89,-2.1285,-2.3806,-2.6672,-2.9113,-3.0461,-3.0721,-3.0294,-2.8825,-2.6141,-2.3336,-2.0808,-1.7368,-1.4642,-1.3641,-1.5059,-1.6377,-1.6899,-2.0039,-2.2287,-2.2853,-2.2928,-2.2928,-2.2928,-2.4121,-2.5853,-2.8106,-2.9409,-3.1111,-3.3355,-3.3418,-3.3418,-3.3418,-3.3418,-3.3418,-3.3418,-3.3418,-3.3418,-3.3418,-3.3418,-3.3418,-3.3418,-3.3418,-3.3418,-3.3418,-3.3418,-3.3418,-3.3418,-3.3418,-3.3418,-3.3418,-3.3418,-3.3418,-3.3597,-3.4788,-3.5448,-3.604,-3.7675,-3.9288,-4.0892,-4.25,-4.2974,-4.2974,-4.2974,-4.2974,-4.2974,-4.2974,-4.2974,-4.2974,-4.2974,-4.2974,-4.2974,-4.2974,-4.2974,-4.2974,-4.2974,-4.2974,-4.2974,-4.2974,-4.2974,-4.2974,-4.2974,-4.2974,-4.2974,-4.2974,-4.2974,-4.2974,-4.2974,-4.2974,-4.2974,-4.2974,-4.2974,-4.2974,-4.2974,-4.2974,-4.2974,-4.2974,-4.2974,-4.2974,-4.2974,-4.2974,-4.2974,-4.2974,-4.4016,-4.4481,-4.4576,-4.735,-4.8074,-1.0979,-1.249,-1.4484,-1.7681,-1.9495,-2.1517,-2.5417,-2.7791,-2.9692,-3.1641,-3.1589,-3.081,-2.9636,-2.6775,-2.4038,-2.2249,-1.9006,-1.6312,-1.4942,-1.676,-1.7914,-1.7189,-2.0521,-2.2928,-2.2928,-2.2928,-2.3195,-2.3992,-2.4918,-2.6314,-2.8106,-2.9856,-3.1634,-3.3355,-3.3418,-3.3418,-3.3418,-3.3418,-3.3418,-3.3418,-3.3418,-3.3418,-3.3418,-3.3418,-3.3418,-3.3418,-3.3418,-3.3418,-3.3418,-3.3418,-3.3418,-3.3418,-3.3418,-3.3418,-3.3418,-3.3418,-3.3418,-3.3597,-3.5273,-3.6284,-3.7133,-3.8746,-3.9884,-4.0892,-4.25,-4.2974,-4.2974,-4.2974,-4.2974,-4.2974,-4.2974,-4.2974,-4.2974,-4.2974,-4.2974,-4.2974,-4.2974,-4.2974,-4.2974,-4.2974,-4.2974,-4.2974,-4.2974,-4.2974,-4.2974,-4.2974,-4.2974,-4.2974,-4.2974,-4.2974,-4.2974,-4.2974,-4.2974,-4.2974,-4.2974,-4.2974,-4.2974,-4.2974,-4.2974,-4.2974,-4.2974,-4.2974,-4.2974,-4.2974,-4.2974,-4.2974,-4.2974,-4.4372,-4.4994,-4.5102,-4.7873,-4.8802,-1.1363,-1.2844,-1.5023,-1.9113,-2.0185,-2.1748,-2.7495,-2.8701,-2.9452,-3.2284,-3.1689,-3.0406,-2.9361,-2.6438,-2.4059,-2.3484,-2.0453,-1.7791,-1.6892,-1.8473,-1.9204,-1.7788,-2.0756,-2.2928,-2.2928,-2.2928,-2.359,-2.5383,-2.5711,-2.6639,-2.8427,-3.0189,-3.1835,-3.3355,-3.3418,-3.3418,-3.3418,-3.3418,-3.3418,-3.3418,-3.3418,-3.3418,-3.3418,-3.3418,-3.3418,-3.3418,-3.3418,-3.3418,-3.3418,-3.3418,-3.3418,-3.3418,-3.3418,-3.3418,-3.3418,-3.3418,-3.3544,-3.3955,-3.5571,-3.7194,-3.8757,-4.0175,-4.0719,-4.1191,-4.2557,-4.2974,-4.2974,-4.2974,-4.2974,-4.2974,-4.2974,-4.2974,-4.2974,-4.2974,-4.2974,-4.2974,-4.2974,-4.2974,-4.2974,-4.2974,-4.2974,-4.2974,-4.2974,-4.2974,-4.2974,-4.2974,-4.2974,-4.2974,-4.2974,-4.2974,-4.2974,-4.2974,-4.2974,-4.2974,-4.2974,-4.2974,-4.2974,-4.2974,-4.2974,-4.2974,-4.2974,-4.2974,-4.2974,-4.2974,-4.2974,-4.3085,-4.3295,-4.463,-4.5356,-4.5608,-4.8225,-4.947,-1.1643,-1.3712,-1.6553,-1.9382,-2.0566,-2.2364,-2.7601,-2.8287,-2.8547,-3.1033,-2.9772,-2.8179,-2.7955,-2.5349,-2.3264,-2.3366,-2.0503,-1.8389,-1.8667,-1.9229,-1.9626,-1.9606,-2.1527,-2.2928,-2.2928,-2.2928,-2.359,-2.5383,-2.6906,-2.8492,-3.0254,-3.2027,-3.3092,-3.3418,-3.3418,-3.3418,-3.3418,-3.3418,-3.3418,-3.3418,-3.3418,-3.3418,-3.3418,-3.3418,-3.3418,-3.3418,-3.3418,-3.3418,-3.3418,-3.3418,-3.3418,-3.3418,-3.3418,-3.3418,-3.3418,-3.3418,-3.4258,-3.5622,-3.7254,-3.8817,-4.0233,-4.0534,-4.1488,-4.2625,-4.2918,-4.2974,-4.2974,-4.2974,-4.2974,-4.2974,-4.2974,-4.2974,-4.2974,-4.2974,-4.2974,-4.2974,-4.2974,-4.2974,-4.2974,-4.2974,-4.2974,-4.2974,-4.2974,-4.2974,-4.2974,-4.2974,-4.2974,-4.2974,-4.2974,-4.2974,-4.2974,-4.2974,-4.2974,-4.2974,-4.2974,-4.2974,-4.2974,-4.2974,-4.2974,-4.2974,-4.2974,-4.2974,-4.2974,-4.2974,-4.2974,-4.3547,-4.4684,-4.6069,-4.7299,-4.8489,-5.0128,-5.0855,-1.2872,-1.524,-1.8072,-2.0151,-2.1482,-2.3356,-2.7288,-2.7889,-2.8085,-2.9909,-2.8855,-2.7379,-2.6652,-2.4422,-2.2586,-2.2157,-2.0653,-1.9407,-1.9011,-2.0166,-2.0805,-2.0166,-2.1741,-2.2928,-2.2928,-2.3727,-2.4986,-2.6781,-2.855,-2.993,-3.0771,-3.2428,-3.3418,-3.3418,-3.3418,-3.3418,-3.3418,-3.3418,-3.3418,-3.3418,-3.3418,-3.3418,-3.3418,-3.3418,-3.3418,-3.3418,-3.3418,-3.3418,-3.3418,-3.3418,-3.3418,-3.3418,-3.3418,-3.3418,-3.3418,-3.3418,-3.4435,-3.6051,-3.7615,-3.9229,-4.0719,-4.1602,-4.2375,-4.2974,-4.2974,-4.2974,-4.2974,-4.2974,-4.2974,-4.2974,-4.2974,-4.2974,-4.2974,-4.2974,-4.2974,-4.2974,-4.2974,-4.2974,-4.2974,-4.2974,-4.2974,-4.2974,-4.2974,-4.2974,-4.2974,-4.2974,-4.2974,-4.2974,-4.2974,-4.2974,-4.2974,-4.2974,-4.2974,-4.2974,-4.2974,-4.2974,-4.2974,-4.2974,-4.2974,-4.2974,-4.2974,-4.2974,-4.2974,-4.2974,-4.2974,-4.3645,-4.4994,-4.6435,-4.7822,-4.921,-5.0603,-5.1214,-1.3612,-1.6312,-1.9208,-2.0786,-2.2313,-2.4139,-2.6975,-2.74,-2.7542,-2.8773,-2.8038,-2.6761,-2.5363,-2.3699,-2.2167,-2.1088,-2.0708,-2.0296,-1.9415,-2.1046,-2.1906,-2.0857,-2.2022,-2.3065,-2.3393,-2.4723,-2.6439,-2.8558,-3.0393,-3.1368,-3.1368,-3.2692,-3.3418,-3.3418,-3.3418,-3.3418,-3.3418,-3.3418,-3.3418,-3.3418,-3.3418,-3.3418,-3.3418,-3.3418,-3.3418,-3.3418,-3.3418,-3.3418,-3.3418,-3.3418,-3.3418,-3.3418,-3.3418,-3.3418,-3.3418,-3.3776,-3.4912,-3.6528,-3.8153,-3.9768,-4.1305,-4.2613,-4.2974,-4.2974,-4.2974,-4.2974,-4.2974,-4.2974,-4.2974,-4.2974,-4.2974,-4.2974,-4.2974,-4.2974,-4.2974,-4.2974,-4.2974,-4.2974,-4.2974,-4.2974,-4.2974,-4.2974,-4.2974,-4.2974,-4.2974,-4.2974,-4.2974,-4.2974,-4.2974,-4.2974,-4.2974,-4.2974,-4.2974,-4.2974,-4.2974,-4.2974,-4.2974,-4.2974,-4.2974,-4.2974,-4.2974,-4.2974,-4.2974,-4.2974,-4.3295,-4.4113,-4.5449,-4.6837,-4.8275,-4.9664,-5.0698,-5.1214,-1.2528,-1.5808,-1.9498,-2.0851,-2.2455,-2.4377,-2.6999,-2.6706,-2.6245,-2.7494,-2.6754,-2.546,-2.4128,-2.3135,-2.2167,-2.1088,-2.0527,-2.0506,-2.1237,-2.1758,-2.2165,-2.2587,-2.2791,-2.3529,-2.5113,-2.5383,-2.6898,-3.0319,-3.2164,-3.3155,-3.3155,-3.3292,-3.3418,-3.3418,-3.3418,-3.3418,-3.3418,-3.3418,-3.3418,-3.3418,-3.3418,-3.3418,-3.3418,-3.3418,-3.3418,-3.3418,-3.3418,-3.3418,-3.3418,-3.3418,-3.3418,-3.3418,-3.3418,-3.3418,-3.3597,-3.5026,-3.6589,-3.8212,-3.9826,-4.1431,-4.2793,-4.2974,-4.2974,-4.2974,-4.2974,-4.2974,-4.2974,-4.2974,-4.2974,-4.2974,-4.2974,-4.2974,-4.2974,-4.2974,-4.2974,-4.2974,-4.2974,-4.2974,-4.2974,-4.2974,-4.2974,-4.2974,-4.2974,-4.2974,-4.2974,-4.2974,-4.2974,-4.2974,-4.2974,-4.2974,-4.2974,-4.2974,-4.2974,-4.2974,-4.2974,-4.2974,-4.2974,-4.2974,-4.2974,-4.2974,-4.2974,-4.2974,-4.2974,-4.2974,-4.4222,-4.5502,-4.6888,-4.8339,-4.9727,-5.1011,-5.112,-5.1214,-1.3715,-1.7262,-2.0841,-2.1378,-2.3219,-2.5157,-2.6235,-2.6062,-2.583,-2.6332,-2.6062,-2.5106,-2.3089,-2.262,-2.2167,-2.1199,-2.0557,-2.0713,-2.2171,-2.2144,-2.2138,-2.2545,-2.3676,-2.4716,-2.545,-2.7421,-2.9726,-3.2164,-3.3019,-3.3418,-3.3418,-3.3418,-3.3418,-3.3418,-3.3418,-3.3418,-3.3418,-3.3418,-3.3418,-3.3418,-3.3418,-3.3418,-3.3418,-3.3418,-3.3418,-3.3418,-3.3418,-3.3418,-3.3418,-3.3418,-3.3418,-3.3418,-3.3418,-3.3418,-3.3597,-3.5211,-3.6831,-3.8461,-4.0059,-4.1659,-4.2974,-4.2974,-4.2974,-4.2974,-4.2974,-4.2974,-4.2974,-4.2974,-4.2974,-4.2974,-4.2974,-4.2974,-4.2974,-4.2974,-4.2974,-4.2974,-4.2974,-4.2974,-4.2974,-4.2974,-4.2974,-4.2974,-4.2974,-4.2974,-4.2974,-4.2974,-4.2974,-4.2974,-4.2974,-4.2974,-4.2974,-4.2974,-4.2974,-4.2974,-4.2974,-4.2974,-4.2974,-4.2974,-4.2974,-4.2974,-4.2974,-4.2974,-4.3394,-4.4167,-4.4738,-4.6122,-4.8389,-4.895,-4.9873,-5.1214,-5.1214,-5.1214,-1.4763,-1.8004,-2.1092,-2.1092,-2.2826,-2.451,-2.451,-2.4815,-2.5128,-2.5128,-2.5537,-2.5147,-2.2585,-2.2441,-2.2341,-2.1277,-2.1017,-2.1406,-2.2732,-2.2801,-2.2606,-2.2452,-2.4259,-2.5711,-2.6247,-2.9466,-3.2091,-3.3292,-3.3418,-3.3418,-3.3418,-3.3418,-3.3418,-3.3418,-3.3418,-3.3418,-3.3418,-3.3418,-3.3418,-3.3418,-3.3418,-3.3418,-3.3418,-3.3418,-3.3418,-3.3418,-3.3418,-3.3418,-3.3418,-3.3418,-3.3418,-3.3418,-3.3418,-3.3418,-3.3597,-3.5211,-3.6831,-3.8342,-3.9522,-4.1248,-4.2918,-4.2432,-4.2613,-4.2974,-4.2974,-4.2974,-4.2974,-4.2974,-4.2974,-4.2974,-4.2974,-4.2974,-4.2974,-4.2974,-4.2974,-4.2974,-4.2974,-4.2974,-4.2974,-4.2974,-4.2974,-4.2974,-4.2974,-4.2974,-4.2974,-4.2974,-4.2974,-4.2974,-4.2974,-4.2974,-4.2974,-4.2974,-4.2974,-4.2974,-4.2974,-4.2974,-4.2974,-4.2974,-4.2974,-4.2974,-4.2974,-4.3394,-4.4071,-4.4994,-4.582,-4.7197,-4.921,-4.9616,-5.0287,-5.1214,-5.1214,-5.1214,-1.5132,-1.7367,-1.9627,-1.9627,-2.0692,-2.1752,-2.1752,-2.2767,-2.3741,-2.3741,-2.5145,-2.5497,-2.2635,-2.27,-2.2747,-2.1433,-2.2052,-2.2707,-2.2854,-2.3736,-2.3891,-2.2579,-2.4259,-2.618,-2.7974,-3.1322,-3.3355,-3.3418,-3.3418,-3.3418,-3.3418,-3.3418,-3.3418,-3.3418,-3.3418,-3.3418,-3.3418,-3.3418,-3.3418,-3.3418,-3.3418,-3.3418,-3.3418,-3.3418,-3.3418,-3.3418,-3.3418,-3.3418,-3.3418,-3.3418,-3.3418,-3.3418,-3.3418,-3.3418,-3.3597,-3.5211,-3.6831,-3.8223,-3.8223,-4.0303,-4.2737,-4.1133,-4.1728,-4.2974,-4.2974,-4.2974,-4.2974,-4.2974,-4.2974,-4.2974,-4.2974,-4.2974,-4.2974,-4.2974,-4.2974,-4.2974,-4.2974,-4.2974,-4.2974,-4.2974,-4.2974,-4.2974,-4.2974,-4.2974,-4.2974,-4.2974,-4.2974,-4.2974,-4.2974,-4.2974,-4.2974,-4.2974,-4.2974,-4.2974,-4.2974,-4.2974,-4.2974,-4.2974,-4.2974,-4.2974,-4.2974,-4.4277,-4.4994,-4.4994,-4.7721,-4.9161,-4.921,-5.054,-5.1167,-5.1214,-5.1214,-5.1214,-1.5288,-1.7403,-1.9576,-1.9576,-2.0641,-2.1702,-2.1702,-2.2717,-2.3764,-2.4025,-2.5343,-2.598,-2.4614,-2.373,-2.3239,-2.3328,-2.2002,-2.1814,-2.4204,-2.4531,-2.4316,-2.3847,-2.5901,-2.8492,-3.1451,-3.2765,-3.3418,-3.3418,-3.3418,-3.3418,-3.3418,-3.3418,-3.3418,-3.3418,-3.3418,-3.3418,-3.3418,-3.3418,-3.3418,-3.3418,-3.3418,-3.3418,-3.3418,-3.3418,-3.3418,-3.3418,-3.3418,-3.3418,-3.3418,-3.3418,-3.3418,-3.3418,-3.3418,-3.3418,-3.3597,-3.5211,-3.6101,-3.6892,-3.91,-4.0534,-4.1488,-4.2024,-4.2557,-4.2974,-4.2974,-4.2974,-4.2974,-4.2974,-4.2974,-4.2974,-4.2974,-4.2974,-4.2974,-4.2974,-4.2974,-4.2974,-4.2974,-4.2974,-4.2974,-4.2974,-4.2974,-4.2974,-4.2974,-4.2974,-4.2974,-4.2974,-4.2974,-4.2974,-4.2974,-4.2974,-4.2974,-4.2974,-4.2974,-4.2974,-4.2974,-4.2974,-4.2974,-4.2974,-4.2974,-4.2974,-4.2974,-4.4264,-4.5449,-4.6435,-4.8275,-4.9664,-5.0555,-5.1011,-5.1214,-5.1214,-5.1214,-5.1214,-1.6337,-1.7903,-1.9472,-1.8961,-1.9524,-2.0128,-2.0128,-2.1716,-2.3265,-2.3502,-2.5317,-2.6602,-2.5572,-2.4806,-2.4289,-2.4276,-2.2994,-2.2512,-2.4144,-2.5031,-2.5839,-2.6737,-2.8209,-3.0263,-3.3155,-3.3418,-3.3418,-3.3418,-3.3418,-3.3418,-3.3418,-3.3418,-3.3418,-3.3418,-3.3418,-3.3418,-3.3418,-3.3418,-3.3418,-3.3418,-3.3418,-3.3713,-3.4248,-3.366,-3.408,-3.516,-3.3902,-3.3713,0.0,-3.366,-3.3418,-3.3418,-3.3418,-3.3418,-3.3534,-3.456,-3.5263,-3.6101,-3.8071,-3.9569,-4.0777,-4.1785,-4.25,-4.2974,-4.2974,-4.2974,-4.2974,-4.2974,-4.2974,-4.2974,-4.2974,-4.2974,-4.2974,-4.2974,-4.2974,-4.2974,-4.2974,-4.2974,-4.2974,-4.2974,-4.2974,-4.2974,-4.2974,-4.2974,-4.2974,-4.2974,-4.2974,-4.2974,-4.2974,-4.2974,-4.2974,-4.2974,-4.2974,-4.2974,-4.2974,-4.2974,-4.2974,-4.2974,-4.2974,-4.324,-4.3755,-4.5102,-4.6435,-4.7873,-4.9259,-5.0397,-5.1214,-5.1214,-5.1214,-5.1167,-5.0698,-5.0445,0.0,-1.8708,-1.9324,-1.8042,-1.7687,-1.7582,-1.7582,-2.0023,0.0,-2.2349,-2.5188,-2.7251,-2.5896,-2.5919,-2.5741,-2.4725,-2.4763,-2.4515,-2.3422,-2.5491,-2.8056,-3.0681,-3.0771,-3.1368,-3.3219,-3.3418,-3.3418,-3.3418,-3.3418,-3.3418,-3.3418,-3.3418,-3.3418,-3.3418,-3.3418,-3.3418,-3.3418,-3.3418,-3.3418,-3.3418,-3.3544,-3.4373,-3.5745,-3.4383,-3.5345,-3.8045,-3.4922,-3.4435,-3.5683,-3.408,-3.3418,-3.3418,-3.3418,-3.3418,-3.3418,-3.3418,-3.4373,-3.5683,-3.5867,-3.7903,-4.0476,-4.0719,-4.1785,-4.2974,-4.2974,-4.2974,-4.2974,-4.2974,-4.2974,-4.2974,-4.2974,-4.2974,-4.2974,-4.2974,-4.2974,-4.2974,-4.2974,-4.2974,-4.2974,-4.2974,-4.2974,-4.2974,-4.2974,-4.2974,-4.2974,-4.2974,-4.2974,-4.2974,-4.2974,-4.2974,-4.2974,-4.2974,-4.2974,-4.2974,-4.2974,-4.2974,-4.2974,-4.2974,-4.2974,-4.3602,-4.4941,-4.6331,-4.7771,-4.9161,-5.0493,-5.1214,-5.1214,-5.1214,-5.1167,-5.1011,-4.9776,-4.921,-2.1092,0.0,-1.9524,-1.922,-1.8349,-1.7582,0.0,-1.9783,-2.2042,-2.2606,-2.5099,-2.7357,-2.7987,-2.6974,-2.6269,-2.6871,-2.5794,-2.5419,-2.6918,-2.7005,-2.8383,-3.2334,-3.0457,-3.0004,-3.3092,-3.3418,-3.3418,-3.3418,-3.3418,-3.3418,-3.3418,-3.3418,-3.3418,-3.3418,-3.3418,-3.3418,-3.3418,-3.3418,-3.3418,-3.3418,-3.4674,-3.5448,-3.5806,-3.666,-3.7495,-3.8093,-3.6112,-3.5448,-3.5683,-3.408,-3.3418,-3.3418,-3.3418,-3.3418,-3.3418,-3.3418,-3.366,-3.432,-3.6781,-3.8153,-3.917,-4.1672,-4.2681,-4.2974,-4.2974,-4.2974,-4.2974,-4.2974,-4.2974,-4.2974,-4.2974,-4.2974,-4.2974,-4.2974,-4.2974,-4.2974,-4.2974,-4.2974,-4.2974,-4.2974,-4.2974,-4.2974,-4.2974,-4.2974,-4.2974,-4.2974,-4.2974,-4.2974,-4.2974,-4.2974,-4.2974,-4.2974,-4.2974,-4.2974,-4.2974,-4.2974,-4.2974,-4.2974,-4.2974,-4.3602,-4.4941,-4.6331,-4.7771,-4.9161,-5.0493,-5.1214,-5.1214,-5.1214,-5.065,-4.9664,-4.9357,-4.921,-2.3583,-2.219,-2.0581,-1.9956,-1.8777,-1.7796,-1.7796,-1.9956,-2.2167,-2.2784,-2.5236,-2.7578,-2.8467,-2.7978,-2.7382,-2.7483,-2.6772,-2.6894,-2.8763,-2.8518,-2.9457,-3.2986,-3.1707,-3.1322,-3.3228,-3.3418,-3.3418,-3.3418,-3.3418,-3.3418,-3.3418,-3.3418,-3.3418,-3.3418,-3.3418,-3.3418,-3.3418,-3.4133,-3.4497,-3.4497,-3.6112,-3.7303,-3.7963,-3.7374,-3.7914,-3.9111,-3.6051,-3.515,-3.5683,-3.408,-3.3418,-3.3418,-3.3418,-3.3418,-3.3418,-3.3418,-3.3902,-3.486,-3.7325,-3.917,-4.0719,-4.2432,-4.2974,-4.2974,-4.2974,-4.2974,-4.2974,-4.2974,-4.2974,-4.2974,-4.2974,-4.2974,-4.2974,-4.2974,-4.2974,-4.2974,-4.2974,-4.2974,-4.2974,-4.2974,-4.2974,-4.2974,-4.2974,-4.2974,-4.2974,-4.2974,-4.2974,-4.2974,-4.2974,-4.2974,-4.2974,-4.2974,-4.2974,-4.2974,-4.2974,-4.2974,-4.2974,-4.2974,-4.2974,-4.3907,-4.5872,-4.6695,-4.8024,-5.008,-5.0239,-5.0603,-5.1214,-5.0603,-5.0239,-5.008,-4.8802,-4.8225,-2.5459,-2.4189,-2.2234,-2.1026,-1.9747,-1.8692,-1.8475,0.0,-2.276,-2.2917,-2.5507,-2.7885,-2.8389,-2.8721,-2.8641,-2.7811,-2.8059,-2.8756,-2.9895,-2.9901,-3.0666,-3.3131,-3.3155,-3.3092,-3.3355,-3.3418,-3.3418,-3.3418,-3.3418,-3.3418,-3.3418,-3.3418,-3.3418,-3.3418,-3.3359,-3.3446,-3.3625,-3.5057,-3.5928,-3.6162,-3.7794,-3.917,-4.0175,-3.7664,-3.7903,-4.0001,-3.5643,-3.455,-3.5683,-3.408,-3.3418,-3.3418,-3.3418,-3.3418,-3.3418,-3.3418,-3.4435,-3.604,-3.7914,-4.0534,-4.2974,-4.2974,-4.2974,-4.2974,-4.2974,-4.2974,-4.2974,-4.2974,-4.2974,-4.2974,-4.2974,-4.2974,-4.2974,-4.2974,-4.2974,-4.2974,-4.2974,-4.2974,-4.2974,-4.2974,-4.2974,-4.2974,-4.2974,-4.2974,-4.2974,-4.2974,-4.2974,-4.2974,-4.2974,-4.2974,-4.2974,-4.2974,-4.2974,-4.2974,-4.2974,-4.2974,-4.2974,-4.2974,-4.3184,-4.4522,-4.7299,-4.7402,-4.8539,-5.0855,-4.9567,-4.947,-5.0555,-4.9421,-4.9357,-5.0191,-4.7873,-4.6785,-2.6142,-2.5381,-2.4269,-2.3778,-2.2898,-2.1814,-2.0586,-2.2499,-2.4359,-2.3515,-2.5654,-2.807,-2.916,-2.9121,-2.9196,-3.0132,-3.0673,-3.1146,-3.1696,-3.086,-3.0917,-3.316,-3.2091,-3.1762,-3.3292,-3.3418,-3.3418,-3.3418,-3.3418,-3.3418,-3.3418,-3.3418,-3.3418,-3.3418,-3.3076,-3.348,-3.4725,-3.5444,-3.6467,-3.7854,-3.9464,-3.9639,-3.858,-3.9464,-3.9405,-3.8461,-3.6345,-3.556,-3.5683,-3.408,-3.3418,-3.3418,-3.3418,-3.3418,-3.3418,-3.3418,-3.4435,-3.6223,-3.9218,-4.1431,-4.2974,-4.2974,-4.2974,-4.2974,-4.2974,-4.2974,-4.2974,-4.2974,-4.2974,-4.2974,-4.2974,-4.2974,-4.2974,-4.2974,-4.2974,-4.2974,-4.2974,-4.2974,-4.2974,-4.2974,-4.2974,-4.2974,-4.2974,-4.2974,-4.2974,-4.2974,-4.2974,-4.2974,-4.2974,-4.2974,-4.2974,-4.2974,-4.2974,-4.2974,-4.2974,-4.2974,-4.2974,-4.2974,-4.4058,-4.5964,-4.8752,-4.8901,-4.9098,-4.9518,-4.8125,-4.7517,-4.7721,-4.7517,-4.6888,-4.5912,-4.5502,-4.5302,-2.5977,-2.5992,-2.5999,-2.6088,-2.4632,-2.2984,-2.2335,-2.3627,-2.4929,-2.4667,-2.6231,-2.8031,-2.9023,-2.9248,-2.9629,-3.0713,-3.124,-3.167,-3.2109,-3.1884,-3.195,-3.2932,-3.2358,-3.2083,-3.2702,-3.2744,-3.2744,-3.2744,-3.2744,-3.2744,-3.2744,-3.2744,-3.2744,-3.2744,-3.3366,-3.436,-3.588,-3.6944,-3.8006,-3.9059,-4.0712,-4.1209,-4.0777,-3.9768,-3.8876,-3.8033,-3.5581,-3.4497,-3.4435,-3.3713,-3.3418,-3.3418,-3.3418,-3.3418,-3.3607,-3.5345,-3.6478,-3.7544,-4.0765,-4.2375,-4.2974,-4.2974,-4.2974,-4.2974,-4.2974,-4.2974,-4.2974,-4.2974,-4.2974,-4.2974,-4.2974,-4.2974,-4.2974,-4.2974,-4.2974,-4.2974,-4.2974,-4.2974,-4.2974,-4.2974,-4.2974,-4.2974,-4.2974,-4.2974,-4.2974,-4.2974,-4.2974,-4.2974,-4.2974,-4.2974,-4.2974,-4.2974,-4.2974,-4.2974,-4.2974,-4.2974,-4.2974,-4.2974,-4.4277,-4.5912,-4.7974,-4.8074,-4.8439,-4.921,-4.7043,-4.6331,-4.7094,-4.6331,-4.6017,-4.6122,-4.6122,-4.5714,-2.581,-2.6367,-2.6973,-2.7402,-2.5724,-2.3896,-2.3773,-2.4574,-2.5341,-2.5432,-2.6798,-2.8223,-2.9062,-2.958,-3.0107,-3.0781,-3.124,-3.1641,-3.1973,-3.2383,-3.2646,-3.2646,-3.2646,-3.2519,-3.2258,-3.2229,-3.2229,-3.2229,-3.2229,-3.2229,-3.2229,-3.2229,-3.234,-3.2684,-3.3718,-3.5139,-3.702,-3.8026,-3.9098,-4.0158,-4.1563,-4.2015,-4.1602,-3.9289,-3.7805,-3.6963,-3.4445,-3.3418,-3.3418,-3.3418,-3.3418,-3.3418,-3.3418,-3.3418,-3.3839,-3.7445,-3.8521,-3.8639,-4.1899,-4.2974,-4.2974,-4.2974,-4.2974,-4.2974,-4.2974,-4.2974,-4.2974,-4.2974,-4.2974,-4.2974,-4.2974,-4.2974,-4.2974,-4.2974,-4.2974,-4.2974,-4.2974,-4.2974,-4.2974,-4.2974,-4.2974,-4.2974,-4.2974,-4.2974,-4.2974,-4.2974,-4.2974,-4.2974,-4.2974,-4.2974,-4.2974,-4.2974,-4.2974,-4.2974,-4.2974,-4.2974,-4.2974,-4.2974,-4.4277,-4.5608,-4.7043,-4.6785,-4.7094,-4.8175,-4.582,-4.5048,-4.6122,-4.5048,-4.5102,-4.6122,-4.6122,-4.5714,-2.623,-2.6387,-2.6533,-2.6953,-2.6266,-2.5352,-2.4901,-2.5509,-2.5979,-2.5099,-2.7036,-2.9092,-2.9951,-3.0488,-3.082,-3.0879,-3.124,-3.1533,-3.1562,-3.1934,-3.2217,-3.2217,-3.2217,-3.2207,-3.2178,-3.2229,-3.2229,-3.2229,-3.2229,-3.2229,-3.2229,-3.2229,-3.2855,-3.4216,-3.3905,-3.5146,-3.7946,-3.7756,-3.8819,-4.1176,-4.1852,-4.0655,-3.7785,-3.807,-3.6539,-3.3723,-3.3481,-3.3418,-3.3418,-3.3418,-3.3418,-3.3418,-3.3418,-3.3418,-3.3955,-3.8687,-3.9464,-3.8639,-4.1899,-4.2974,-4.2974,-4.2974,-4.2974,-4.2974,-4.2974,-4.2974,-4.2974,-4.2974,-4.2974,-4.2974,-4.2974,-4.2974,-4.2974,-4.2974,-4.2974,-4.2974,-4.2974,-4.2974,-4.2974,-4.2974,-4.2974,-4.2974,-4.2974,-4.2974,-4.2974,-4.2974,-4.2974,-4.2974,-4.2974,-4.2974,-4.2974,-4.2974,-4.2974,-4.2974,-4.2974,-4.2974,-4.2974,-4.2974,-4.4277,-4.5608,-4.7043,-4.5872,-4.5195,-4.5302,-4.3852,-4.3184,-4.3295,-4.3184,-4.3184,-4.3283,-4.3283,-4.3907,-2.5937,-2.6377,-2.6885,-2.7314,-2.6488,-2.5845,-2.6793,-2.7481,-2.7888,-2.7817,-2.8623,-2.9502,-3.0088,-3.0576,-3.0889,-3.0889,-3.124,-3.1514,-3.1514,-3.1894,-3.2403,-3.3028,-3.3115,-3.3003,-3.2786,-3.3613,-3.3717,-3.2823,-3.3613,-3.4118,-3.4118,-3.4118,-3.4393,-3.4949,-3.5702,-3.659,-3.7697,-3.851,-3.934,-4.0325,-4.0877,-4.0343,-3.8896,-3.8096,-3.6681,-3.485,-3.3839,-3.3418,-3.3418,-3.3418,-3.3418,-3.3418,-3.3418,-3.4017,-3.5211,-3.8093,-3.9347,-4.0001,-4.225,-4.2974,-4.2974,-4.2974,-4.2974,-4.2974,-4.2974,-4.2974,-4.2974,-4.2974,-4.2974,-4.2974,-4.2974,-4.2974,-4.2974,-4.2974,-4.2974,-4.2974,-4.2974,-4.2974,-4.2974,-4.2974,-4.2974,-4.2974,-4.2974,-4.2974,-4.2974,-4.2974,-4.2974,-4.2974,-4.2974,-4.2974,-4.2974,-4.2974,-4.2974,-4.2974,-4.2974,-4.2974,-4.2974,-4.2974,-4.3492,-4.4372,-4.5767,-4.4481,-4.4167,-4.4994,-4.37,-4.2974,-4.2974,-4.2974,-4.2974,-4.303,-4.3852,-4.4535,-2.6035,-2.6754,-2.7621,-2.7486,-2.6936,-2.6795,-2.8164,-2.8375,-2.8439,-2.907,-2.963,-3.0029,-3.0166,-3.0576,-3.0889,-3.0889,-3.1133,-3.1486,-3.1927,-3.2394,-3.3054,-3.4086,-3.4215,-3.4086,-3.3832,-3.4681,-3.4902,-3.3845,-3.4736,-3.5288,-3.5288,-3.5288,-3.5508,-3.5999,-3.6972,-3.7743,-3.819,-3.9193,-3.9697,-3.9697,-4.0074,-3.9663,-3.8533,-3.7756,-3.6492,-3.4769,-3.3842,-3.3418,-3.3418,-3.3418,-3.3418,-3.3481,-3.3955,-3.485,-3.6051,-3.8212,-3.9639,-4.0834,-4.2444,-4.2974,-4.2974,-4.2974,-4.2974,-4.2974,-4.2974,-4.2974,-4.2974,-4.2974,-4.2974,-4.2974,-4.2974,-4.2974,-4.2974,-4.2974,-4.2974,-4.2974,-4.2974,-4.2974,-4.2974,-4.2974,-4.2974,-4.2974,-4.2974,-4.2974,-4.2974,-4.2974,-4.2974,-4.2974,-4.2974,-4.2974,-4.2974,-4.2974,-4.2974,-4.2974,-4.2974,-4.2974,-4.2974,-4.2974,-4.2974,-4.3394,-4.4318,-4.3492,-4.3449,-4.4372,-4.3449,-4.2974,-4.2974,-4.2974,-4.2974,-4.303,-4.3962,-4.4576,-2.6765,-2.7651,-2.8655,-2.7358,-2.7666,-2.8408,-2.8828,-2.7853,-2.7237,-2.8242,-2.9717,-3.0752,-3.0293,-3.0576,-3.0889,-3.0889,-3.0889,-3.1383,-3.2851,-3.3477,-3.4186,-3.5201,-3.5288,-3.5343,-3.5343,-3.5354,-3.5343,-3.5343,-3.5354,-3.5343,-3.5343,-3.5343,-3.5999,-3.7465,-3.7518,-3.8243,-3.9697,-3.9697,-3.9697,-3.9697,-3.9697,-3.8362,-3.5927,-3.6909,-3.5723,-3.2812,-3.3232,-3.3418,-3.3418,-3.3418,-3.3418,-3.3544,-3.515,-3.5806,-3.6223,-3.9394,-4.0592,-4.0834,-4.2444,-4.2974,-4.2974,-4.2974,-4.2974,-4.2974,-4.2974,-4.2974,-4.2974,-4.2974,-4.2974,-4.2974,-4.2974,-4.2974,-4.2974,-4.2974,-4.2974,-4.2974,-4.2974,-4.2974,-4.2974,-4.2974,-4.2974,-4.2974,-4.2974,-4.2974,-4.2974,-4.2974,-4.2974,-4.2974,-4.2974,-4.2974,-4.2974,-4.2974,-4.2974,-4.2974,-4.2974,-4.2974,-4.2974,-4.2974,-4.2974,-4.303,-4.303,-4.303,-4.303,-4.303,-4.303,-4.2974,-4.2974,-4.2974,-4.2974,-4.2974,-4.2974,-4.3755,-2.7183,-2.7408,-2.7683,-2.8166,-2.8481,-2.8848,-2.9277,-2.9319,-2.9374,-3.0004,-3.0577,-3.085,-3.0713,-3.0801,-3.0889,-3.0889,-3.0889,-3.1062,-3.1505,-3.3466,-3.5223,-3.6187,-3.6291,-3.6444,-3.6799,-3.7808,-3.7979,-3.693,-3.7808,-3.8372,-3.8372,-3.8372,-3.8582,-3.9025,-3.9077,-3.9245,-3.9697,-3.9697,-3.9697,-3.9697,-3.9697,-3.8916,-3.7394,-3.6703,-3.5436,-3.3868,-3.3267,-3.2978,-3.3008,-3.3301,-3.3418,-3.3418,-3.3902,-3.552,-3.7615,-3.858,-4.0349,-4.2375,-4.2849,-4.2974,-4.2974,-4.2974,-4.2974,-4.2974,-4.2974,-4.2974,-4.2974,-4.2974,-4.2974,-4.2974,-4.2974,-4.2974,-4.2974,-4.2974,-4.2974,-4.2974,-4.2974,-4.2974,-4.2974,-4.2974,-4.2974,-4.2974,-4.2974,-4.2974,-4.2974,-4.2974,-4.2974,-4.2974,-4.2974,-4.2974,-4.2974,-4.2974,-4.2974,-4.2974,-4.2974,-4.2974,-4.2974,-4.2974,-4.2974,-4.3449,-4.4372,-4.3492,-4.3449,-4.4372,-4.3492,-4.2974,-4.2974,-4.2974,-4.2974,-4.2974,-4.2974,-4.4277,-2.7774,-2.8356,-2.9033,-2.8859,-2.8983,-2.9336,-2.9951,-3.0293,-3.0547,-3.083,-3.0889,-3.0889,-3.0889,-3.0889,-3.0889,-3.0889,-3.0906,-3.0918,-3.0912,-3.4448,-3.7282,-3.7817,-3.7903,-3.8004,-3.8336,-3.9193,-3.9349,-3.8465,-3.9193,-3.9697,-3.9697,-3.9697,-3.9697,-3.9697,-3.9697,-3.9697,-3.9697,-3.9697,-3.9697,-3.9697,-3.9697,-3.9081,-3.7821,-3.6473,-3.4923,-3.324,-3.2761,-3.2637,-3.2812,-3.3066,-3.3271,-3.3418,-3.3418,-3.5345,-3.8223,-3.8223,-4.0245,-4.2974,-4.2974,-4.2974,-4.2974,-4.2974,-4.2974,-4.2974,-4.2974,-4.2974,-4.2974,-4.2974,-4.2974,-4.2974,-4.2974,-4.2974,-4.2974,-4.2974,-4.2974,-4.2974,-4.2974,-4.2974,-4.2974,-4.2974,-4.2974,-4.2974,-4.2974,-4.2974,-4.2974,-4.2974,-4.2974,-4.2974,-4.2974,-4.2974,-4.2974,-4.2974,-4.2974,-4.2974,-4.2974,-4.2974,-4.2974,-4.2974,-4.2974,-4.3602,-4.4941,-4.37,-4.3394,-4.4167,-4.3394,-4.2974,-4.2974,-4.2974,-4.2974,-4.2974,-4.2974,-4.3907,-2.8338,-2.9837,-3.1487,-2.9537,-2.9388,-2.9853,-3.0693,-3.0889,-3.0889,-3.0889,-3.0889,-3.0889,-3.0889,-3.0889,-3.0879,-3.0888,-3.1112,-3.1324,-3.1278,-3.6152,-3.9671,-3.9696,-3.9697,-3.9697,-3.9697,-3.9697,-3.9697,-3.9697,-3.9697,-3.9697,-3.9697,-3.9697,-3.9697,-3.9697,-3.9647,-3.9622,-3.9622,-3.9572,-3.9572,-3.9622,-3.9622,-3.8807,-3.7263,-3.6291,-3.4236,-3.1543,-3.1934,-3.2353,-3.2744,-3.2744,-3.2978,-3.3369,-3.3369,-3.5304,-3.8223,-3.8223,-4.0245,-4.2974,-4.2974,-4.2974,-4.2974,-4.2974,-4.2974,-4.2974,-4.2974,-4.2974,-4.2974,-4.2974,-4.2974,-4.2974,-4.2974,-4.2974,-4.2974,-4.2974,-4.2974,-4.2974,-4.2974,-4.2974,-4.2974,-4.2974,-4.2974,-4.2974,-4.2974,-4.2974,-4.2974,-4.2974,-4.2974,-4.2974,-4.2974,-4.2974,-4.2974,-4.2974,-4.2974,-4.2974,-4.2974,-4.2974,-4.2974,-4.2974,-4.2974,-4.3547,-4.4792,-4.3657,-4.3085,-4.3184,-4.3085,-4.2974,-4.2974,-4.2974,-4.2974,-4.2974,-4.2974,-4.3129,-2.8429,-2.8849,-2.9361,-3.0161,-3.0239,-3.0215,-3.0762,-3.0889,-3.0889,-3.0889,-3.0889,-3.0889,-3.0889,-3.0889,-3.0888,-3.0926,-3.284,-3.4334,-3.4354,-3.7459,-3.9671,-3.9696,-3.9697,-3.9697,-3.9697,-3.9697,-3.9697,-3.9697,-3.9697,-3.9697,-3.9697,-3.9697,-3.9697,-3.9697,-3.927,-3.9044,-3.9044,-3.8592,-3.8592,-3.9044,-3.9044,-3.7907,-3.5793,-3.5511,-3.3994,-3.1523,-3.1621,-3.1904,-3.2305,-3.2305,-3.2549,-3.293,-3.293,-3.5096,-3.8223,-3.8223,-4.0245,-4.2974,-4.2974,-4.2974,-4.2974,-4.2974,-4.2974,-4.2974,-4.2974,-4.2974,-4.2974,-4.2974,-4.2974,-4.2974,-4.2974,-4.2974,-4.2974,-4.2974,-4.2974,-4.2974,-4.2974,-4.2974,-4.2974,-4.2974,-4.2974,-4.2974,-4.2974,-4.2974,-4.2974,-4.2974,-4.2974,-4.2974,-4.2974,-4.2974,-4.2974,-4.2974,-4.2974,-4.2974,-4.2974,-4.2974,-4.2974,-4.2974,-4.2974,-4.3129,-4.3449,-4.3129,-4.3492,-4.4522,-4.3547,-4.2974,-4.2974,-4.2974,-4.2974,-4.2974,-4.2974,-4.4167,-2.8963,-2.9742,-3.0486,-3.1386,-3.107,-3.0596,-3.083,-3.0889,-3.0889,-3.0889,-3.0889,-3.0889,-3.0889,-3.0887,-3.0881,-3.0927,-3.4536,-3.7438,-3.7394,-3.8737,-3.9725,-3.9722,-3.9697,-3.9697,-3.9697,-3.9697,-3.9697,-3.9697,-3.9697,-3.9697,-3.9697,-3.9446,-3.9295,-3.9295,-3.8755,-3.8454,-3.8454,-3.8153,-3.8165,-3.8454,-3.8023,-3.6597,-3.4236,-3.354,-3.2455,-3.1211,-3.1211,-3.1455,-3.1855,-3.1855,-3.2109,-3.2519,-3.2715,-3.4878,-3.7969,-3.8134,-4.0245,-4.2974,-4.2974,-4.2974,-4.2974,-4.2974,-4.2974,-4.2974,-4.2974,-4.2974,-4.2974,-4.2974,-4.2974,-4.2974,-4.2974,-4.2974,-4.2974,-4.2974,-4.2974,-4.2974,-4.2974,-4.2974,-4.2974,-4.2974,-4.2974,-4.2974,-4.2974,-4.2974,-4.2974,-4.2974,-4.2974,-4.2974,-4.2974,-4.2974,-4.2974,-4.2974,-4.2974,-4.2974,-4.2974,-4.2974,-4.2974,-4.2974,-4.2974,-4.2974,-4.2974,-4.2974,-4.3338,-4.4016,-4.3338,-4.2974,-4.2974,-4.2974,-4.2974,-4.2974,-4.2974,-4.3755,-2.93,-3.1084,-3.2656,-3.2443,-3.1814,-3.1218,-3.0947,-3.0889,-3.0889,-3.0889,-3.0889,-3.0889,-3.0889,-3.1307,-3.1845,-3.2359,-3.6524,-3.9726,-3.9692,-3.9688,-3.9697,-3.9697,-3.9697,-3.9634,-3.9457,-3.9457,-3.9432,-3.9319,-3.9383,-3.9396,-3.9396,-3.8969,-3.8718,-3.8718,-3.8165,-3.7864,-3.7864,-3.7764,-3.7764,-3.7877,-3.6819,-3.5174,-3.3077,-3.1546,-3.0889,-3.0889,-3.0889,-3.1094,-3.1406,-3.1406,-3.166,-3.209,-3.2441,-3.4557,-3.7475,-3.782,-4.0033,-4.2836,-4.2836,-4.2898,-4.2974,-4.2974,-4.2974,-4.2974,-4.2974,-4.2974,-4.2974,-4.2974,-4.2974,-4.2974,-4.2974,-4.2974,-4.2974,-4.2974,-4.2974,-4.2974,-4.2974,-4.2974,-4.2974,-4.2974,-4.2974,-4.2974,-4.2974,-4.2974,-4.2974,-4.2974,-4.2974,-4.2974,-4.2974,-4.2974,-4.2974,-4.2974,-4.2974,-4.2974,-4.2974,-4.2974,-4.2974,-4.2974,-4.2974,-4.2974,-4.2974,-4.2974,-4.2974,-4.2974,-4.2974,-4.2974,-4.2974,-4.2974,-4.2974,-4.2974,-4.2974,-4.3141,-2.8504,-3.1149,-3.3279,-3.2427,-3.2507,-3.2473,-3.116,-3.0889,-3.0889,-3.0889,-3.0889,-3.0889,-3.0889,-3.297,-3.5556,-3.8134,-3.9183,-3.9708,-3.9692,-3.9683,-3.9697,-3.9697,-3.9697,-3.9318,-3.8326,-3.8528,-3.8492,-3.7842,-3.8066,-3.8228,-3.8228,-3.8165,-3.8115,-3.8115,-3.7575,-3.7299,-3.7299,-3.687,-3.687,-3.7299,-3.552,-3.4142,-3.3077,-3.1546,-3.0889,-3.0889,-3.0889,-3.0928,-3.0976,-3.0976,-3.1221,-3.1611,-3.167,-3.38,-3.6857,-3.6855,-3.9172,-4.2313,-4.2313,-4.2627,-4.2974,-4.2974,-4.2974,-4.2974,-4.2974,-4.2974,-4.2974,-4.2974,-4.2974,-4.2974,-4.2974,-4.2974,-4.2974,-4.2974,-4.2974,-4.2974,-4.2974,-4.2974,-4.2974,-4.2974,-4.2974,-4.2974,-4.2974,-4.2974,-4.2974,-4.2974,-4.2974,-4.2974,-4.2974,-4.2974,-4.2974,-4.2974,-4.2974,-4.2974,-4.2974,-4.2974,-4.2974,-4.2974,-4.2974,-4.2974,-4.2974,-4.2974,-4.2974,-4.2974,-4.2974,-4.2974,-4.2974,-4.2974,-4.2974,-4.2974,-4.2974,-4.3602,-3.0718,-3.2168,-3.2916,-3.3355,-3.2466,-3.1388,-3.0995,-3.0889,-3.0889,-3.0889,-3.1546,-3.215,-3.215,-3.3381,-3.5257,-3.7616,-3.8945,-3.9688,-3.9722,-3.9697,-3.9697,-3.9697,-3.9697,-3.9318,-3.8403,-3.8504,-3.8279,-3.7556,-3.7828,-3.8002,-3.8002,-3.7713,-3.755,-3.755,-3.701,-3.6769,-3.6769,-3.6531,-3.5977,-3.5145,-3.3593,-3.2485,-3.1883,-3.1218,-3.0889,-3.0889,-3.0889,-3.0889,-3.0889,-3.0889,-3.0996,-3.1191,-3.1426,-3.3499,-3.6375,-3.6644,-3.883,-4.1706,-4.1706,-4.2057,-4.2577,-4.2577,-4.2778,-4.2974,-4.2974,-4.2974,-4.2974,-4.2974,-4.2974,-4.2974,-4.2974,-4.2974,-4.2974,-4.2974,-4.2974,-4.2974,-4.2974,-4.2974,-4.2974,-4.2974,-4.2974,-4.2974,-4.2974,-4.2974,-4.2974,-4.2974,-4.2974,-4.2974,-4.2974,-4.2974,-4.2974,-4.2974,-4.2974,-4.2974,-4.2974,-4.2974,-4.2974,-4.2974,-4.2974,-4.2974,-4.2974,-4.2974,-4.2974,-4.2974,-4.2974,-4.2974,-4.2974,-4.2974,-4.2974,-4.2974,-4.2974,-4.3338,-3.2359,-3.2833,-3.2598,-3.3589,-3.2499,-3.1182,-3.1267,-3.1361,-3.1441,-3.1441,-3.2311,-3.318,-3.3575,-3.4262,-3.5224,-3.6696,-3.8484,-3.9697,-3.9697,-3.9697,-3.9697,-3.9697,-3.9697,-3.9395,-3.8654,-3.8768,-3.8626,-3.7895,-3.7965,-3.8049,-3.8049,-3.7379,-3.6973,-3.6973,-3.6619,-3.6405,-3.6405,-3.6061,-3.49,-3.2935,-3.1944,-3.1211,-3.0713,-3.0713,-3.0781,-3.0889,-3.0889,-3.0889,-3.0889,-3.0889,-3.0889,-3.0918,-3.124,-3.3209,-3.5938,-3.6241,-3.8382,-4.1075,-4.1075,-4.1492,-4.1944,-4.1944,-4.2221,-4.2585,-4.2723,-4.2828,-4.2854,-4.2936,-4.2974,-4.2974,-4.2974,-4.2974,-4.2974,-4.2974,-4.2974,-4.2974,-4.2974,-4.2974,-4.2974,-4.2974,-4.2974,-4.2974,-4.2974,-4.2974,-4.2974,-4.2974,-4.2974,-4.2974,-4.2974,-4.2974,-4.2974,-4.2974,-4.2974,-4.2974,-4.2974,-4.2974,-4.2974,-4.2974,-4.2974,-4.2974,-4.2974,-4.2974,-4.2974,-4.2974,-4.3338,-4.3338,-4.2974,-4.2974,-4.2974,-4.303,-4.3338,-4.3338,-3.1675,-3.2541,-3.2759,-3.2408,-3.3045,-3.3531,-3.2577,-3.265,-3.2964,-3.2964,-3.3077,-3.3519,-3.4902,-3.6356,-3.7335,-3.7453,-3.8739,-3.9697,-3.9697,-3.9697,-3.9697,-3.9697,-3.9697,-3.9395,-3.8654,-3.9313,-3.9475,-3.8871,-3.8366,-3.8109,-3.8109,-3.7028,-3.6455,-3.6455,-3.6417,-3.6405,-3.6405,-3.5126,-3.338,-3.1148,-3.1052,-3.0731,-3.0234,-3.0234,-3.0478,-3.0889,-3.0889,-3.0889,-3.0889,-3.0889,-3.0889,-3.0889,-3.0918,-3.2753,-3.5333,-3.5367,-3.7545,-4.0563,-4.0563,-4.0927,-4.1326,-4.1326,-4.1351,-4.153,-4.2099,-4.225,-4.2363,-4.2891,-4.2974,-4.2974,-4.2974,-4.2974,-4.2974,-4.2974,-4.2974,-4.2974,-4.2974,-4.2974,-4.2974,-4.2974,-4.2974,-4.2974,-4.2974,-4.2974,-4.2974,-4.2974,-4.2974,-4.2974,-4.2974,-4.2974,-4.2974,-4.2974,-4.2974,-4.2974,-4.2974,-4.2974,-4.2974,-4.2974,-4.2974,-4.2974,-4.2974,-4.2974,-4.2974,-4.2974,-4.4277,-4.4277,-4.2974,-4.2974,-4.2974,-4.303,-4.4318,-4.4222,-3.2532,-3.2777,-3.2357,-3.2797,-3.2867,-3.2837,-3.2698,-3.3312,-3.3934,-3.3934,-3.4998,-3.6097,-3.6595,-3.7133,-3.7796,-3.8739,-3.9362,-3.9697,-3.9697,-3.9697,-3.9697,-3.9697,-3.9697,-4.0007,-4.0811,-4.0233,-3.9591,-3.9064,-3.8437,-3.7756,-3.707,-3.6628,-3.6405,-3.6405,-3.6405,-3.6013,-3.5126,-3.3761,-3.2334,-3.0967,-3.0069,-2.9704,-2.9805,-3.0068,-3.0293,-3.0459,-3.0762,-3.0889,-3.0889,-3.0889,-3.0889,-3.0995,-3.193,-3.3529,-3.5398,-3.6379,-3.8099,-3.9986,-3.9986,-4.035,-4.0814,-4.0814,-4.1,-4.1388,-4.2049,-4.2213,-4.2326,-4.2879,-4.2974,-4.2974,-4.2974,-4.2974,-4.2974,-4.2974,-4.2974,-4.2974,-4.2974,-4.2974,-4.2974,-4.2974,-4.2974,-4.2974,-4.2974,-4.2974,-4.2974,-4.2974,-4.2974,-4.2974,-4.2974,-4.2974,-4.2974,-4.2974,-4.2974,-4.2974,-4.2974,-4.2974,-4.2974,-4.2974,-4.2974,-4.2974,-4.2974,-4.2974,-4.2974,-4.2974,-4.4318,-4.4318,-4.2974,-4.4792,-4.5142,-4.4318,-4.5714,-4.6069,-3.2869,-3.2678,-3.1905,-3.2842,-3.2785,-3.262,-3.3441,-3.4136,-3.4513,-3.4258,-3.5629,-3.6784,-3.635,-3.7047,-3.809,-3.9467,-3.9697,-3.9697,-3.9697,-3.9697,-3.9697,-3.9697,-3.9714,-4.0297,-4.1839,-4.1157,-4.0428,-3.9991,-3.9003,-3.7965,-3.7023,-3.6628,-3.6405,-3.6405,-3.6405,-3.5511,-3.3712,-3.2744,-3.1541,-3.0069,-2.9124,-2.8935,-2.9365,-2.9639,-2.9922,-3.0215,-3.0527,-3.0742,-3.0889,-3.0889,-3.0889,-3.1054,-3.253,-3.4024,-3.5453,-3.6984,-3.8413,-3.9697,-3.9697,-3.9936,-4.0237,-4.0237,-4.0488,-4.0927,-4.1656,-4.1882,-4.2032,-4.2773,-4.2974,-4.2974,-4.2974,-4.2974,-4.2974,-4.2974,-4.2974,-4.2974,-4.2974,-4.2974,-4.2974,-4.2974,-4.2974,-4.2974,-4.2974,-4.2974,-4.2974,-4.2974,-4.2974,-4.2974,-4.2974,-4.2974,-4.2974,-4.2974,-4.2974,-4.2974,-4.2974,-4.2974,-4.2974,-4.2974,-4.2974,-4.2974,-4.2974,-4.3449,-4.3645,-4.3645,-4.5449,-4.5767,-4.4372,-4.6226,-4.6643,-4.5767,-4.7146,-4.7822,0.0,0.0,0.0,-3.2495,-3.2815,-3.3326,-3.483,-3.5113,-3.4777,-3.403,-3.4935,-3.5434,-3.4177,-3.6174,-3.8366,-3.9484,-3.9672,-3.9672,-3.9697,-3.9697,-3.9697,-3.9749,-3.9765,-4.0309,-4.1614,-4.2032,-4.2076,-4.1763,-3.9959,-3.8635,-3.8115,-3.7036,-3.6405,-3.6405,-3.6405,-3.509,-3.2331,-3.228,-3.0968,-2.8291,-2.8291,-2.8506,-2.8896,-2.8916,-2.9375,-3.0176,-3.0185,-3.0459,-3.0889,-3.0889,-3.0889,-3.1054,-3.2587,-3.4013,-3.5453,-3.6972,-3.8465,-3.9697,-3.9697,-3.9697,-3.9697,-3.9697,-3.9697,-3.9898,-4.0949,-4.1288,-4.1514,-4.2672,-4.2974,-4.2974,-4.2974,-4.2974,-4.2974,-4.2974,-4.2974,-4.2974,-4.2974,-4.2974,-4.2974,-4.2974,-4.2974,-4.2974,-4.2974,-4.2974,-4.2974,-4.2974,-4.2974,-4.2974,-4.2974,-4.2974,-4.2974,-4.2974,-4.2974,-4.2974,-4.2974,-4.2974,-4.2974,-4.2974,-4.303,-4.3085,-4.3085,-4.4372,-4.5048,-4.5048,-4.7771,-4.8539,-4.7146,-4.7197,-4.7197,-4.7197,-4.8589,-4.9259,-3.2426,0.0,0.0,0.0,0.0,0.0,-3.4177,-3.4836,-3.541,-3.5636,-3.626,-3.6813,-3.6833,-3.7481,-3.8253,-3.8981,-3.9094,-3.9245,-3.9634,-3.9697,-4.0121,-4.1365,-4.1254,-4.2301,-4.5419,-4.3715,-4.2403,-4.2403,-4.0233,-3.846,-3.7495,-3.6796,-3.6405,-3.6405,-3.6405,-3.509,-3.2331,-3.228,-3.0968,-2.8291,-2.8291,-2.8359,-2.8476,-2.8779,-2.9219,-2.9756,-3.0068,-3.0459,-3.0889,-3.0889,-3.0889,-3.117,-3.3698,-3.4958,-3.5617,-3.8149,-3.9362,-3.9697,-3.9697,-3.9697,-3.9697,-3.9697,-3.9697,-3.9898,-4.0949,-4.1288,-4.1514,-4.2672,-4.2974,-4.2974,-4.2974,-4.2974,-4.2974,-4.2974,-4.2974,-4.2974,-4.2974,-4.2974,-4.2974,-4.2974,-4.2974,-4.2974,-4.2974,-4.2974,-4.2974,-4.2974,-4.2974,-4.2974,-4.2974,-4.2974,-4.2974,-4.2974,-4.2974,-4.2974,-4.2974,-4.2974,-4.2974,-4.2974,-4.3907,-4.4427,-4.4427,-4.5767,-4.6539,-4.6539,-4.8275,-4.8999,-4.8638,-4.9567,-4.9567,-4.8638,-5.0032,-5.0128,-3.1789,-3.2326,-3.2388,-3.2621,0.0,0.0,-3.399,-3.4517,-3.4819,-3.4866,-3.5531,-3.6166,-3.6111,-3.6562,-3.7236,-3.804,-3.8366,-3.8781,-3.9584,-4.0173,-4.0883,-4.1849,-4.2544,-4.3654,-4.5552,-4.371,-4.2254,-4.1903,-3.9815,-3.8269,-3.7617,-3.7781,-3.7645,-3.7116,-3.7103,-3.5581,-3.2331,-3.228,-3.0968,-2.8291,-2.8291,-2.8291,-2.8301,-2.8545,-2.8887,-2.9316,-2.956,-3.0019,-3.0605,-3.0605,-3.0713,-3.116,-3.4136,-3.5288,-3.5683,-3.8594,-3.9697,-3.9697,-3.9697,-3.9697,-3.9697,-3.9697,-3.9697,-3.986,-4.0727,-4.11,-4.1463,-4.2384,-4.2854,-4.2974,-4.2974,-4.2974,-4.2974,-4.2974,-4.2974,-4.2974,-4.2974,-4.2974,-4.2974,-4.2974,-4.2974,-4.2974,-4.2974,-4.2974,-4.2974,-4.2974,-4.2974,-4.2974,-4.2974,-4.2974,-4.2974,-4.2974,-4.2974,-4.2974,-4.2974,-4.2974,-4.324,-4.381,-4.4576,-4.5249,-4.5872,-4.7248,-4.7974,-4.7974,-4.9308,-5.0032,-5.0032,-5.0807,-5.0807,-5.0032,-5.0855,-5.076,-3.0676,-3.0989,-3.1151,-3.1817,-3.1579,0.0,-3.4018,-3.4161,-3.3637,-3.2984,-3.3759,-3.4413,-3.373,-3.4615,-3.5746,-3.6835,-3.7462,-3.8241,-3.9433,-4.0755,-4.1654,-4.1789,-4.369,-4.4652,-4.3773,-4.293,-4.2004,-4.0984,-3.9205,-3.8153,-3.8082,-3.9227,-3.936,-3.8153,-3.7958,-3.6075,-3.2331,-3.2129,-3.0824,-2.8291,-2.8291,-2.8291,-2.8291,-2.8291,-2.8525,-2.8916,-2.8916,-2.9375,-3.0137,-3.0347,-3.0746,-3.1441,-3.4191,-3.5398,-3.589,-3.8699,-3.9697,-3.9697,-3.9697,-3.9697,-3.9697,-3.9697,-3.9697,-3.9798,-4.035,-4.0811,-4.1379,-4.2037,-4.2602,-4.2974,-4.2974,-4.2974,-4.2974,-4.2974,-4.2974,-4.2974,-4.2974,-4.2974,-4.2974,-4.2974,-4.2974,-4.2974,-4.2974,-4.2974,-4.2974,-4.2974,-4.2974,-4.2974,-4.2974,-4.2974,-4.2974,-4.2974,-4.2974,-4.2974,-4.2974,-4.2974,-4.3492,-4.4684,-4.5048,-4.582,-4.7043,-4.8589,-4.9421,-4.9421,-5.0603,-5.1214,-5.1214,-5.1214,-5.1214,-5.1214,-5.1214,-5.1214,-2.9407,-2.9772,-3.0022,-3.1074,-3.1306,0.0,-3.3071,-3.3319,-3.3351,-3.3612,-3.387,-3.4134,-3.44,-3.4694,-3.5056,-3.5708,-3.6332,-3.7285,-3.8856,-4.0497,-4.1985,-4.3026,-4.4898,-4.5815,-4.5113,-4.4433,-4.3312,-4.1571,-4.0179,-3.9032,-3.8128,-3.9227,-3.936,-3.8153,-3.7042,-3.5124,-3.2331,-3.1224,-2.9911,-2.8291,-2.8291,-2.8291,-2.8291,-2.8291,-2.8525,-2.8916,-2.8916,-2.9209,-2.9829,-3.136,-3.2265,-3.2861,-3.4626,-3.6054,-3.7305,-3.9025,-3.9697,-3.9697,-3.9697,-3.9697,-3.9697,-3.9697,-3.9697,-3.9798,-4.035,-4.0588,-4.0877,-4.1936,-4.2602,-4.2974,-4.2974,-4.2974,-4.2974,-4.2974,-4.2974,-4.2974,-4.2974,-4.2974,-4.2974,-4.2974,-4.2974,-4.2974,-4.2974,-4.2974,-4.2974,-4.2974,-4.2974,-4.2974,-4.2974,-4.2974,-4.2974,-4.2974,-4.2974,-4.2974,-4.2974,-4.2974,-4.3141,-4.3394,-4.5449,-4.6785,-4.7094,-4.947,-5.0807,-5.0807,-5.1058,-5.1214,-5.1214,-5.1214,-5.1214,-5.1214,-5.1214,-5.1214,-2.9085,-2.8958,-2.8773,-3.0,-3.0316,0.0,0.0,-3.3124,-3.3156,-3.3432,-3.3483,-3.3658,-3.4211,-3.4311,-3.45,-3.4994,-3.5604,-3.6245,-3.7098,-4.0066,-4.2508,-4.3367,-4.4911,-4.5505,-4.4531,-4.3575,-4.2552,-4.1306,-4.0863,-4.0553,-4.0355,-4.0601,-4.0218,-3.905,-3.7108,-3.4872,-3.2331,-3.0968,-2.9608,-2.8291,-2.8291,-2.8291,-2.8291,-2.8291,-2.8408,-2.8603,-2.8603,-2.8848,-2.9368,-3.1021,-3.2391,-3.3628,-3.5631,-3.6865,-3.769,-3.9141,-3.9697,-3.9697,-3.9697,-3.9697,-3.9697,-3.9697,-3.9697,-3.9747,-4.0023,-4.03,-4.0689,-4.1517,-4.2145,-4.2627,-4.2627,-4.2828,-4.2974,-4.2974,-4.2974,-4.2974,-4.2974,-4.2974,-4.2974,-4.2974,-4.2974,-4.2974,-4.2974,-4.2974,-4.2974,-4.2974,-4.2974,-4.2974,-4.2974,-4.2974,-4.2974,-4.2974,-4.2974,-4.2974,-4.2974,-4.2974,-4.3602,-4.4941,-4.6331,-4.7721,-4.9098,-5.0445,-5.1214,-5.1214,-5.1214,-5.1214,-5.1214,-5.1214,-5.1214,-5.1214,-5.1214,-5.1214,-2.8402,-2.7992,-2.7542,-2.8773,-2.9223,-3.0,0.0,0.0,0.0,-3.3124,-3.3124,-3.3219,-3.3658,-3.3746,-3.3884,-3.4336,-3.4818,-3.5219,-3.532,-3.9037,-4.1947,-4.2553,-4.4078,-4.4493,-4.3101,-4.2056,-4.1248,-4.0821,-4.1349,-4.1936,-4.2523,-4.2159,-4.124,-3.9702,-3.7331,-3.486,-3.2331,-3.0721,-2.9355,-2.8291,-2.8291,-2.8291,-2.8291,-2.8291,-2.8291,-2.8291,-2.8291,-2.8486,-2.8908,-3.066,-3.2334,-3.3934,-3.6368,-3.7534,-3.7939,-3.9208,-3.9697,-3.9697,-3.9697,-3.9697,-3.9697,-3.9697,-3.9697,-3.9697,-3.9697,-4.0074,-4.0614,-4.1,-4.158,-4.2074,-4.2187,-4.2539,-4.2848,-4.2949,-4.2974,-4.2974,-4.2974,-4.2974,-4.2974,-4.2974,-4.2974,-4.2974,-4.2974,-4.2974,-4.2974,-4.2974,-4.2974,-4.2974,-4.2974,-4.2974,-4.2974,-4.2974,-4.2974,-4.2974,-4.2974,-4.324,-4.4318,-4.6539,-4.7197,-4.8489,-5.0698,-5.1058,-5.1214,-5.1214,-5.1214,-5.1214,-5.1214,-5.1214,-5.1214,-5.1214,-5.1214,-5.1214,-2.61,-2.6014,-2.6197,-2.7494,-2.8588,-2.9772,-3.1134,0.0,-3.3124,-3.3124,0.0,-3.3136,-3.3156,0.0,0.0,-3.3257,-3.3721,-3.4261,-3.4705,-3.672,-3.8474,-3.9508,-4.2109,-4.3113,-4.1253,-4.0887,-4.0715,-4.0795,-4.1741,-4.2296,-4.2308,-4.2829,-4.1793,-3.8926,-3.6989,-3.4821,-3.2331,-2.9817,-2.8441,-2.8291,-2.8291,-2.8291,-2.8291,-2.8291,-2.8291,-2.8291,-2.8291,-2.832,-2.8593,-3.1682,-3.3075,-3.3479,-3.5892,-3.7591,-3.8803,-3.9457,-3.9697,-3.9697,-3.9697,-3.9697,-3.9697,-3.9697,-3.9697,-3.9697,-3.9697,-4.0074,-4.0526,-4.0588,-4.1003,-4.1543,-4.2087,-4.2263,-4.2426,-4.2861,-4.2974,-4.2974,-4.2974,-4.2974,-4.2974,-4.2974,-4.2974,-4.2974,-4.2974,-4.2974,-4.2974,-4.2974,-4.2974,-4.2974,-4.2974,-4.2974,-4.2974,-4.2974,-4.2974,-4.2974,-4.2974,-4.4058,-4.4887,-4.5195,-4.7568,-4.9098,-4.9421,-5.0555,-5.1214,-5.1214,-5.1214,-5.1214,-5.1214,-5.1214,-5.1214,-5.1214,-5.1214,-5.1214,-2.662,-2.6245,-2.6149,-2.8132,-2.9039,-2.9909,-3.1877,-3.2698,-3.3124,-3.3124,0.0,0.0,0.0,0.0,0.0,0.0,-3.3269,-3.3508,-3.3734,-3.471,-3.6308,-3.88,-4.0194,-4.0501,-3.9277,-3.9107,-3.9715,-4.12,-4.1387,-4.1707,-4.2423,-4.1725,-4.0399,-3.8421,-3.5425,-3.3346,-3.2292,-2.9414,-2.793,-2.793,-2.7676,-2.7685,-2.793,-2.793,-2.8066,-2.8291,-2.8291,-2.8751,-2.9628,-3.1801,-3.3174,-3.412,-3.618,-3.7555,-3.8442,-3.9007,-3.922,-3.927,-3.9584,-3.9697,-3.9697,-3.9697,-3.9697,-3.9697,-3.9697,-3.986,-4.0036,-4.0036,-4.0438,-4.099,-4.1543,-4.1919,-4.2351,-4.2848,-4.2974,-4.2974,-4.2974,-4.2974,-4.2974,-4.2974,-4.2974,-4.2974,-4.2974,-4.2974,-4.2974,-4.2974,-4.2974,-4.2974,-4.2974,-4.2974,-4.2974,-4.2974,-4.37,-4.4167,-4.4167,-4.5462,-4.6591,-4.7402,-4.9259,-5.035,-5.035,-5.0902,-5.1214,-5.1214,-5.1214,-5.1214,-5.1214,-5.1214,-5.1214,-5.1214,-5.1214,-5.1214,-2.6849,-2.638,-2.6197,-2.8355,-2.9177,-2.9954,-3.2108,-3.284,-3.3124,-3.3124,-3.3124,0.0,0.0,0.0,-3.3124,-3.3124,0.0,-3.3124,-3.3124,-3.342,-3.4654,-3.7378,-3.8096,-3.8273,-3.8025,-3.8146,-3.9086,-4.1039,-4.0783,-4.1086,-4.2453,-4.0634,-3.8992,-3.7683,-3.3764,-3.1695,-3.1695,-2.8901,-2.749,-2.748,-2.7168,-2.7178,-2.749,-2.749,-2.7715,-2.8168,-2.8529,-2.9296,-3.0421,-3.214,-3.3464,-3.4568,-3.6304,-3.7199,-3.7651,-3.8366,-3.8781,-3.8982,-3.9333,-3.9572,-3.9697,-3.9697,-3.9697,-3.9697,-3.9697,-3.9697,-3.9697,-3.9697,-3.9986,-4.0413,-4.0912,-4.1404,-4.1936,-4.2585,-4.2748,-4.2798,-4.2949,-4.2974,-4.2974,-4.2974,-4.2974,-4.2974,-4.2974,-4.2974,-4.2974,-4.2974,-4.2974,-4.2974,-4.2974,-4.2974,-4.3129,-4.3492,-4.4427,-4.5142,-4.5555,-4.6888,-4.8275,-4.9664,-5.065,-5.1214,-5.1214,-5.1214,-5.1214,-5.1214,-5.1214,-5.1214,-5.1214,-5.1214,-5.1214,-5.1214,-5.1214,-5.1214,-2.5732,-2.5732,-2.6014,-2.7305,-2.8541,-2.9727,-3.0989,-3.2196,-3.3124,-3.3124,-3.3124,-3.3124,-3.3124,-3.3124,-3.3124,-3.3124,-3.3124,0.0,0.0,-3.3093,-3.3375,-3.3966,-3.5508,-3.6905,-3.7902,-3.8523,-3.9182,-3.9878,-3.9965,-4.0602,-4.2237,-4.0051,-3.8022,-3.6496,-3.2352,-3.0166,-3.0166,-2.8077,-2.7041,-2.7031,-2.7021,-2.7021,-2.7041,-2.7041,-2.7275,-2.778,-2.9075,-2.9919,-3.0525,-3.3216,-3.4337,-3.4532,-3.5883,-3.6455,-3.6593,-3.7638,-3.8391,-3.8919,-3.8944,-3.9245,-3.9697,-3.9697,-3.9697,-3.9697,-3.9697,-3.9697,-3.9697,-3.9697,-3.971,-3.9848,-4.04,-4.0563,-4.084,-4.1974,-4.2238,-4.2389,-4.2861,-4.2974,-4.2974,-4.2974,-4.2974,-4.2974,-4.2974,-4.2974,-4.2974,-4.2974,-4.2974,-4.2974,-4.2974,-4.2974,-4.3492,-4.4779,-4.4994,-4.5555,-4.6888,-4.8339,-4.9727,-5.1058,-5.1167,-5.1214,-5.1214,-5.1214,-5.1214,-5.1214,-5.1214,-5.1214,-5.1214,-5.1214,-5.1214,-5.1214,-5.1214,-5.1214,-2.5693,-2.5693,-2.6014,-2.7268,-2.7908,-2.8541,-2.9727,-3.0361,-3.0866,-3.1689,-3.1821,-3.2096,-3.2939,-3.3124,-3.3124,-3.3124,-3.3124,-3.3124,0.0,-3.3124,-3.3282,-3.3834,-3.5039,-3.583,-3.583,-3.6671,-3.7495,-3.8134,-3.8514,-3.9074,-3.9875,-3.9122,-3.8011,-3.6455,-3.4993,-3.3137,-3.0712,-2.8043,-2.6731,-2.6731,-2.6318,-2.6318,-2.6602,-2.6602,-2.7261,-2.8461,-2.9317,-3.0719,-3.2525,-3.3829,-3.4933,-3.5763,-3.6203,-3.6405,-3.6505,-3.7199,-3.7588,-3.7864,-3.8655,-3.9233,-3.9697,-3.9697,-3.9697,-3.9697,-3.9697,-3.9697,-3.9697,-3.9697,-3.9697,-3.9823,-4.0375,-4.0513,-4.0701,-4.1442,-4.1894,-4.2263,-4.2451,-4.2778,-4.2974,-4.2974,-4.2974,-4.2974,-4.2974,-4.2974,-4.2974,-4.2974,-4.2974,-4.2974,-4.2974,-4.2974,-4.3184,-4.3657,-4.5302,-4.6591,-4.7043,-4.921,-5.0698,-5.1167,-5.1214,-5.1214,-5.1214,-5.1214,-5.1214,-5.1214,-5.1214,-5.1214,-5.1214,-5.1214,-5.1214,-5.1214,-5.1214,-5.1214,-2.5693,-2.5693,-2.6014,-2.7268,-2.7589,-2.7908,-2.9131,-2.9407,-2.9715,-3.0944,-3.1223,-3.1589,-3.2884,-3.3124,-3.3124,-3.3124,-3.3124,-3.3124,0.0,-3.3124,-3.3206,-3.3558,-3.4412,-3.4931,-3.4969,-3.5479,-3.6138,-3.6904,-3.7105,-3.7384,-3.7834,-3.7893,-3.7446,-3.6442,-3.6424,-3.4062,-2.9155,-2.7237,-2.629,-2.628,-2.5889,-2.584,-2.6162,-2.6635,-2.7474,-2.8673,-3.0166,-3.1848,-3.3565,-3.4655,-3.5619,-3.6405,-3.6405,-3.6405,-3.6455,-3.6807,-3.7149,-3.7613,-3.8542,-3.9233,-3.9697,-3.9697,-3.9697,-3.9697,-3.9697,-3.9697,-3.9697,-3.9697,-3.9697,-3.9772,-4.0136,-4.0224,-4.0362,-4.0915,-4.1467,-4.1919,-4.2162,-4.264,-4.2974,-4.2974,-4.2974,-4.2974,-4.2974,-4.2974,-4.2974,-4.2974,-4.2974,-4.2974,-4.2974,-4.2974,-4.3394,-4.4372,-4.6017,-4.7517,-4.8489,-5.0191,-5.1214,-5.1214,-5.1214,-5.1214,-5.1214,-5.1214,-5.1214,-5.1214,-5.1214,-5.1214,-5.1214,-5.1214,-5.1214,-5.1214,-5.1214,-5.1214]}]]